GFSSW_con_sbcape_000.txt.gz
CAPE
0 0 0 0 0 0 0 0 0 0 0 3 1 5 3 2 0 0 0 0 0 301 0 0 0 0 0 0 4 5 65 4 27 0 4 0 108 376 462 1139 673 619 756 970 820
0 0 0 0 0 0 0 0 0 0 0 2 0 2 1 2 0 0 0 0 0 529 0 0 0 0 0 0 0 17 17 4 12 19 27 0 23 165 523 630 608 778 812 1168 1191
0 0 0 0 0 0 0 0 0 0 0 2 0 3 2 0 0 0 0 0 193 81 0 0 0 0 0 0 0 4 8 0 6 79 109 230 328 309 415 563 585 552 661 1313 1231
0 0 0 0 0 0 0 0 0 0 0 2 0 4 0 0 0 0 2 349 444 0 0 0 0 0 0 0 0 32 0 15 7 160 87 193 52 9 247 412 527 471 819 1026 1111
0 2 1 0 0 0 0 0 0 0 0 1 1 2 0 0 0 0 193 381 0 0 0 0 0 0 0 0 0 0 2 15 52 7 46 35 0 199 366 422 340 321 533 680 961
3 5 4 4 2 2 1 1 1 0 0 1 1 0 0 0 0 0 0 0 0 0 0 0 0 0 0 0 0 19 31 48 29 61 52 0 3 5 519 428 331 307 333 410 492
3 5 4 3 1 0 2 2 0 0 0 2 1 0 0 0 0 0 0 0 0 0 0 0 0 0 0 0 0 23 2 0 26 61 198 330 355 128 355 451 411 396 382 378 368
2 5 5 3 3 2 2 2 0 0 0 1 2 0 0 0 0 0 0 0 0 0 0 0 0 0 0 0 0 0 0 0 0 56 161 253 289 105 399 391 353 407 405 414 324
2 2 3 3 3 2 1 1 0 0 0 2 0 0 0 0 0 0 0 0 0 0 0 0 0 0 0 0 0 0 0 0 0 0 78 175 263 123 78 176 255 303 326 324 224
3 0 0 1 2 1 1 0 0 0 0 0 0 0 0 0 0 0 0 0 0 0 0 0 0 0 0 0 0 0 0 0 0 0 17 110 165 176 118 94 154 163 154 208 198
0 0 0 0 0 1 0 0 0 0 0 0 0 0 0 0 0 0 0 0 0 0 0 0 0 0 0 0 0 0 0 0 0 0 97 73 136 214 210 220 247 280 291 313 201
0 0 1 1 0 0 0 0 0 0 0 0 0 0 0 0 0 0 0 0 0 0 0 0 0 0 0 0 0 0 0 0 0 0 0 100 146 168 241 351 390 413 497 494 515
2 2 3 2 0 0 0 0 0 0 0 0 0 0 0 0 0 0 0 0 0 0 0 0 0 0 0 0 0 0 0 0 0 3 3 80 76 106 209 256 207 371 542 449 667
3 3 4 2 0 0 0 0 0 0 0 0 0 0 0 0 0 0 0 0 0 0 0 0 0 0 0 0 0 0 0 0 16 23 6 25 38 6 74 14 56 135 238 379 467
4 5 4 0 0 0 0 0 0 0 0 0 0 0 0 0 0 0 0 0 0 0 0 0 0 0 0 0 0 0 0 0 43 28 6 14 15 37 0 0 0 57 162 262 253
4 1 8 0 0 0 0 0 0 0 0 0 0 0 0 0 0 0 0 0 0 0 0 0 0 0 0 0 0 0 0 0 0 0 7 9 6 0 2 16 0 1 215 188 207
0 0 2 0 0 0 0 0 0 0 0 0 0 0 0 0 0 0 0 0 0 0 0 0 0 0 0 0 0 0 0 0 0 0 0 0 19 0 0 13 1 0 135 182 185
0 0 0 0 0 0 0 0 0 0 0 0 0 0 0 0 0 0 0 0 0 0 0 0 0 0 0 0 0 0 0 0 0 0 0 0 0 0 10 14 2 1 106 165 125
0 0 0 0 0 0 0 0 0 0 0 0 0 0 0 0 0 0 0 0 0 0 0 0 0 0 0 0 0 0 0 0 0 0 0 0 0 0 2 13 0 0 0 63 91
0 0 0 0 0 0 0 0 0 0 0 0 0 0 0 0 0 0 0 0 0 0 0 0 0 0 0 0 0 0 0 0 0 0 0 0 0 0 31 28 15 0 0 0 46
0 0 0 0 0 0 0 0 0 0 0 0 0 0 0 0 0 0 0 0 0 0 0 0 0 0 0 0 0 0 0 0 0 0 0 0 0 0 32 22 27 17 15 0 21
0 0 0 0 0 0 0 0 0 0 0 0 0 0 0 0 0 0 0 0 0 0 0 0 0 0 0 0 0 0 0 0 0 0 0 0 0 0 0 0 13 36 38 1 0
0 0 0 0 0 0 0 0 0 0 0 0 0 0 0 0 0 0 0 0 0 0 0 0 0 0 0 0 0 0 0 0 0 0 0 0 0 0 0 0 0 0 0 0 0
0 0 0 0 0 0 0 0 0 0 0 0 0 0 0 0 0 0 0 0 1 0 0 0 0 0 0 0 0 0 0 0 0 0 0 0 0 0 0 0 0 0 0 0 0
0 0 0 0 0 0 0 0 0 0 0 0 0 0 0 0 0 20 79 96 37 0 1 0 0 0 0 0 0 0 0 0 0 0 0 0 0 0 0 0 0 0 7 10 4
0 0 0 0 0 0 0 0 0 0 0 0 36 1 0 1 55 56 9 21 57 32 0 0 0 0 0 0 0 0 0 0 0 0 0 0 0 0 0 0 0 6 7 0 51
0 0 0 0 0 0 0 0 0 0 0 22 0 3 0 0 0 0 0 0 19 9 4 0 0 0 0 0 0 0 0 0 0 0 0 0 0 0 0 6 0 0 0 0 1

GFSSW_con_sbcape_003.txt.gz
CAPE
0 0 0 0 0 0 0 0 0 0 0 1 1 1 3 4 0 0 0 0 0 142 0 54 112 0 0 0 1 0 0 1 0 0 9 137 438 970 1051 890 547 683 580 577 1039
0 0 0 0 0 0 0 0 0 0 0 1 1 1 4 4 0 0 0 0 11 174 0 0 0 0 0 0 0 14 1 1 0 2 99 56 436 604 836 665 750 783 712 814 1066
0 0 0 0 0 0 0 0 0 0 0 1 1 0 5 0 0 0 0 0 0 141 0 0 0 0 0 0 0 0 18 1 4 17 0 47 197 320 663 626 672 905 845 839 986
1 0 0 0 0 0 0 0 0 0 0 1 2 1 3 0 0 0 0 224 0 0 0 0 0 0 0 0 0 0 2 0 1 60 0 40 151 533 463 545 594 991 955 952 1065
2 1 0 0 0 0 0 0 0 0 1 1 3 1 0 0 0 0 0 130 0 0 0 0 0 0 0 0 0 0 0 0 12 1 14 22 136 333 349 480 623 1077 1220 1154 1238
7 7 5 4 1 0 1 2 1 0 0 2 2 2 0 0 0 0 0 0 0 0 0 0 0 0 0 0 0 0 9 0 2 0 0 148 376 442 458 480 559 1197 1248 1228 1340
4 9 5 3 2 0 0 2 0 0 1 2 0 0 0 0 0 0 0 0 0 0 0 0 0 0 0 0 0 9 0 0 2 22 19 54 158 511 391 402 634 986 940 1091 1121
7 6 5 2 0 1 2 1 0 0 0 1 0 0 0 0 0 0 0 0 0 0 0 0 0 0 0 0 0 1 0 16 27 64 38 137 194 507 337 273 330 405 541 705 833
7 5 4 5 5 1 1 2 0 0 0 0 0 0 0 0 0 0 0 0 0 0 0 0 0 0 0 0 0 0 0 0 21 34 53 86 69 452 328 199 213 252 308 374 280
6 3 2 2 1 2 2 0 0 0 0 0 0 0 0 0 0 0 0 0 0 0 0 0 0 0 0 0 0 0 0 0 15 33 0 30 80 337 296 191 185 185 203 244 302
7 3 3 4 2 1 1 0 0 0 0 0 0 0 0 0 0 0 0 0 0 0 0 0 0 0 0 0 0 0 0 0 0 0 10 40 46 185 232 118 113 168 169 168 193
6 4 3 5 3 1 0 0 0 0 0 0 0 0 0 0 0 0 0 0 0 0 0 0 0 0 0 0 0 0 0 0 0 0 29 36 69 61 59 53 41 53 66 116 130
8 5 4 6 0 0 0 0 0 0 0 0 0 0 0 0 0 0 0 0 0 0 0 0 0 0 0 0 0 0 0 0 0 0 43 73 66 106 83 84 61 81 92 89 73
10 5 9 1 0 0 0 0 0 0 0 0 0 0 0 0 0 0 0 0 0 0 0 0 0 0 0 0 0 0 0 0 0 0 1 53 21 67 119 152 196 217 210 196 169
8 3 3 5 0 0 0 0 0 0 0 0 0 0 0 0 0 0 0 0 0 0 0 0 0 0 0 0 0 0 0 0 0 0 2 13 7 39 57 131 174 203 187 300 361
9 2 3 0 0 0 0 0 0 0 0 0 0 0 0 0 0 0 0 0 0 0 0 0 0 0 0 0 0 0 0 0 0 0 0 4 0 0 33 112 134 90 126 363 266
2 0 2 0 0 0 0 0 0 0 0 0 0 0 0 0 0 0 0 0 0 0 0 0 0 0 0 0 0 0 0 0 0 0 0 0 0 0 1 68 90 63 41 216 284
0 0 0 0 0 0 0 0 0 0 0 0 0 0 0 0 0 0 0 0 0 0 0 0 0 0 0 0 0 0 0 0 0 0 0 0 0 0 0 12 39 35 17 130 193
0 0 0 0 0 0 0 0 0 0 0 0 0 0 0 0 0 0 0 0 0 0 0 0 0 0 0 0 0 0 0 0 0 0 0 0 0 0 0 2 3 0 0 61 142
0 0 0 0 0 0 0 0 0 0 0 0 0 0 0 0 0 0 0 0 0 0 0 0 0 0 0 0 0 0 0 0 0 0 0 0 0 0 0 0 0 0 0 11 119
0 0 0 0 0 0 0 0 0 0 0 0 0 0 0 0 0 0 0 0 0 0 0 0 0 0 0 0 0 0 0 0 0 0 0 0 0 0 0 0 0 0 0 2 54
0 0 0 0 0 0 0 0 0 0 0 0 0 0 0 0 0 0 0 0 0 0 0 0 0 0 0 0 0 0 0 0 0 0 0 0 0 0 0 0 0 2 0 0 2
0 0 0 0 0 0 0 0 0 0 0 0 0 0 0 0 0 0 0 0 0 0 0 0 0 0 0 0 0 0 0 0 0 0 0 0 0 0 0 0 0 0 0 0 0
0 0 0 0 0 0 0 0 0 0 0 0 0 0 0 0 0 0 0 0 0 0 0 0 0 0 0 0 0 0 0 0 0 0 0 0 0 0 0 0 0 0 0 0 0
0 0 0 0 0 0 0 0 0 0 0 0 0 0 0 0 0 0 0 27 28 19 6 0 0 0 0 0 0 0 0 0 0 0 0 0 0 0 0 0 0 0 0 0 0
0 0 0 0 0 0 0 0 0 0 0 0 0 19 20 7 5 0 0 0 1 1 0 0 0 0 0 0 0 0 0 0 0 0 0 0 0 0 0 0 0 0 0 0 0
0 0 0 0 0 0 0 0 0 0 0 0 3 13 34 6 0 0 0 0 0 0 1 0 0 0 0 0 0 0 0 0 0 0 0 0 0 0 0 0 0 0 0 0 0

GFSSW_con_sbcape_009.txt.gz
CAPE
2 2 1 0 0 0 1 1 0 0 0 0 0 1 3 3 0 0 0 0 0 1510 828 463 18 565 764 485 236 5 31 30 24 245 279 433 413 799 690 735 548 542 533 346 726
3 2 2 2 0 0 0 0 0 0 0 0 1 1 3 2 0 0 0 0 6 968 0 0 0 33 12 0 0 14 54 24 3 100 310 471 539 836 872 680 552 734 722 802 946
4 3 2 2 1 0 0 0 0 0 0 0 1 1 1 1 0 0 0 0 38 186 0 0 0 0 0 0 0 19 27 9 10 0 289 502 597 815 694 572 552 824 1016 954 971
4 4 3 2 1 0 0 0 0 0 2 1 1 2 0 0 0 0 0 0 13 0 0 0 0 0 0 0 0 0 0 0 1 27 243 485 660 598 532 178 422 841 995 1009 916
4 3 2 3 1 0 0 0 0 0 1 1 1 1 0 0 0 0 0 23 0 0 0 0 0 0 0 0 0 0 0 0 0 74 159 421 599 449 501 277 675 917 1004 972 923
6 7 6 5 4 1 2 4 2 1 1 2 2 0 0 0 0 0 0 0 0 0 0 0 0 0 0 0 0 0 0 0 0 66 109 292 401 363 360 764 851 981 1000 962 989
7 6 7 6 2 0 2 4 3 1 1 1 2 0 0 0 0 0 0 0 0 0 0 0 0 0 0 0 0 0 8 18 8 1 99 291 438 396 394 858 844 861 907 967 1053
7 9 6 5 4 2 4 6 2 1 1 1 2 0 0 0 0 0 0 0 0 0 0 0 0 0 0 0 0 0 10 27 9 31 149 115 47 374 666 886 721 671 751 872 921
7 7 9 9 10 6 3 3 1 0 1 1 0 0 0 0 0 0 0 0 0 0 0 0 0 0 0 0 0 0 9 23 22 24 151 98 62 339 688 797 788 701 714 816 920
12 9 9 7 7 4 2 0 0 0 0 0 0 0 0 0 0 0 0 0 0 0 0 0 0 0 0 0 0 0 13 18 57 24 139 83 132 476 589 694 816 922 893 949 1066
10 10 10 7 4 0 0 0 0 0 0 0 0 0 0 0 0 0 0 0 0 0 0 0 0 0 0 0 0 0 44 77 52 33 49 91 88 438 520 555 691 1004 1071 1058 1022
10 7 8 4 1 0 0 0 0 0 0 0 0 0 0 0 0 0 0 0 0 0 0 0 0 0 0 0 0 0 23 68 17 34 57 53 57 203 527 500 522 662 847 904 977
10 7 5 5 0 0 0 0 0 0 0 0 0 0 0 0 0 0 0 0 0 0 0 0 0 0 0 0 0 0 7 23 23 8 38 75 35 100 448 487 419 422 475 533 615
9 5 7 3 0 0 0 0 0 0 0 0 0 0 0 0 0 0 0 0 0 0 0 0 0 0 0 0 0 0 0 19 45 30 11 48 23 54 197 528 515 477 404 391 409
7 2 2 5 0 0 0 0 0 0 0 0 0 0 0 0 0 0 0 0 0 0 0 0 0 0 0 0 0 0 0 0 8 42 1 37 2 0 131 287 571 560 494 400 367
2 0 6 0 0 0 0 0 0 0 0 0 0 0 0 0 0 0 0 0 0 0 0 0 0 0 0 0 0 0 0 0 0 0 0 0 4 0 112 197 253 364 414 429 377
0 0 0 0 0 0 0 0 0 0 0 0 0 0 0 0 0 0 0 0 0 0 0 0 0 0 0 0 0 0 0 0 0 0 0 0 2 10 21 115 156 167 240 284 321
0 0 0 0 0 0 0 0 0 0 0 0 0 0 0 0 0 0 0 0 0 0 0 0 0 0 0 0 0 0 0 0 0 0 0 0 0 3 47 43 64 121 155 182 218
0 0 0 0 0 0 0 0 0 0 0 0 0 0 0 0 0 0 0 0 0 0 0 0 0 0 0 0 0 0 0 0 0 0 0 0 0 0 0 2 3 51 109 229 307
0 0 0 0 0 0 0 0 0 0 0 0 0 0 0 0 0 0 0 0 0 0 0 0 0 0 0 0 0 0 0 0 0 0 0 0 0 0 7 11 54 22 134 258 448
0 0 0 0 0 0 0 0 0 0 0 0 0 0 0 0 0 0 0 0 0 0 0 0 0 0 0 0 0 0 0 0 0 0 0 0 0 0 4 150 74 59 93 253 464
0 0 0 0 0 0 0 0 0 0 0 0 0 0 0 0 0 0 0 0 0 0 0 0 0 0 0 0 0 0 0 0 0 0 0 0 0 0 0 0 2 41 24 77 520
0 0 0 0 0 0 0 0 0 0 0 0 0 0 0 0 0 0 0 0 0 0 0 0 0 0 0 0 0 0 0 0 0 0 0 0 0 0 0 0 0 1 43 98 289
1 0 0 0 0 0 0 0 0 0 0 0 0 0 0 0 0 0 0 0 0 0 29 0 0 0 0 0 0 0 0 0 0 0 0 0 0 0 0 5 25 24 85 114 144
1 0 2 0 0 0 0 0 0 0 0 0 0 0 0 0 0 0 0 0 0 0 68 33 0 0 0 0 0 0 0 0 0 0 0 0 0 0 20 114 223 197 240 108 169
9 18 1 5 0 0 0 0 0 0 0 0 0 0 0 0 0 0 0 0 0 33 133 0 33 0 0 0 0 0 0 0 0 0 0 0 0 0 0 39 131 137 265 191 202
0 4 12 0 0 0 0 0 0 0 0 0 0 0 0 0 0 0 0 0 7 62 269 319 5 66 0 0 0 0 0 0 0 0 0 0 0 0 0 3 96 270 358 494 470

GFSSW_con_sbcape_012.txt.gz
CAPE
2 2 2 2 1 0 0 0 0 0 0 0 0 1 1 1 0 0 0 0 0 1416 1488 52 51 286 324 367 297 273 188 117 104 159 266 172 200 418 462 724 571 509 350 474 407
3 2 1 2 1 1 0 0 0 0 0 0 0 0 0 0 0 0 0 0 503 1540 0 0 7 122 90 5 10 66 223 122 42 48 324 223 226 517 635 651 572 730 599 546 475
3 3 3 2 1 1 0 0 0 0 0 0 0 0 1 0 0 0 0 0 511 912 0 0 0 0 0 0 0 0 70 87 35 5 227 315 319 497 272 534 451 748 872 734 664
2 2 3 3 2 1 0 0 0 0 1 1 1 1 0 0 0 0 0 0 865 0 0 0 0 0 0 0 0 0 0 0 0 0 224 359 372 430 237 175 317 557 891 836 814
2 2 2 3 2 1 0 2 2 1 1 1 1 1 0 0 0 0 0 0 0 0 0 0 0 0 0 0 0 0 0 0 0 0 111 366 438 414 350 316 487 706 917 810 817
6 6 5 3 2 0 1 5 5 1 1 1 3 0 0 0 0 0 0 0 0 0 0 0 0 0 0 0 0 0 0 0 0 25 206 382 562 523 362 362 730 918 1001 871 827
8 5 7 6 1 1 2 4 2 1 1 2 1 0 0 0 0 0 0 0 0 0 0 0 0 0 0 0 0 0 0 4 0 244 353 363 650 569 455 622 1049 1017 1013 895 840
5 3 1 2 1 4 5 6 1 1 1 1 1 0 0 0 0 0 0 0 0 0 0 0 0 0 0 0 0 0 0 20 120 280 401 455 322 491 731 756 994 922 979 831 856
6 3 4 6 5 5 3 1 0 1 1 0 0 0 0 0 0 0 0 0 0 0 0 0 0 0 0 0 0 0 1 11 207 245 394 453 206 462 776 829 1001 801 674 734 864
14 10 5 5 2 1 0 0 0 0 0 0 0 0 0 0 0 0 0 0 0 0 0 0 0 0 0 0 0 0 0 24 36 218 342 348 296 507 769 712 770 925 659 605 681
9 6 3 2 1 0 0 0 0 0 0 0 0 0 0 0 0 0 0 0 0 0 0 0 0 0 0 0 0 2 19 46 53 178 271 184 152 409 792 773 714 990 927 641 469
7 8 3 1 0 0 0 0 0 0 0 0 0 0 0 0 0 0 0 0 0 0 0 0 0 0 0 0 0 0 3 40 88 154 179 140 198 211 441 810 680 794 987 1039 654
4 5 2 1 0 0 0 0 0 0 0 0 0 0 0 0 0 0 0 0 0 0 0 0 0 0 0 0 0 0 0 18 99 144 180 106 187 170 125 491 662 689 674 1003 877
5 3 1 0 0 0 0 0 0 0 0 0 0 0 0 0 0 0 0 0 0 0 0 0 0 0 0 0 0 0 0 4 75 109 114 137 108 55 97 315 567 756 684 535 888
5 0 0 0 0 0 0 0 0 0 0 0 0 0 0 0 0 0 0 0 0 0 0 0 0 0 0 0 0 0 0 0 26 77 93 123 135 31 38 127 379 694 768 537 303
2 0 0 0 0 0 0 0 0 0 0 0 0 0 0 0 0 0 0 0 0 0 0 0 0 0 0 0 0 0 0 9 29 44 83 89 74 4 11 133 87 300 605 673 232
0 0 0 0 0 0 0 0 0 0 0 0 0 0 0 0 0 0 0 0 0 0 0 0 0 0 0 0 0 0 0 21 42 45 43 41 47 0 0 10 29 36 273 678 321
0 0 0 0 0 0 0 0 0 0 0 0 0 0 0 0 0 0 0 0 0 0 0 0 0 0 0 0 0 0 0 7 44 29 32 15 4 0 27 9 0 20 67 493 485
0 0 0 0 0 0 0 0 0 0 0 0 0 0 0 0 0 0 0 0 0 0 0 0 0 0 0 0 0 0 0 0 34 46 41 6 1 0 4 5 10 29 83 325 585
0 0 0 0 0 0 0 0 0 0 0 0 0 0 0 0 0 0 0 0 0 0 0 0 0 0 0 0 0 0 0 0 8 70 40 7 18 0 18 0 0 45 117 257 549
0 0 0 0 0 0 0 0 0 0 0 0 0 0 0 0 0 0 0 0 0 0 0 0 0 0 0 0 0 0 0 0 1 4 23 37 2 0 0 0 0 3 109 144 472
0 0 0 0 0 0 0 0 0 0 0 0 0 0 0 0 0 0 0 0 0 0 0 0 1 0 0 0 0 0 0 0 0 1 9 14 2 1 0 0 0 0 3 43 241
0 0 0 0 0 0 0 0 0 0 0 0 0 0 0 0 0 0 0 0 0 0 0 2 1 13 0 0 0 0 0 0 0 0 84 23 0 0 0 0 9 29 54 77 336
0 0 0 0 0 0 0 2 0 0 0 0 0 0 0 0 0 0 0 0 0 0 0 0 1 0 0 0 0 0 0 0 0 0 0 4 33 12 0 0 0 0 51 88 567
15 1 1 0 54 46 46 40 1 0 0 0 0 0 0 0 0 0 0 0 0 4 0 0 6 41 3 0 4 0 0 0 0 0 0 0 4 13 0 0 0 0 0 130 662
34 57 32 0 0 0 0 0 23 3 8 0 0 0 0 0 0 0 0 0 0 0 0 0 79 110 70 21 23 33 18 0 0 0 0 0 0 0 0 0 0 0 0 53 857
34 25 24 1 0 0 0 8 4 53 3 0 0 0 0 3 5 6 1 0 0 1 0 3 38 283 119 76 108 81 6 7 3 0 0 0 0 0 0 0 0 0 26 191 782

GFSSW_con_sbcape_015.txt.gz
CAPE
2 1 1 1 1 0 0 0 0 0 0 0 0 1 0 0 0 0 0 0 0 1607 1851 15 71 7 28 32 102 155 102 193 55 175 9 0 26 19 202 280 172 321 643 804 948
3 2 1 1 1 0 0 0 0 0 0 1 1 1 0 0 0 0 0 27 863 1155 0 0 0 0 15 0 63 27 33 126 51 126 47 6 16 21 87 163 328 377 662 742 890
5 4 3 2 1 0 0 0 0 0 0 1 0 1 0 0 0 0 0 132 1016 583 0 0 0 0 0 0 0 9 83 58 52 29 143 38 46 24 97 92 279 441 610 642 797
5 4 3 3 2 1 0 0 1 0 1 1 0 0 0 0 0 0 0 0 848 0 0 0 0 0 0 0 0 0 8 6 42 19 67 81 122 30 15 101 128 421 505 598 798
5 3 1 1 0 0 0 2 4 2 1 0 0 0 0 0 0 0 3 55 0 0 0 0 0 0 0 0 0 0 8 3 0 5 30 132 124 67 15 15 120 446 516 599 746
3 2 4 2 0 0 1 5 5 1 0 1 1 0 0 0 0 0 0 0 0 0 0 0 0 0 0 0 0 1 0 1 1 4 12 128 123 117 13 27 240 609 600 614 639
3 4 4 2 0 0 0 3 0 0 1 1 1 0 0 0 0 0 0 0 0 0 0 0 0 0 0 0 0 0 0 3 0 1 9 45 87 91 8 217 377 577 633 485 531
2 3 4 1 0 0 1 1 0 0 1 1 1 0 0 0 0 0 0 0 0 0 0 0 0 0 0 0 0 0 0 67 7 0 36 116 151 70 172 222 366 441 623 492 513
3 6 4 1 0 0 0 0 0 0 0 0 0 0 0 0 0 0 0 0 0 0 0 0 0 0 0 0 0 0 4 17 4 17 159 99 10 137 239 178 194 396 401 530 556
6 5 5 2 0 0 0 0 0 0 0 0 0 0 0 0 0 0 0 0 0 0 0 0 0 0 0 0 0 8 22 78 135 21 188 104 285 303 391 252 117 190 200 335 419
7 7 5 1 0 0 0 0 0 0 0 0 0 0 0 0 0 0 0 0 0 0 0 0 0 0 0 0 0 19 66 12 70 31 94 158 183 258 506 474 266 255 148 172 227
5 5 0 0 0 0 0 0 0 0 0 0 0 0 0 0 0 0 0 0 0 0 0 0 0 0 0 0 0 0 36 65 38 40 63 150 200 296 597 508 537 458 325 223 179
4 6 1 0 0 0 0 0 0 0 0 0 0 0 0 0 0 0 0 0 0 0 0 0 0 0 0 0 0 0 11 47 74 146 94 129 148 194 220 532 549 438 544 411 208
7 5 1 0 0 0 0 0 0 0 0 0 0 0 0 0 0 0 0 0 0 0 0 0 0 0 0 0 0 0 0 14 63 57 147 29 160 185 121 194 439 671 553 607 341
3 1 0 0 0 0 0 0 0 0 0 0 0 0 0 0 0 0 0 0 0 0 0 0 0 0 0 0 0 0 0 14 37 142 202 77 106 58 75 133 174 434 666 638 446
1 0 0 0 0 0 0 0 0 0 0 0 0 0 0 0 0 0 0 0 0 0 0 0 0 0 0 0 0 0 0 26 37 73 111 160 125 193 55 126 167 166 433 753 697
0 0 0 0 0 0 0 0 0 0 0 0 0 0 0 0 0 0 0 0 0 0 0 0 0 0 0 0 0 0 0 22 62 72 49 108 140 216 125 89 75 67 115 472 816
0 0 0 0 0 0 0 0 0 0 0 0 0 0 0 0 0 0 0 0 0 0 0 0 0 0 0 0 0 0 0 1 30 52 51 53 84 84 109 53 65 43 32 90 540
0 0 0 0 0 0 0 0 0 0 0 0 0 0 0 0 0 0 0 0 0 0 0 0 0 0 0 0 0 0 0 0 23 71 90 73 62 41 53 108 78 40 20 24 362
0 0 0 0 0 0 0 0 0 0 0 0 0 0 0 0 0 0 0 0 0 0 0 0 0 0 0 0 0 0 0 0 15 132 137 80 84 67 67 49 27 29 6 10 130
0 0 0 0 0 0 0 0 0 0 0 0 0 0 0 0 0 0 0 0 0 0 0 0 0 0 0 0 0 0 0 0 2 45 80 100 102 80 116 56 23 15 11 18 61
0 0 0 0 0 0 0 0 0 0 0 0 0 0 0 0 0 0 0 0 0 0 0 0 0 0 0 0 0 0 0 0 24 28 29 119 88 35 21 21 17 27 25 50 44
1 0 0 0 0 0 0 0 0 0 0 0 0 0 0 0 0 0 0 0 0 0 0 0 0 0 0 0 0 0 0 0 0 11 164 99 16 19 33 55 61 40 6 32 67
33 13 12 15 6 0 0 0 0 0 0 0 0 0 0 0 0 0 0 0 0 0 0 0 2 0 0 0 0 0 0 0 0 0 11 14 68 91 69 31 10 8 18 0 3
57 33 42 57 72 11 7 58 14 11 12 6 3 0 0 0 0 0 0 0 0 2 0 0 0 0 0 3 7 0 0 0 0 0 3 4 53 62 96 94 33 7 5 0 0
89 88 76 52 95 11 5 22 0 0 2 0 3 1 2 2 0 0 0 0 0 0 0 0 0 0 2 2 1 6 10 0 0 0 0 0 0 23 36 163 57 0 0 0 3
137 122 113 25 99 123 15 3 4 10 15 0 0 0 29 12 0 2 27 3 0 23 10 0 14 8 5 24 77 77 1 2 7 8 0 0 0 0 9 53 57 16 7 0 1

GFSSW_con_sbcape_018.txt.gz
CAPE
3 2 1 2 1 1 1 0 0 0 0 0 0 0 0 0 0 0 0 0 0 1107 872 0 0 2 0 0 10 184 19 53 14 1 0 0 0 78 177 104 177 453 394 628 610
3 3 1 0 0 0 0 1 0 0 0 0 0 0 0 0 0 0 0 57 779 758 0 0 0 0 0 0 4 13 142 2 18 54 0 5 0 0 0 1 133 594 578 521 568
2 2 0 0 0 0 0 0 0 0 0 0 0 1 0 0 0 0 0 479 812 96 0 0 0 0 0 0 25 1 1 2 39 26 10 29 15 0 3 7 101 614 690 606 542
2 1 1 0 0 0 0 0 0 0 0 0 0 0 0 0 0 0 9 478 787 0 0 0 0 0 0 0 15 26 1 16 49 96 73 21 13 0 23 27 85 651 787 716 557
2 3 2 1 0 0 0 0 0 0 0 0 0 1 0 0 0 0 109 112 0 0 0 0 0 0 0 0 10 2 1 33 10 0 10 18 11 3 19 45 88 301 521 676 643
1 2 4 3 3 1 0 0 0 0 0 0 1 1 0 0 0 0 0 0 0 0 0 0 0 0 0 0 0 0 0 1 1 11 0 71 57 5 3 17 46 221 356 501 609
3 5 6 5 2 0 1 0 0 0 0 0 3 0 0 0 0 0 0 0 0 0 0 0 0 0 0 0 0 0 0 0 0 0 12 85 38 41 4 12 92 188 284 383 523
5 5 5 3 0 0 0 0 0 0 0 2 1 0 0 0 0 0 0 0 0 0 0 0 0 0 0 0 0 0 0 0 5 0 14 48 109 28 4 0 5 193 198 307 375
4 4 3 3 0 0 0 0 0 0 0 0 0 0 0 0 0 0 0 0 0 0 0 0 0 0 0 0 0 0 0 0 1 3 27 17 144 182 85 0 13 109 164 163 482
6 5 4 1 0 0 0 0 0 0 0 0 0 0 0 0 0 0 0 0 0 0 0 0 0 0 0 0 0 0 0 1 14 30 59 149 160 8 11 50 41 26 98 236 142
6 4 1 0 0 0 0 0 0 0 0 0 0 0 0 0 0 0 0 0 0 0 0 0 0 0 0 0 0 0 0 1 7 19 5 320 32 14 26 163 51 73 62 135 262
5 4 2 0 0 0 0 0 0 0 0 0 0 0 0 0 0 0 0 0 0 0 0 0 0 0 0 0 0 0 0 8 30 40 62 143 416 189 211 235 118 65 27 23 38
1 1 0 0 0 0 0 0 0 0 0 0 0 0 0 0 0 0 0 0 0 0 0 0 0 0 0 0 0 0 0 0 0 24 35 46 60 219 202 194 202 111 108 28 30
1 1 0 0 0 0 0 0 0 0 0 0 0 0 0 0 0 0 0 0 0 0 0 0 0 0 0 0 0 0 0 0 2 31 20 22 39 367 124 453 284 227 250 251 93
3 1 0 0 0 0 0 0 0 0 0 0 0 0 0 0 0 0 0 0 0 0 0 0 0 0 0 0 0 0 0 0 0 5 80 191 76 240 315 395 558 328 295 277 552
2 0 0 0 0 0 0 0 0 0 0 0 0 0 0 0 0 0 0 0 0 0 0 0 0 0 0 0 0 0 0 0 0 1 25 43 56 141 270 104 18 258 371 503 496
0 0 0 0 0 0 0 0 0 0 0 0 0 0 0 0 0 0 0 0 0 0 0 0 0 0 0 0 0 0 0 0 1 27 8 51 119 109 154 142 44 0 157 583 701
0 0 0 0 0 0 0 0 0 0 0 0 0 0 0 0 0 0 0 0 0 0 0 0 0 0 0 0 0 0 0 0 0 1 4 16 34 114 345 93 34 41 152 368 713
0 0 0 0 0 0 0 0 0 0 0 0 0 0 0 0 0 0 0 0 0 0 0 0 0 0 0 0 0 0 0 0 0 0 23 21 33 23 102 171 5 9 67 76 546
0 0 0 0 0 0 0 0 0 0 0 0 0 0 0 0 0 0 0 0 0 0 0 0 0 0 0 0 0 0 0 0 0 1 15 22 77 103 173 291 188 13 57 64 44
0 0 0 0 0 0 0 0 0 0 0 0 0 0 0 0 0 0 0 0 0 0 0 0 0 0 0 0 0 0 0 0 0 0 2 26 30 156 393 593 436 120 49 49 21
1 0 0 0 0 0 0 0 0 0 0 0 0 0 0 0 0 0 0 0 0 0 0 0 0 0 0 0 0 0 0 0 0 0 0 0 20 73 199 163 303 127 124 69 71
8 0 0 0 0 0 0 0 0 0 0 0 0 0 0 0 0 0 0 0 0 0 0 0 0 0 0 0 0 0 0 0 0 0 1 2 0 12 168 0 96 155 76 208 463
28 1 0 1 1 7 9 0 2 0 0 0 0 0 0 0 0 0 0 0 0 0 31 14 0 0 0 0 0 0 0 0 0 0 0 1 6 72 313 204 61 194 98 199 638
40 22 13 18 1 4 0 25 8 1 1 2 3 0 0 0 0 0 0 0 0 40 7 0 1 0 0 0 3 0 0 0 0 0 0 0 0 80 167 470 242 390 52 223 666
53 52 78 36 0 0 0 4 0 3 11 0 0 0 0 0 0 0 0 0 0 1 0 0 7 0 0 0 0 6 1 0 0 0 0 0 0 0 58 226 556 9 133 316 416
45 213 166 65 33 36 10 8 7 4 0 14 3 2 0 0 0 0 0 0 0 0 72 12 2 39 0 0 4 54 0 1 0 0 0 0 0 4 43 75 295 592 219 377 257

GFSSW_con_sbcape_021.txt.gz
CAPE
4 2 1 0 0 0 0 0 0 0 0 0 0 2 3 2 0 0 0 0 0 543 601 2 1 9 81 198 194 105 76 56 42 43 0 37 87 213 274 428 548 546 697 771 638
2 1 1 1 0 0 0 0 0 0 0 0 0 0 2 1 0 0 0 0 0 397 0 0 0 0 0 2 123 59 47 19 12 6 20 66 173 167 212 291 296 556 709 904 836
0 0 0 0 0 0 0 0 0 0 0 0 0 1 1 0 0 0 178 0 0 94 0 0 0 0 0 0 0 32 20 76 51 21 36 6 0 0 34 398 302 508 724 903 868
0 0 0 0 0 0 0 0 0 0 0 0 0 1 0 0 0 0 0 402 734 0 0 0 0 0 0 0 0 0 9 24 11 89 13 8 0 7 0 210 437 309 199 997 741
1 2 2 0 0 0 0 0 0 0 0 0 0 1 0 0 0 0 0 119 0 0 0 0 0 0 0 0 0 0 6 37 35 44 48 17 5 22 47 522 547 451 322 550 736
3 5 6 6 4 3 2 1 0 0 0 0 0 1 0 0 0 0 0 0 0 0 0 0 0 0 0 0 0 0 0 1 31 60 53 15 15 21 100 622 664 597 435 342 175
3 4 4 6 3 1 2 1 0 0 0 0 1 0 0 0 0 0 0 0 0 0 0 0 0 0 0 0 0 0 0 0 0 2 73 64 35 1 27 367 583 563 503 447 368
4 3 2 3 3 3 1 0 0 0 0 0 0 0 0 0 0 0 0 0 0 0 0 0 0 0 0 0 0 0 0 0 0 0 8 27 15 20 0 174 316 308 417 482 427
6 3 1 0 0 0 0 0 0 0 0 0 0 0 0 0 0 0 0 0 0 0 0 0 0 0 0 0 0 0 0 0 0 0 0 22 0 0 0 79 96 185 178 271 298
2 4 3 0 0 0 0 0 0 0 0 0 0 0 0 0 0 0 0 0 0 0 0 0 0 0 0 0 0 0 0 0 0 0 12 8 1 0 0 0 89 60 69 95 146
7 4 3 1 0 0 0 0 0 0 0 0 0 0 0 0 0 0 0 0 0 0 0 0 0 0 0 0 0 0 0 0 0 18 47 17 4 7 0 0 0 34 0 60 79
6 4 2 0 0 0 0 0 0 0 0 0 0 0 0 0 0 0 0 0 0 0 0 0 0 0 0 0 0 0 0 0 0 20 44 106 18 0 0 0 0 1 8 36 64
4 2 0 0 0 0 0 0 0 0 0 0 0 0 0 0 0 0 0 0 0 0 0 0 0 0 0 0 0 0 0 0 0 0 50 116 56 0 0 0 0 0 1 28 31
3 0 0 0 0 0 0 0 0 0 0 0 0 0 0 0 0 0 0 0 0 0 0 0 0 0 0 0 0 0 0 0 0 0 0 78 43 7 0 10 4 0 0 2 32
3 0 0 0 0 0 0 0 0 0 0 0 0 0 0 0 0 0 0 0 0 0 0 0 0 0 0 0 0 0 0 0 0 0 7 0 0 44 38 20 27 0 0 0 0
1 0 0 0 0 0 0 0 0 0 0 0 0 0 0 0 0 0 0 0 0 0 0 0 0 0 0 0 0 0 0 0 0 0 1 0 0 1 56 14 27 44 7 1 0
0 0 0 0 0 0 0 0 0 0 0 0 0 0 0 0 0 0 0 0 0 0 0 0 0 0 0 0 0 0 0 0 0 0 0 0 0 0 16 11 124 118 59 78 22
0 0 0 0 0 0 0 0 0 0 0 0 0 0 0 0 0 0 0 0 0 0 0 0 0 0 0 0 0 0 0 0 0 0 0 0 0 0 44 39 167 115 6 92 66
0 0 0 0 0 0 0 0 0 0 0 0 0 0 0 0 0 0 0 0 0 0 0 0 0 0 0 0 0 0 0 0 0 0 0 0 0 0 13 40 68 10 4 2 0
0 0 0 0 0 0 0 0 0 0 0 0 0 0 0 0 0 0 0 0 0 0 0 0 0 0 0 0 0 0 0 0 0 0 0 0 0 0 0 30 27 5 2 7 0
0 0 0 0 0 0 0 0 0 0 0 0 0 0 0 0 0 0 0 0 0 0 0 0 0 0 0 0 0 0 0 0 0 0 0 0 0 0 0 82 62 3 1 1 0
0 0 0 0 0 0 0 0 0 0 0 0 0 0 0 0 0 0 0 0 0 0 0 0 0 0 0 0 0 0 0 0 0 0 0 0 0 0 0 80 98 38 0 0 0
1 0 0 0 0 0 0 0 0 0 0 0 0 0 0 0 0 0 0 0 0 0 0 0 0 0 0 0 0 0 0 0 0 0 0 0 0 0 0 4 4 0 7 0 7
32 5 0 0 0 3 1 0 0 0 1 0 0 0 0 0 0 0 0 0 0 0 12 38 0 0 0 0 0 0 0 0 0 0 0 0 0 0 10 37 0 0 2 6 52
89 20 8 4 0 0 0 1 0 0 0 0 0 0 0 0 0 0 0 0 0 0 0 0 0 0 0 0 0 0 0 0 0 0 0 0 0 0 0 122 72 74 6 3 108
56 50 1 0 0 0 0 0 0 0 3 0 0 0 0 9 3 0 0 0 0 0 0 0 0 0 0 0 0 0 0 0 0 0 0 0 0 0 0 152 147 88 48 1 0
50 144 60 6 1 1 0 1 4 9 2 0 0 0 0 0 5 0 0 0 0 0 0 0 0 0 0 0 0 0 0 0 0 0 0 0 0 0 0 0 212 305 55 0 13

GFSSW_con_sbcape_024.txt.gz
CAPE
1 1 0 0 0 0 0 0 0 0 0 0 0 0 3 4 0 0 0 0 0 1213 1361 566 301 401 923 229 198 41 0 52 0 1 125 279 499 599 572 523 352 634 280 229 238
2 1 1 1 0 0 0 0 0 0 0 0 0 0 1 4 0 0 0 0 0 383 0 122 37 32 562 364 190 6 0 24 8 1 64 80 327 487 659 580 713 528 390 291 272
2 2 1 1 0 1 0 0 0 0 0 0 0 1 1 2 0 0 0 0 0 91 0 0 0 0 0 15 125 14 14 24 51 61 95 191 380 448 658 652 661 594 524 412 379
2 1 0 0 1 0 0 0 0 0 0 0 0 0 0 0 0 0 169 334 0 0 0 0 0 0 0 0 27 1 16 12 53 72 44 92 392 486 448 411 504 835 664 538 528
1 1 1 0 0 0 0 0 1 0 0 0 0 0 0 0 0 0 0 251 0 0 0 0 0 0 0 0 0 0 0 12 48 62 15 17 43 443 381 406 581 867 821 621 602
2 4 4 4 4 3 3 2 2 0 0 0 0 1 0 0 0 0 0 0 0 0 0 0 0 0 0 0 0 0 0 0 5 20 21 13 10 187 365 547 749 900 872 749 660
7 6 5 4 4 3 3 1 1 0 0 0 0 0 0 0 0 0 0 0 0 0 0 0 0 0 0 0 0 0 0 0 0 0 37 4 82 554 574 391 480 929 896 868 756
10 9 6 4 3 2 1 1 0 0 0 0 0 0 0 0 0 0 0 0 0 0 0 0 0 0 0 0 0 0 0 0 0 9 24 0 0 637 574 452 219 526 953 811 640
4 6 4 2 2 0 0 0 0 0 0 0 0 0 0 0 0 0 0 0 0 0 0 0 0 0 0 0 0 0 0 0 0 1 31 1 0 0 630 553 402 334 344 467 327
6 4 4 2 0 0 0 0 0 0 0 0 0 0 0 0 0 0 0 0 0 0 0 0 0 0 0 0 0 0 0 0 0 0 20 13 0 0 572 548 510 481 397 351 299
8 6 4 1 0 0 0 0 0 0 0 0 0 0 0 0 0 0 0 0 0 0 0 0 0 0 0 0 0 0 0 0 0 0 3 6 2 0 344 357 400 432 426 373 301
5 4 4 1 0 0 0 0 0 0 0 0 0 0 0 0 0 0 0 0 0 0 0 0 0 0 0 0 0 0 0 0 0 0 2 10 15 0 1 74 227 214 242 299 227
3 3 2 0 0 0 0 0 0 0 0 0 0 0 0 0 0 0 0 0 0 0 0 0 0 0 0 0 0 0 0 0 0 0 15 11 21 1 0 0 0 78 110 144 96
2 2 2 2 0 0 0 0 0 0 0 0 0 0 0 0 0 0 0 0 0 0 0 0 0 0 0 0 0 0 0 0 0 0 0 4 1 11 0 0 0 0 12 75 66
1 1 1 0 0 0 0 0 0 0 0 0 0 0 0 0 0 0 0 0 0 0 0 0 0 0 0 0 0 0 0 0 0 0 0 0 0 0 8 0 0 0 4 19 20
0 0 0 0 0 0 0 0 0 0 0 0 0 0 0 0 0 0 0 0 0 0 0 0 0 0 0 0 0 0 0 0 0 0 0 0 0 0 0 0 0 0 0 0 3
0 0 0 0 0 0 0 0 0 0 0 0 0 0 0 0 0 0 0 0 0 0 0 0 0 0 0 0 0 0 0 0 0 0 0 0 0 0 0 0 0 0 0 0 0
0 0 0 0 0 0 0 0 0 0 0 0 0 0 0 0 0 0 0 0 0 0 0 0 0 0 0 0 0 0 0 0 0 0 0 0 0 0 0 0 0 7 0 0 0
0 0 0 0 0 0 0 0 0 0 0 0 0 0 0 0 0 0 0 0 0 0 0 0 0 0 0 0 0 0 0 0 0 0 0 0 0 0 0 0 0 9 9 0 0
0 0 0 0 0 0 0 0 0 0 0 0 0 0 0 0 0 0 0 0 0 0 0 0 0 0 0 0 0 0 0 0 0 0 0 0 0 0 0 0 0 0 10 0 1
0 0 0 0 0 0 0 0 0 0 0 0 0 0 0 0 0 0 0 0 0 0 0 0 0 0 0 0 0 0 0 0 0 0 0 0 0 0 0 0 0 7 28 24 31
0 0 0 0 0 0 0 0 0 0 0 0 0 0 0 0 0 0 0 0 0 0 0 0 0 0 0 0 0 0 0 0 0 0 0 0 0 0 0 0 0 0 1 36 83
0 0 0 0 0 0 0 0 0 0 0 0 0 0 0 0 0 0 0 0 0 0 0 0 0 0 0 0 0 0 0 0 0 0 0 0 0 0 0 0 0 0 4 0 0
0 0 0 0 0 0 0 0 0 0 0 0 0 0 0 0 0 0 0 0 0 0 0 0 0 0 0 0 0 0 0 0 0 0 0 0 0 0 0 0 0 0 0 1 0
0 0 0 1 0 0 4 1 0 0 0 0 0 0 0 0 0 0 0 0 0 0 0 0 0 0 0 0 0 0 0 0 0 0 0 0 0 0 0 0 0 0 0 0 0
7 14 0 6 0 0 0 5 3 2 0 0 0 0 0 0 0 0 0 0 0 0 0 0 0 0 0 0 0 0 0 0 0 0 0 0 0 0 0 0 0 0 0 0 0
28 24 23 0 0 0 0 0 0 0 0 16 11 4 0 0 0 0 0 0 0 0 0 0 0 0 0 0 0 0 0 0 0 0 0 0 0 0 0 0 0 0 0 0 0

GFSSW_con_sbcape_027.txt.gz
CAPE
5 4 3 2 2 1 1 1 1 0 0 0 0 0 1 4 1 0 0 0 0 1832 1973 1339 468 649 613 561 123 5 0 1 27 11 91 403 427 224 321 180 128 225 119 125 318
4 3 2 2 1 1 1 1 0 0 0 0 0 0 1 3 0 0 0 0 0 1251 793 776 468 947 892 383 240 0 0 0 0 0 99 420 414 309 369 156 410 218 183 288 374
5 3 3 3 2 1 1 1 0 0 0 0 1 0 1 1 0 0 0 0 186 979 0 328 116 427 581 76 246 10 167 17 16 43 198 466 469 477 415 263 429 163 258 297 282
4 4 4 3 3 3 2 1 1 1 0 0 0 0 0 0 0 0 348 139 23 0 0 0 0 0 0 14 74 51 5 22 31 17 25 431 478 513 375 296 447 181 234 284 292
1 2 2 3 2 2 1 1 1 0 0 0 0 0 0 0 0 0 1 0 0 0 0 0 0 0 0 0 0 68 17 1 24 9 0 368 448 600 550 476 428 335 289 271 265
4 8 8 7 9 5 4 4 2 1 0 1 1 0 0 0 0 0 0 0 0 0 0 0 0 0 0 0 0 0 0 0 0 0 3 364 506 515 670 656 636 500 377 312 295
9 8 6 6 9 7 4 2 2 0 0 2 1 0 0 0 0 0 0 0 0 0 0 0 0 0 0 0 0 0 0 0 0 0 0 59 262 418 442 650 810 645 534 447 381
11 8 7 8 7 5 0 1 2 0 0 0 3 0 0 0 0 0 0 0 0 0 0 0 0 0 0 0 0 0 0 0 0 0 0 0 0 283 388 604 838 790 729 636 509
8 6 6 6 6 3 0 2 0 0 0 1 0 0 0 0 0 0 0 0 0 0 0 0 0 0 0 0 0 0 0 0 0 0 0 0 0 339 443 630 767 826 814 759 625
7 5 3 5 3 0 0 0 0 0 0 0 0 0 0 0 0 0 0 0 0 0 0 0 0 0 0 0 0 0 0 0 0 0 0 0 0 421 431 550 798 783 799 844 732
11 6 3 2 2 0 0 0 0 0 0 0 0 0 0 0 0 0 0 0 0 0 0 0 0 0 0 0 0 0 0 0 0 0 0 0 0 422 379 326 379 755 821 862 735
8 5 4 3 0 0 0 0 0 0 0 0 0 0 0 0 0 0 0 0 0 0 0 0 0 0 0 0 0 0 0 0 0 0 0 0 0 0 393 391 339 364 501 640 702
2 2 1 4 0 0 0 0 0 0 0 0 0 0 0 0 0 0 0 0 0 0 0 0 0 0 0 0 0 0 0 0 0 0 0 0 0 0 288 447 448 382 295 260 255
2 1 1 2 0 0 0 0 0 0 0 0 0 0 0 0 0 0 0 0 0 0 0 0 0 0 0 0 0 0 0 0 0 0 0 0 0 0 24 361 353 316 306 242 189
3 0 0 0 0 0 0 0 0 0 0 0 0 0 0 0 0 0 0 0 0 0 0 0 0 0 0 0 0 0 0 0 0 0 0 0 0 0 0 0 0 75 141 154 164
0 0 0 0 0 0 0 0 0 0 0 0 0 0 0 0 0 0 0 0 0 0 0 0 0 0 0 0 0 0 0 0 0 0 0 0 0 0 0 0 0 0 9 45 56
0 0 0 0 0 0 0 0 0 0 0 0 0 0 0 0 0 0 0 0 0 0 0 0 0 0 0 0 0 0 0 0 0 0 0 0 0 0 0 0 0 0 0 2 4
0 0 0 0 0 0 0 0 0 0 0 0 0 0 0 0 0 0 0 0 0 0 0 0 0 0 0 0 0 0 0 0 0 0 0 0 0 0 0 0 0 0 0 0 0
0 0 0 0 0 0 0 0 0 0 0 0 0 0 0 0 0 0 0 0 0 0 0 0 0 0 0 0 0 0 0 0 0 0 0 0 0 0 0 0 0 0 0 0 0
0 0 0 0 0 0 0 0 0 0 0 0 0 0 0 0 0 0 0 0 0 0 0 0 0 0 0 0 0 0 0 0 0 0 0 0 0 0 0 0 0 0 0 0 0
0 0 0 0 0 0 0 0 0 0 0 0 0 0 0 0 0 0 0 0 0 0 0 0 0 0 0 0 0 0 0 0 0 0 0 0 0 0 0 0 0 0 0 0 0
0 0 0 0 0 0 0 0 0 0 0 0 0 0 0 0 0 0 0 0 0 0 0 0 0 0 0 0 0 0 0 0 0 0 0 0 0 0 0 0 0 0 0 0 0
0 0 0 0 0 0 0 0 0 0 0 0 0 0 0 0 0 0 0 0 0 0 0 0 0 0 0 0 0 0 0 0 0 0 0 0 0 0 0 0 0 0 0 0 0
0 0 0 0 0 0 0 0 0 0 0 0 0 0 0 0 0 0 0 0 0 0 0 0 0 0 0 0 0 0 0 0 0 0 0 0 0 0 0 0 0 0 0 0 0
6 2 0 1 0 0 0 0 10 7 0 0 0 0 0 0 0 0 0 0 0 0 0 0 0 0 0 0 0 0 0 0 0 0 0 0 0 0 0 0 0 0 0 0 0
17 20 18 2 0 0 0 2 15 0 2 0 0 0 0 0 0 0 0 0 0 0 0 0 0 0 0 0 0 0 0 0 0 0 0 0 0 0 0 0 0 0 0 0 0
10 7 20 11 7 2 0 0 0 1 1 8 0 0 0 0 0 0 0 0 0 0 0 0 0 0 0 0 0 0 0 0 0 0 0 0 0 0 0 0 0 0 0 0 0

GFSSW_con_sbcape_030.txt.gz
CAPE
7 6 4 4 3 3 4 2 3 2 2 0 0 1 1 3 1 0 0 0 0 82 1580 968 613 239 619 533 130 1 0 0 1 32 89 274 247 183 123 88 91 90 80 70 186
5 5 5 4 4 3 3 4 2 2 1 1 1 1 2 3 0 0 0 0 0 1571 999 561 352 385 608 675 288 0 0 0 0 0 50 324 311 215 152 75 245 120 100 177 269
5 4 4 4 4 3 2 1 1 1 1 1 1 1 1 3 0 0 0 0 456 1554 440 279 309 503 491 205 294 12 172 0 0 109 84 371 358 336 179 89 247 124 152 278 242
3 2 3 3 3 3 2 1 1 0 1 2 2 1 0 0 0 0 120 0 623 323 98 135 251 527 263 180 197 85 0 22 53 9 299 437 393 390 105 130 198 158 176 346 199
3 3 3 2 2 3 2 2 2 1 1 2 3 2 0 0 0 0 89 0 341 0 0 0 148 129 0 0 12 91 21 29 25 12 10 331 429 453 372 257 194 173 319 334 238
9 10 8 7 6 4 6 8 8 2 1 2 4 2 0 0 0 0 0 0 23 0 0 0 0 0 0 0 0 0 4 1 0 0 0 66 438 423 539 352 155 240 298 264 261
11 13 11 9 7 7 4 6 3 3 2 3 5 0 0 0 0 0 0 0 0 0 0 0 0 0 0 0 0 0 0 0 0 0 0 26 341 432 437 397 250 203 230 236 224
9 8 8 8 7 4 2 3 2 1 0 2 4 0 0 0 0 0 0 0 0 0 0 0 0 0 0 0 0 0 0 0 0 0 0 132 104 383 400 463 424 286 230 207 198
12 9 7 6 3 1 0 0 0 1 1 3 0 0 0 0 0 0 0 0 0 0 0 0 0 0 0 0 0 0 0 0 0 0 0 14 0 83 331 498 521 437 323 278 236
8 6 6 7 3 0 0 0 0 1 0 0 0 0 0 0 0 0 0 0 0 0 0 0 0 0 0 0 0 0 0 0 0 0 0 0 0 20 293 479 577 516 452 424 367
6 4 2 4 0 0 0 0 0 0 0 0 0 0 0 0 0 0 0 0 0 0 0 0 0 0 0 0 0 0 0 0 0 0 0 0 0 170 225 360 541 549 576 537 514
3 2 2 1 0 0 0 0 0 0 0 0 0 0 0 0 0 0 0 0 0 0 0 0 0 0 0 0 0 0 0 0 0 0 0 0 0 76 274 348 423 577 579 606 584
3 2 2 2 0 0 0 0 0 0 0 0 0 0 0 0 0 0 0 0 0 0 0 0 0 0 0 0 0 0 0 0 0 0 0 0 0 0 192 227 324 522 532 560 588
2 2 1 3 0 0 0 0 0 0 0 0 0 0 0 0 0 0 0 0 0 0 0 0 0 0 0 0 0 0 0 0 0 0 0 0 0 0 10 199 205 159 366 535 562
1 0 0 0 0 0 0 0 0 0 0 0 0 0 0 0 0 0 0 0 0 0 0 0 0 0 0 0 0 0 0 0 0 0 0 0 0 0 0 97 212 221 163 202 239
3 0 1 0 0 0 0 0 0 0 0 0 0 0 0 0 0 0 0 0 0 0 0 0 0 0 0 0 0 0 0 0 0 0 0 0 0 0 0 0 135 241 254 249 190
0 0 0 0 0 0 0 0 0 0 0 0 0 0 0 0 0 0 0 0 0 0 0 0 0 0 0 0 0 0 0 0 0 0 0 0 0 0 0 0 11 50 88 156 210
0 0 0 0 0 0 0 0 0 0 0 0 0 0 0 0 0 0 0 0 0 0 0 0 0 0 0 0 0 0 0 0 0 0 0 0 0 0 0 0 0 0 7 1 12
0 0 0 0 0 0 0 0 0 0 0 0 0 0 0 0 0 0 0 0 0 0 0 0 0 0 0 0 0 0 0 0 0 0 0 0 0 0 0 0 0 0 0 0 0
0 0 0 0 0 0 0 0 0 0 0 0 0 0 0 0 0 0 0 0 0 0 0 0 0 0 0 0 0 0 0 0 0 0 0 0 0 0 0 0 0 0 0 0 0
0 0 0 0 0 0 0 0 0 0 0 0 0 0 0 0 0 0 0 0 0 0 0 0 0 0 0 0 0 0 0 0 0 0 0 0 0 0 0 0 0 0 0 0 0
0 0 0 0 0 0 0 0 0 0 0 0 0 0 0 0 0 0 0 0 0 0 0 0 0 0 0 0 0 0 0 0 0 0 0 0 0 0 0 0 0 0 0 0 0
0 0 0 0 0 0 0 0 0 0 0 0 0 0 0 0 0 0 0 0 0 0 0 0 0 0 0 0 0 0 0 0 0 0 0 0 0 0 0 0 0 0 0 0 0
0 0 0 0 0 0 0 0 1 8 0 0 0 0 0 0 0 0 0 0 0 0 0 0 0 0 0 0 0 0 0 0 0 0 0 0 0 0 0 0 0 0 0 0 0
0 0 0 0 0 4 0 0 12 0 0 0 2 0 0 0 0 0 0 0 0 0 0 0 0 0 0 0 0 0 0 0 0 0 0 0 0 0 0 0 0 0 0 0 0
0 18 13 2 2 8 0 0 0 0 2 0 30 2 0 0 0 0 0 0 0 0 0 0 0 0 0 0 0 0 0 0 0 0 0 0 0 0 0 0 0 0 0 0 0
12 11 7 5 1 7 1 0 0 0 0 22 9 3 0 0 0 0 0 0 0 0 0 0 0 0 0 0 0 0 0 0 0 0 0 0 0 0 0 0 0 0 0 0 0

GFSSW_con_sbcape_033.txt.gz
CAPE
3 2 2 2 2 2 2 1 1 0 1 1 1 2 2 3 1 0 0 0 0 26 365 181 256 406 894 752 421 7 16 89 19 103 113 593 470 256 193 100 52 115 86 78 220
4 3 3 3 2 1 1 2 2 1 1 0 1 2 3 3 0 0 0 0 0 938 88 58 50 321 484 658 707 13 166 136 13 73 20 551 533 368 294 111 109 180 116 114 256
4 3 3 3 2 2 2 3 2 1 1 2 2 3 2 2 0 0 0 0 14 759 0 21 93 221 283 645 807 486 360 235 0 46 169 555 575 487 386 191 190 316 247 242 278
5 5 5 4 3 2 2 1 1 2 3 2 3 4 1 0 0 0 186 0 481 3 30 53 79 35 108 402 824 296 353 293 136 94 410 607 647 529 470 112 96 314 255 323 306
5 5 5 3 3 2 2 4 7 4 3 3 3 3 0 0 0 0 5 0 216 0 0 14 50 61 64 211 369 684 242 36 113 27 7 505 636 669 649 262 360 495 364 353 297
6 8 9 9 8 5 6 8 7 2 2 3 4 0 0 0 0 0 0 0 0 0 0 0 30 87 20 10 39 1 37 0 0 0 0 37 126 592 689 484 668 514 388 331 292
10 11 10 10 7 4 6 6 3 0 1 3 3 0 0 0 0 0 0 0 0 0 0 0 0 0 0 0 0 0 0 0 0 0 0 0 15 438 597 646 651 500 389 355 317
4 5 6 6 5 2 3 2 0 0 1 0 3 0 0 0 0 0 0 0 0 0 0 0 0 0 0 0 0 0 0 0 0 0 0 0 0 53 625 686 669 487 435 498 477
5 5 8 9 2 0 0 0 1 2 4 3 0 0 0 0 0 0 0 0 0 0 0 0 0 0 0 0 0 0 0 0 0 0 0 1 0 14 610 749 750 586 525 515 540
6 5 6 4 0 0 0 0 0 0 2 1 0 0 0 0 0 0 0 0 0 0 0 0 0 0 0 0 0 0 0 0 0 0 0 5 2 36 575 755 818 653 533 568 535
9 6 7 1 0 0 0 0 0 0 0 0 0 0 0 0 0 0 0 0 0 0 0 0 0 0 0 0 0 0 0 0 0 0 0 0 0 26 514 717 826 808 654 617 584
6 6 5 1 0 0 0 0 0 0 0 0 0 0 0 0 0 0 0 0 0 0 0 0 0 0 0 0 0 0 0 0 0 0 0 0 0 2 408 713 793 872 852 786 706
7 6 2 2 0 0 0 0 0 0 0 0 0 0 0 0 0 0 0 0 0 0 0 0 0 0 0 0 0 0 0 0 0 0 0 0 0 0 143 465 658 901 840 835 833
7 5 0 4 0 0 0 0 0 0 0 0 0 0 0 0 0 0 0 0 0 0 0 0 0 0 0 0 0 0 0 0 0 0 0 0 0 0 6 391 553 659 850 866 925
4 3 0 0 0 0 0 0 0 0 0 0 0 0 0 0 0 0 0 0 0 0 0 0 0 0 0 0 0 0 0 0 0 0 0 0 0 0 0 107 427 588 734 805 861
2 0 0 0 0 0 0 0 0 0 0 0 0 0 0 0 0 0 0 0 0 0 0 0 0 0 0 0 0 0 0 0 0 0 0 0 0 0 0 0 91 400 562 706 854
0 0 0 0 0 0 0 0 0 0 0 0 0 0 0 0 0 0 0 0 0 0 0 0 0 0 0 0 0 0 0 0 0 0 0 0 0 0 0 0 0 105 477 560 636
0 0 0 0 0 0 0 0 0 0 0 0 0 0 0 0 0 0 0 0 0 0 0 0 0 0 0 0 0 0 0 0 0 0 0 0 0 0 0 0 0 0 83 466 634
0 0 0 0 0 0 0 0 0 0 0 0 0 0 0 0 0 0 0 0 0 0 0 0 0 0 0 0 0 0 0 0 0 0 0 0 0 0 0 0 0 0 0 100 411
0 0 0 0 0 0 0 0 0 0 0 0 0 0 0 0 0 0 0 0 0 0 0 0 0 0 0 0 0 0 0 0 0 0 0 0 0 0 0 0 0 0 0 0 50
0 0 0 0 0 0 0 0 0 0 0 0 0 0 0 0 0 0 0 0 0 0 0 0 0 0 0 0 0 0 0 0 0 0 0 0 0 0 0 0 0 0 0 0 0
0 0 0 0 0 0 0 0 0 0 0 0 0 0 0 0 0 0 0 0 0 0 0 0 0 0 0 0 0 0 0 0 0 0 0 0 0 0 0 0 0 0 0 0 1
2 0 0 0 0 4 1 0 0 15 15 0 0 0 0 0 0 0 0 0 0 0 0 0 0 0 0 0 0 0 0 0 0 0 0 0 0 0 0 0 0 0 0 0 0
0 0 0 0 0 2 1 0 1 7 21 14 15 0 0 0 0 0 0 0 0 0 0 0 0 0 0 0 0 0 0 0 0 0 0 0 0 0 0 0 0 0 0 0 0
1 4 4 1 1 2 12 4 8 15 0 10 9 21 6 0 0 0 0 0 0 0 0 0 0 0 0 0 0 0 0 0 0 0 0 0 0 0 0 0 0 0 0 0 0
16 32 21 1 9 17 1 3 5 10 7 0 47 55 12 13 3 0 0 0 0 0 0 0 0 0 0 0 0 0 0 0 0 0 0 0 0 0 0 0 0 0 0 0 0
45 50 21 5 8 31 24 15 11 24 1 32 8 15 0 10 0 0 0 0 0 0 0 0 0 0 0 0 0 0 0 0 0 0 0 0 0 0 0 0 0 0 0 0 0

GFSSW_con_sbcape_036.txt.gz
CAPE
6 4 4 4 3 2 2 2 2 2 1 1 1 2 1 3 0 0 0 0 0 13 300 0 203 476 704 844 879 461 285 261 195 291 281 770 732 502 282 244 182 253 377 433 422
5 4 5 4 3 3 3 3 2 2 2 2 2 1 1 0 0 0 0 0 0 405 0 0 136 345 502 462 762 596 324 198 129 51 99 568 650 609 337 242 227 456 405 439 443
3 3 2 2 1 2 3 1 1 2 2 3 3 1 0 0 0 0 0 0 0 490 0 0 0 107 29 217 647 422 297 214 24 59 402 572 749 694 489 226 352 562 575 614 558
3 2 2 2 1 1 1 1 2 2 4 3 4 1 0 0 0 0 23 0 0 0 0 0 0 5 1 127 397 508 309 343 101 71 194 710 806 789 615 211 328 692 587 782 755
2 3 5 4 1 1 5 7 7 2 2 3 5 1 0 0 0 0 0 0 0 0 0 0 0 0 0 36 213 393 230 40 88 95 38 70 427 386 725 369 389 673 619 775 821
3 7 11 8 4 4 7 7 4 1 3 4 4 1 0 0 0 0 0 0 0 0 0 0 0 0 0 2 85 46 117 13 0 0 0 0 71 205 419 627 657 701 729 766 734
5 8 9 7 4 6 7 4 0 0 2 5 4 0 0 0 0 0 0 0 0 0 0 0 0 0 0 0 0 0 0 0 0 0 0 0 0 18 179 791 909 868 855 755 719
5 6 6 6 4 3 3 1 0 0 2 1 5 0 0 0 0 0 0 0 0 0 0 0 0 0 0 0 0 0 0 0 0 0 0 0 14 30 172 768 1085 1031 960 788 678
7 8 4 4 3 1 0 0 0 2 1 6 0 0 0 0 0 0 0 0 0 0 0 0 0 0 0 0 0 0 0 0 0 0 0 0 22 46 151 712 986 1140 980 779 739
7 5 2 3 1 0 0 0 0 1 0 0 0 0 0 0 0 0 0 0 0 0 0 0 0 0 0 0 0 0 0 0 0 0 0 0 6 7 176 588 852 1099 1032 915 803
6 2 1 0 0 0 0 0 0 0 0 0 0 0 0 0 0 0 0 0 0 0 0 0 0 0 0 0 0 0 0 0 0 0 0 0 0 3 173 534 719 1055 1166 1117 1051
5 1 0 0 0 0 0 0 0 0 0 0 0 0 0 0 0 0 0 0 0 0 0 0 0 0 0 0 0 0 0 0 0 0 0 0 6 12 104 536 779 971 1036 1169 1148
3 0 0 0 0 0 0 0 0 0 0 0 0 0 0 0 0 0 0 0 0 0 0 0 0 0 0 0 0 0 0 0 0 0 0 0 0 4 6 180 451 799 933 997 1170
2 1 0 0 0 0 0 0 0 0 0 0 0 0 0 0 0 0 0 0 0 0 0 0 0 0 0 0 0 0 0 0 0 0 0 0 1 29 9 44 97 302 901 963 1149
1 1 0 0 0 0 0 0 0 0 0 0 0 0 0 0 0 0 0 0 0 0 0 0 0 0 0 0 0 0 0 0 0 0 0 0 0 0 0 0 21 108 481 950 1171
0 0 0 0 0 0 0 0 0 0 0 0 0 0 0 0 0 0 0 0 0 0 0 0 0 0 0 0 0 0 0 0 0 0 0 0 0 0 0 0 8 63 290 715 996
0 0 0 0 0 0 0 0 0 0 0 0 0 0 0 0 0 0 0 0 0 0 0 0 0 0 0 0 0 0 0 0 0 0 0 0 0 0 0 0 0 0 47 585 1081
0 0 0 0 0 0 0 0 0 0 0 0 0 0 0 0 0 0 0 0 0 0 0 0 0 0 0 0 0 0 0 0 0 0 0 0 0 0 0 0 0 0 0 158 836
0 0 0 0 0 0 0 0 1 3 10 0 0 0 0 0 0 0 0 0 0 0 0 0 0 0 0 0 0 0 0 0 0 0 0 0 0 0 0 0 0 0 0 0 576
0 0 0 0 0 0 0 0 1 3 7 0 0 0 0 0 0 0 0 0 0 0 0 0 0 0 0 0 0 0 0 0 0 0 0 0 0 0 0 0 0 0 0 0 68
0 0 0 0 0 0 0 0 0 2 16 0 5 12 2 1 0 0 0 0 0 0 0 0 0 0 0 0 0 0 0 0 0 0 0 0 0 0 0 0 0 0 0 0 28
0 0 0 0 4 0 7 0 0 35 55 64 19 6 22 13 1 0 1 0 0 0 0 0 0 0 0 0 0 0 0 0 0 0 0 0 0 0 0 0 0 0 0 0 0
0 0 0 0 1 5 1 2 3 46 53 49 64 53 9 23 9 7 12 0 0 0 0 0 0 0 0 0 0 0 0 0 0 0 0 0 0 0 0 0 0 0 0 0 0
1 3 2 4 8 24 20 30 56 35 38 29 30 57 60 15 9 8 10 0 0 0 0 0 0 0 0 0 0 0 0 0 0 0 0 0 0 0 0 0 0 0 0 0 0
22 13 17 20 47 43 22 40 56 32 36 46 46 25 39 20 26 9 10 0 0 0 0 0 0 0 0 0 0 0 0 0 0 0 0 0 0 0 0 0 0 0 0 0 0
18 22 26 26 17 24 29 37 47 27 23 57 77 13 6 44 35 6 13 10 5 0 0 0 0 0 0 0 0 0 0 0 0 0 0 0 0 0 0 0 0 0 0 0 0
27 42 61 15 21 43 36 25 24 28 49 64 45 46 10 10 12 14 6 2 0 0 0 0 0 0 0 0 0 0 0 0 0 0 0 0 0 0 0 0 0 0 0 0 0

GFSSW_con_sbcape_039.txt.gz
CAPE
5 4 2 3 2 2 2 2 2 2 2 2 2 1 0 0 0 0 0 0 0 0 0 0 19 315 464 568 806 1055 689 220 58 8 171 142 85 118 243 349 447 510 714 707 558
3 2 1 1 0 0 1 0 1 1 2 2 3 2 0 0 0 0 0 0 0 0 0 0 0 110 336 294 516 600 418 49 22 34 41 250 58 57 163 275 333 691 758 669 617
2 0 0 0 0 0 0 1 1 1 2 2 2 1 0 0 0 0 0 0 0 87 0 0 0 39 102 62 159 290 175 164 38 94 98 121 140 57 76 236 376 765 799 670 872
2 1 0 0 0 0 1 1 2 2 2 1 1 1 0 0 0 0 0 0 0 0 0 0 0 10 34 27 53 154 211 248 95 70 308 181 151 173 97 69 429 629 789 718 825
1 3 4 3 2 3 4 5 2 0 1 2 3 0 0 0 0 0 0 0 0 0 0 0 0 0 0 3 51 100 202 307 255 158 115 303 340 430 338 84 303 643 773 809 858
5 6 4 4 5 5 3 5 3 0 0 1 5 0 0 0 0 0 0 0 0 0 0 0 0 0 0 5 30 78 153 294 103 120 53 69 132 187 631 338 646 677 863 867 932
4 5 5 4 3 3 2 2 0 0 0 3 6 0 0 0 0 0 0 0 0 0 0 0 0 0 0 0 8 73 47 204 195 49 2 20 65 168 528 630 774 809 864 951 979
3 3 3 1 1 0 0 0 0 0 0 2 4 0 0 0 0 0 0 0 0 0 0 0 0 0 0 1 0 7 19 33 3 11 1 0 58 37 195 902 937 882 878 837 879
3 4 2 1 0 0 0 0 0 0 0 2 0 0 0 0 0 0 0 0 0 0 0 0 0 0 0 1 0 0 1 24 21 5 19 0 21 15 85 639 1054 1084 1018 830 787
1 1 1 0 0 0 0 0 0 0 0 0 0 0 0 0 0 0 0 0 0 0 0 0 0 0 0 0 0 0 0 11 13 18 12 18 6 34 100 403 731 1169 1154 1029 794
1 1 0 0 0 0 0 0 0 0 0 0 0 0 0 0 0 0 0 0 0 0 0 0 0 0 0 0 0 0 6 11 91 22 25 53 77 50 85 317 595 1064 1202 1162 1023
2 0 0 0 0 0 0 0 0 0 0 0 0 0 0 0 0 0 0 0 0 0 0 0 0 0 0 0 0 0 5 29 43 23 6 61 54 72 106 330 569 923 1068 1140 1089
1 1 0 0 0 0 0 0 0 0 0 0 0 0 0 0 0 0 0 0 0 0 0 0 0 0 0 0 0 0 0 0 17 33 3 11 33 81 83 161 583 787 886 1018 1161
0 0 0 0 0 0 0 0 0 0 0 0 0 0 0 0 0 0 0 0 0 0 0 0 0 0 0 0 0 0 0 0 0 10 35 0 31 39 41 104 261 717 845 893 1063
0 0 0 0 0 0 0 0 0 0 0 0 0 0 0 0 0 0 0 0 0 0 0 0 0 0 0 0 0 0 0 0 0 0 7 12 47 46 47 57 93 177 582 777 923
0 0 0 0 0 0 0 0 0 0 0 0 0 0 0 0 0 0 0 0 0 0 0 0 0 0 0 0 0 0 0 0 0 0 0 0 0 9 18 62 77 82 109 438 776
0 0 0 0 0 0 0 0 0 0 0 0 0 0 0 0 0 0 0 0 0 0 0 0 0 0 0 0 0 0 0 0 0 0 0 0 0 0 4 15 41 43 111 150 625
0 0 0 0 0 0 0 0 0 0 1 0 0 0 0 0 0 0 0 0 0 0 0 0 0 0 0 0 0 0 0 0 0 0 0 0 0 0 0 3 19 27 81 130 288
0 0 0 0 0 0 0 11 27 30 0 1 0 0 0 0 0 0 0 0 0 0 0 0 0 0 0 0 0 0 0 0 0 0 0 0 0 0 0 0 0 0 13 32 164
0 0 0 0 0 0 6 26 7 0 0 0 0 2 0 1 1 0 0 0 0 0 0 0 0 0 0 0 0 0 0 0 0 0 0 0 0 0 0 0 0 0 0 0 61
0 0 0 0 0 7 7 12 0 0 1 14 4 0 2 6 0 9 5 0 0 1 0 0 0 0 0 0 0 0 0 0 0 0 0 0 0 0 0 0 0 0 0 0 0
0 1 0 0 5 13 17 1 3 44 52 58 33 24 2 8 4 0 0 0 0 0 0 0 0 0 0 0 0 0 0 0 0 0 0 0 0 0 0 0 0 0 0 0 0
6 1 4 0 6 26 41 29 49 85 75 79 56 28 18 25 8 5 6 0 0 0 0 0 0 0 0 0 0 0 0 0 0 0 0 0 0 0 0 0 0 0 0 0 1
12 6 12 19 26 27 34 33 77 60 83 97 130 61 2 9 4 8 5 2 0 0 0 0 0 0 0 0 0 0 0 0 0 0 0 0 0 0 0 0 0 0 0 0 0
21 6 13 24 33 17 41 57 85 108 108 103 117 103 33 24 18 8 6 18 0 0 0 0 0 0 0 5 0 0 0 0 0 0 0 0 0 0 0 0 0 0 0 0 0
36 40 11 22 24 20 30 110 88 119 106 120 131 32 20 64 30 18 22 6 6 3 0 0 0 2 0 0 0 0 0 0 0 0 0 0 0 0 0 0 0 0 0 0 0
44 14 67 10 21 22 53 38 65 106 167 186 153 117 54 60 47 26 5 11 1 11 2 0 1 22 10 0 1 0 0 0 0 0 0 0 0 0 0 0 0 0 0 0 0

GFSSW_con_sbcape_042.txt.gz
CAPE
3 2 1 1 1 0 1 1 1 1 1 1 2 1 2 2 1 0 0 0 0 0 0 0 0 0 212 531 200 210 696 591 85 9 38 54 230 211 203 881 670 748 652 560 333
2 0 0 0 0 0 1 1 1 1 1 2 1 2 0 2 0 0 0 0 0 0 0 0 0 0 186 259 233 313 26 69 89 2 67 23 17 103 140 220 767 642 752 457 439
0 0 0 0 0 0 0 0 1 1 0 0 1 1 0 0 0 0 0 0 0 0 0 0 0 0 63 60 146 201 69 8 110 7 116 38 25 80 76 179 785 778 724 629 431
0 0 0 0 0 0 0 0 0 1 1 0 1 1 0 0 0 0 0 0 0 0 0 0 0 0 1 15 50 141 6 35 42 102 130 126 148 59 23 114 794 730 610 649 581
0 1 4 2 0 0 0 1 1 0 0 1 1 3 0 0 0 0 0 0 0 0 0 0 0 0 0 3 27 61 48 60 106 160 143 79 199 1 46 143 655 704 636 623 670
1 3 2 2 2 2 0 0 0 0 0 2 2 2 0 0 0 0 0 0 0 0 0 0 0 0 0 0 13 42 78 151 224 116 255 284 285 56 67 83 484 642 646 667 661
3 3 1 1 1 1 0 0 0 0 0 4 5 2 0 0 0 0 0 0 0 0 0 0 0 0 0 0 1 23 34 97 79 66 66 16 376 299 18 174 293 513 660 597 569
4 4 2 1 0 0 0 0 0 0 0 1 7 0 0 0 0 0 0 0 0 0 0 0 0 0 0 0 17 23 33 50 85 128 39 0 45 481 208 409 469 460 566 666 512
3 3 2 0 0 0 0 0 0 0 0 2 0 0 0 0 0 0 0 0 0 0 0 0 0 0 0 0 17 16 19 65 96 108 59 0 1 1 486 378 600 569 510 552 819
2 1 1 0 0 0 0 0 0 0 0 0 0 0 0 0 0 0 0 0 0 0 0 0 0 0 0 0 0 25 5 39 80 40 26 32 2 35 36 478 638 836 654 632 623
0 0 0 0 0 0 0 0 0 0 0 0 0 0 0 0 0 0 0 0 0 0 0 0 0 0 0 0 0 12 10 0 46 109 21 22 19 52 21 32 682 608 940 744 706
1 0 0 0 0 0 0 0 0 0 0 0 0 0 0 0 0 0 0 0 0 0 0 0 0 0 0 0 0 0 2 1 2 67 38 37 25 22 71 80 682 852 938 913 698
1 0 0 0 0 0 0 0 0 0 0 0 0 0 0 0 0 0 0 0 0 0 0 0 0 0 0 0 0 0 0 0 13 19 3 14 40 71 33 1 214 728 830 928 1007
0 0 0 0 0 0 0 0 0 0 0 0 0 0 0 0 0 0 0 0 0 0 0 0 0 0 0 0 0 0 0 0 10 62 58 51 56 104 46 90 247 461 545 993 1122
0 0 0 0 0 0 0 0 0 0 0 0 0 0 0 0 0 0 0 0 0 0 0 0 0 0 0 0 0 0 0 0 0 0 5 16 23 77 55 88 278 407 558 646 1117
0 0 0 0 0 0 0 0 0 0 0 0 0 0 0 0 0 0 0 0 0 0 0 0 0 0 0 0 0 0 0 0 0 0 1 0 16 46 35 32 59 205 705 703 974
0 0 0 0 0 0 0 0 0 0 0 0 0 0 0 0 0 0 0 0 0 0 0 0 0 0 0 0 0 0 0 0 0 0 0 0 0 0 22 65 39 235 206 806 933
0 0 0 0 0 0 0 0 0 0 0 0 0 0 0 0 0 0 0 0 0 0 0 0 0 0 0 0 0 0 0 0 0 0 0 0 0 0 0 3 25 111 102 233 615
0 0 0 0 0 0 0 0 0 0 0 0 0 0 0 0 0 0 0 0 0 0 0 0 0 0 0 0 0 0 0 0 0 0 0 0 0 0 0 0 4 33 129 155 413
0 0 0 0 0 0 0 0 2 0 0 0 0 0 0 0 0 0 0 0 1 0 0 0 0 0 0 0 0 0 0 0 0 0 0 0 0 0 0 0 0 11 37 153 294
0 0 0 0 0 0 14 5 0 0 0 0 0 1 0 10 8 6 0 0 0 5 0 0 0 0 0 0 0 0 0 0 0 0 0 0 5 23 22 0 2 2 0 38 365
0 7 3 0 0 1 8 1 0 12 5 9 28 19 25 21 22 31 14 3 0 0 0 0 0 0 0 0 0 0 0 0 0 0 0 0 1 0 1 0 0 0 0 4 194
0 2 13 0 8 9 11 11 9 35 32 33 67 38 19 1 24 47 29 1 0 0 0 0 0 0 0 1 0 0 0 0 0 0 0 0 0 0 3 7 0 0 5 80 302
15 17 1 0 3 9 28 17 25 23 25 33 78 88 68 26 7 9 7 2 0 0 0 0 0 0 0 0 0 0 0 0 0 0 0 0 0 0 0 0 4 13 72 142 650
19 15 21 27 3 9 44 35 58 109 64 29 78 44 93 48 38 1 7 0 0 8 0 0 0 0 0 0 7 0 0 0 0 0 0 0 0 0 1 0 0 26 135 324 703
38 41 23 16 39 29 36 38 137 124 130 95 115 51 72 64 14 2 10 0 12 0 0 0 0 0 0 0 0 0 0 0 0 0 0 0 6 0 0 0 1 74 46 129 231
55 19 21 12 20 29 25 26 70 147 167 142 68 126 97 63 46 15 7 0 0 3 0 0 0 0 0 0 0 2 0 1 0 0 0 0 15 18 3 6 0 0 0 0 0

GFSSW_con_sbcape_045.txt.gz
CAPE
1 0 0 0 0 0 0 0 0 0 2 1 1 1 3 7 3 0 0 0 0 0 0 0 0 0 9 311 475 472 250 159 218 8 22 15 390 530 493 439 372 285 260 140 0
0 0 0 0 0 0 0 0 1 1 0 2 1 1 1 7 0 0 0 0 0 0 0 0 0 0 0 159 324 162 167 209 119 60 5 0 65 610 609 602 485 367 299 20 16
0 0 0 0 0 0 0 0 1 1 0 1 2 1 1 0 0 0 0 0 0 0 0 0 0 0 0 9 50 114 197 78 44 35 59 6 19 31 584 702 536 465 290 167 357
0 0 0 0 0 0 0 0 0 0 0 1 3 2 2 0 0 0 0 0 0 0 0 0 0 0 0 7 33 65 210 18 40 9 58 55 5 10 641 774 585 507 325 209 342
0 2 4 3 1 1 2 2 1 0 0 0 4 2 0 0 0 0 0 25 0 0 0 0 0 0 0 0 7 13 42 50 35 0 83 41 19 31 724 838 606 439 375 288 251
6 5 4 2 1 1 1 1 1 0 0 1 1 2 0 0 0 0 0 0 0 0 0 0 0 0 0 0 0 1 51 54 5 20 66 5 60 2 718 598 605 526 358 383 271
5 6 3 2 0 0 0 0 0 0 0 0 2 1 0 0 0 0 0 0 0 0 0 0 0 0 0 0 0 0 23 81 96 92 188 32 79 18 584 615 543 561 423 329 280
3 2 1 0 0 0 0 0 0 0 0 1 1 4 0 0 0 0 0 0 0 0 0 0 0 0 0 0 0 0 0 0 61 2 98 85 72 113 268 557 534 520 550 477 339
0 0 0 0 0 0 0 0 0 0 0 0 0 0 0 0 0 0 0 0 0 0 0 0 0 0 0 0 0 0 0 1 39 0 48 142 141 140 76 381 522 500 476 426 377
2 0 0 0 0 0 0 0 0 0 0 0 0 0 0 0 0 0 0 0 0 0 0 0 0 0 0 0 0 0 0 3 6 21 58 38 6 88 94 109 347 454 371 272 464
3 2 0 0 0 0 0 0 0 0 0 0 0 0 0 0 0 0 0 0 0 0 0 0 0 0 0 0 0 0 0 0 0 30 13 17 0 168 73 199 372 539 412 370 235
0 0 0 0 0 0 0 0 0 0 0 0 0 0 0 0 0 0 0 0 0 0 0 0 0 0 0 0 0 0 0 0 0 0 1 0 0 21 122 269 291 389 267 388 369
0 0 0 0 0 0 0 0 0 0 0 0 0 0 0 0 0 0 0 0 0 0 0 0 0 0 0 0 0 0 0 0 0 0 0 1 2 21 221 225 83 250 377 356 388
0 0 0 1 0 0 0 0 0 0 0 0 0 0 0 0 0 0 0 0 0 0 0 0 0 0 0 0 0 0 0 0 0 0 21 0 0 0 12 224 210 531 619 279 358
0 0 0 0 0 0 0 0 0 0 0 0 0 0 0 0 0 0 0 0 0 0 0 0 0 0 0 0 0 0 0 0 0 0 0 0 0 0 2 0 310 616 320 116 420
0 0 0 0 0 0 0 0 0 0 0 0 0 0 0 0 0 0 0 0 0 0 0 0 0 0 0 0 0 0 0 0 0 0 0 0 0 0 0 1 538 512 374 391 632
0 0 0 0 0 0 0 0 0 0 0 0 0 0 0 0 0 0 0 0 0 0 0 0 0 0 0 0 0 0 0 0 0 0 0 0 0 0 0 0 37 201 410 286 483
0 0 0 0 0 0 0 0 0 0 0 0 0 0 0 0 0 0 0 0 0 0 0 0 0 0 0 0 0 0 0 0 0 0 0 0 0 0 0 0 4 174 346 472 419
0 0 0 0 0 0 0 0 0 0 0 0 0 0 0 0 0 0 0 0 0 0 0 0 0 0 0 0 0 0 0 0 0 0 0 0 0 0 0 0 0 0 379 241 291
0 0 0 0 0 0 0 0 0 0 0 0 0 0 0 0 0 0 0 0 0 0 0 0 0 0 0 0 0 0 0 0 0 0 0 0 0 0 0 0 0 0 6 227 446
0 0 0 0 0 0 0 0 0 0 0 0 0 0 0 0 0 0 0 0 0 0 0 0 0 0 0 1 0 0 0 0 0 0 0 0 0 0 0 0 0 0 0 14 391
0 0 0 0 0 0 0 0 0 0 0 0 0 0 0 0 0 0 0 2 1 0 0 0 0 0 0 0 0 0 0 0 0 0 0 0 0 0 0 0 0 0 0 0 190
0 0 0 0 0 0 0 0 0 0 0 0 0 2 0 13 19 28 13 12 11 2 0 1 0 0 0 0 0 0 0 0 0 0 0 0 0 0 0 0 0 0 0 0 53
0 0 0 0 0 0 0 0 0 6 32 0 0 1 41 6 13 13 0 10 2 0 5 37 0 0 0 0 0 0 0 0 0 0 0 0 0 0 0 0 0 0 0 0 273
1 0 0 0 0 0 5 3 0 14 36 29 26 40 60 0 20 32 8 1 0 0 0 0 0 0 0 0 0 0 0 0 0 0 0 0 0 0 4 31 4 2 13 43 93
5 22 3 12 1 0 5 2 9 0 35 67 89 55 9 35 29 0 8 0 2 0 0 0 0 0 0 0 0 0 0 0 0 0 0 0 0 0 0 25 0 0 0 33 176
30 12 9 16 4 7 5 6 13 18 33 104 165 29 23 44 7 3 0 1 0 0 0 0 0 0 0 0 0 0 0 0 0 0 0 0 0 0 0 10 0 0 0 0 0

GFSSW_con_sbcape_048.txt.gz
CAPE
1 0 0 1 1 0 0 1 1 1 3 2 1 2 4 6 5 0 0 0 0 0 86 0 0 0 17 122 358 1 21 26 105 24 7 14 332 320 319 260 237 178 0 0 0
0 0 1 1 0 0 0 1 2 2 1 0 2 3 5 4 0 0 0 0 0 0 0 0 0 0 0 69 280 427 84 23 60 17 2 47 281 360 348 352 171 106 27 0 0
0 0 0 0 0 0 0 1 1 1 1 1 2 4 4 0 0 0 0 0 0 0 0 0 0 0 0 0 160 398 144 104 31 41 40 1 481 518 471 343 205 127 0 0 0
0 0 1 0 0 0 0 0 0 0 0 0 2 2 2 0 0 0 0 0 0 0 0 0 0 0 0 0 0 52 113 94 17 10 54 6 13 630 627 399 301 88 0 0 0
1 3 3 2 0 0 0 0 0 0 0 0 3 1 0 0 0 0 0 0 0 0 0 0 0 0 0 0 0 37 75 138 91 15 20 2 41 373 688 435 293 33 0 1 71
4 3 2 1 0 0 0 0 0 0 0 1 4 0 0 0 0 0 0 0 0 0 0 0 0 0 0 0 0 5 31 41 134 9 34 42 13 174 630 458 248 123 160 220 194
2 0 0 0 0 0 0 0 0 0 0 0 7 1 0 0 0 0 0 0 0 0 0 0 0 0 0 0 0 0 0 2 6 18 47 56 0 880 669 538 347 212 229 267 186
0 1 0 0 0 0 0 0 0 0 0 0 6 2 0 0 0 0 0 0 0 0 0 0 0 0 0 0 0 0 0 0 36 32 125 3 2 778 567 450 400 250 221 245 210
1 1 1 0 0 0 0 0 0 0 0 0 0 1 0 0 0 0 0 0 0 0 0 0 0 0 0 0 0 0 0 0 6 67 131 6 4 767 574 435 375 270 263 287 183
1 0 0 0 0 0 0 0 0 0 0 0 0 0 0 0 0 0 0 0 0 0 0 0 0 0 0 0 0 0 0 0 0 14 79 39 7 558 574 492 455 357 282 300 195
1 0 0 0 0 0 0 0 0 0 0 0 0 0 0 0 0 0 0 0 0 0 0 0 0 0 0 0 0 0 0 0 0 0 64 10 59 48 556 413 521 458 397 304 260
0 0 0 0 0 0 0 0 0 0 0 0 0 0 0 0 0 0 0 0 0 0 0 0 0 0 0 0 0 0 0 0 0 0 8 38 63 74 451 411 445 466 492 427 393
0 0 0 0 0 0 0 0 0 0 0 0 0 0 0 0 0 0 0 0 0 0 0 0 0 0 0 0 0 0 0 0 0 0 0 15 8 62 93 428 464 435 451 441 322
0 0 0 0 0 0 0 0 0 0 0 0 0 0 0 0 0 0 0 0 0 0 0 0 0 0 0 0 0 0 0 0 0 0 0 0 0 2 74 175 365 379 330 277 257
0 0 0 0 0 0 0 0 0 0 0 0 0 0 0 0 0 0 0 0 0 0 0 0 0 0 0 0 0 0 0 0 0 0 0 0 1 1 44 205 139 86 48 39 287
0 0 0 0 0 0 0 0 0 0 0 0 0 0 0 0 0 0 0 0 0 0 0 0 0 0 0 0 0 0 0 0 0 0 0 0 0 0 25 209 122 26 40 58 274
0 0 0 0 0 0 0 0 0 0 0 0 0 0 0 0 0 0 0 0 0 0 0 0 0 0 0 0 0 0 0 0 0 0 0 0 0 0 19 204 72 66 141 187 331
0 0 0 0 0 0 0 0 0 0 0 0 0 0 0 0 0 0 0 0 0 0 0 0 0 0 0 0 0 0 0 0 0 0 0 0 0 0 0 0 186 139 297 508 138
0 0 0 0 0 0 0 0 0 0 0 0 0 0 0 0 0 0 0 0 0 0 0 0 0 0 0 0 0 0 0 0 0 0 0 0 0 0 0 0 71 339 542 546 256
0 0 0 0 0 0 0 0 0 0 0 0 0 0 0 0 0 0 0 0 0 0 0 0 0 0 0 0 0 0 0 0 0 0 0 0 0 0 0 0 0 245 569 679 357
0 0 0 0 0 0 0 0 0 0 0 0 0 0 0 0 0 0 0 0 0 0 0 0 0 0 0 0 0 0 0 0 0 0 0 0 0 0 0 0 0 5 401 466 427
0 0 0 0 0 0 0 0 0 0 0 0 0 0 0 0 0 0 0 0 0 12 0 0 6 0 0 0 0 0 0 0 0 0 0 0 0 0 0 0 0 0 183 363 448
0 0 0 0 0 0 0 0 0 0 0 0 0 0 0 0 0 0 0 0 1 0 7 16 6 2 0 0 0 0 0 0 0 0 0 0 0 0 0 0 0 0 0 184 507
0 0 0 0 0 0 0 0 0 0 0 0 0 0 0 0 0 0 0 0 0 0 25 40 21 5 0 0 0 0 0 0 0 0 0 0 0 0 0 0 0 0 0 0 381
0 0 0 0 0 0 0 0 0 0 0 0 0 0 0 0 0 0 0 0 0 18 9 9 9 0 0 0 0 0 0 0 0 0 0 0 0 0 0 0 0 0 0 1 388
0 0 0 0 0 0 0 0 2 0 4 0 7 12 1 0 0 0 0 0 0 0 6 5 4 0 0 0 0 0 0 0 0 0 0 0 0 0 0 0 0 5 0 2 338
0 0 0 0 1 8 0 2 4 13 14 42 23 9 0 0 0 0 0 0 7 8 1 5 0 0 0 0 0 0 0 0 0 0 0 0 0 0 2 10 19 0 0 0 36

GFSSW_con_sbcape_051.txt.gz
CAPE
2 1 1 1 1 1 1 1 1 0 0 1 1 3 4 3 3 0 0 0 0 0 0 0 0 0 0 196 460 0 0 0 0 5 29 88 236 405 160 99 141 47 20 0 0
1 0 1 1 1 0 0 1 0 0 0 0 1 4 1 3 0 0 0 0 0 0 0 0 0 0 0 81 242 205 19 2 11 36 0 196 223 364 200 222 31 18 2 0 0
0 0 0 0 0 0 0 0 0 0 0 0 1 2 0 1 0 0 0 0 0 0 0 0 0 0 0 2 191 281 79 129 42 67 15 51 84 429 297 151 73 0 0 4 0
0 0 0 0 0 0 0 0 0 0 0 0 1 1 0 0 0 0 0 0 0 0 0 0 0 0 0 0 0 135 212 226 17 62 26 25 122 519 367 367 62 0 0 0 0
0 0 1 0 0 0 0 0 0 0 0 1 0 1 0 0 0 0 0 0 0 0 0 0 0 0 0 0 0 35 63 131 252 84 5 0 0 522 413 278 4 0 0 0 0
2 2 1 1 1 0 0 0 0 0 0 1 0 0 0 0 0 0 0 0 0 0 0 0 0 0 0 0 0 1 0 4 25 39 12 2 190 542 453 162 0 0 0 0 0
2 3 2 1 0 0 0 0 0 0 0 0 2 0 0 0 0 0 0 0 0 0 0 0 0 0 0 0 0 0 0 0 0 0 24 58 5 232 397 151 2 0 0 0 8
4 3 2 0 0 0 0 0 0 0 0 0 9 0 0 0 0 0 0 0 0 0 0 0 0 0 0 0 0 0 0 0 0 10 31 18 2 666 318 148 65 3 0 0 0
4 5 3 0 0 0 0 0 0 0 0 0 0 0 0 0 0 0 0 0 0 0 0 0 0 0 0 0 0 0 0 0 0 4 101 27 1 648 310 158 108 100 98 65 9
0 0 1 0 0 0 0 0 0 0 0 0 0 0 0 0 0 0 0 0 0 0 0 0 0 0 0 0 0 0 0 0 0 10 50 21 0 616 419 250 160 156 206 240 117
0 0 0 0 0 0 0 0 0 0 0 0 0 0 0 0 0 0 0 0 0 0 0 0 0 0 0 0 0 0 0 0 0 0 62 56 15 688 409 331 284 184 150 197 196
0 0 0 0 0 0 0 0 0 0 0 0 0 0 0 0 0 0 0 0 0 0 0 0 0 0 0 0 0 0 0 0 0 0 11 68 42 510 473 333 315 247 194 224 179
0 0 0 0 0 0 0 0 0 0 0 0 0 0 0 0 0 0 0 0 0 0 0 0 0 0 0 0 0 0 0 0 0 0 1 9 50 9 568 461 413 286 218 220 237
0 0 0 0 0 0 0 0 0 0 0 0 0 0 0 0 0 0 0 0 0 0 0 0 0 0 0 0 0 0 0 0 0 0 0 0 0 17 279 460 403 374 296 230 251
0 0 0 0 0 0 0 0 0 0 0 0 0 0 0 0 0 0 0 0 0 0 0 0 0 0 0 0 0 0 0 0 0 0 0 0 0 0 93 424 389 337 349 350 280
0 0 0 0 0 0 0 0 0 0 0 0 0 0 0 0 0 0 0 0 0 0 0 0 0 0 0 0 0 0 0 0 0 0 0 0 0 0 5 62 368 402 365 386 347
0 0 0 0 0 0 0 0 0 0 0 0 0 0 0 0 0 0 0 0 0 0 0 0 0 0 0 0 0 0 0 0 0 0 0 0 0 0 0 0 17 238 378 346 282
0 0 0 0 0 0 0 0 0 0 0 0 0 0 0 0 0 0 0 0 0 0 0 0 0 0 0 0 0 0 0 0 0 0 0 0 0 0 0 0 19 85 256 215 103
0 0 0 0 0 0 0 0 0 0 0 0 0 0 0 0 0 0 0 0 0 0 0 0 0 0 0 0 0 0 0 0 0 0 0 0 0 0 0 0 0 31 104 60 98
0 0 0 0 0 0 0 0 0 0 0 0 0 0 0 0 0 0 0 0 0 0 0 0 0 0 0 0 0 0 0 0 0 0 0 0 0 0 0 0 0 75 102 92 77
0 0 0 0 0 0 0 0 0 0 0 0 0 0 0 0 0 0 0 0 0 0 0 0 0 0 0 0 0 0 0 0 0 0 0 0 0 0 0 0 0 0 100 137 142
0 0 0 0 0 0 0 0 0 0 0 0 0 0 0 0 0 0 0 0 0 0 0 5 4 6 0 0 0 0 0 0 0 0 0 0 0 0 0 0 0 0 84 184 232
0 0 0 0 0 0 0 0 0 0 0 0 0 0 0 0 0 0 0 2 0 0 0 9 11 2 0 0 0 0 0 0 0 0 0 0 0 0 0 0 0 0 0 78 332
0 0 0 0 0 0 0 0 0 0 0 0 0 0 0 0 0 0 0 26 0 0 35 5 12 0 0 0 0 0 0 0 0 0 0 0 0 0 0 0 0 0 0 0 199
0 0 0 0 0 0 0 0 0 3 0 0 0 8 1 0 0 0 0 0 1 1 0 0 8 2 0 0 0 0 0 0 0 0 0 0 0 0 0 0 0 0 0 0 0
0 0 0 0 0 0 0 0 0 4 4 0 5 9 0 0 0 0 0 0 1 0 0 1 0 0 0 0 0 0 0 0 0 0 0 0 0 0 0 0 11 0 0 0 0
0 0 0 2 1 9 6 11 8 19 3 18 6 1 0 0 0 0 0 0 0 0 0 3 1 0 0 0 0 0 0 0 0 0 0 0 0 0 36 12 1 1 1 0 0

GFSSW_con_sbcape_054.txt.gz
CAPE
0 0 0 1 1 2 1 0 0 0 0 0 1 3 2 2 1 0 0 0 0 0 0 207 5 0 0 113 405 0 0 0 19 19 77 77 106 452 94 0 2 0 1 5 4
1 0 1 1 1 0 0 1 0 0 0 1 2 2 3 0 0 0 0 0 0 0 0 5 0 0 0 138 441 119 0 0 5 33 52 331 509 192 97 20 0 0 0 7 14
0 0 0 0 0 0 0 0 0 1 0 0 4 2 3 0 0 0 0 0 0 0 0 0 0 0 0 33 236 282 141 60 26 69 17 150 151 253 145 80 0 0 2 5 57
0 0 0 0 0 0 0 0 1 0 1 1 3 1 0 0 0 0 0 0 0 0 0 0 0 0 0 0 64 191 223 234 39 63 2 43 199 345 224 197 3 0 0 0 29
0 0 0 0 0 0 0 1 1 0 1 0 0 0 0 0 0 0 0 0 0 0 0 0 0 0 0 0 0 146 88 83 269 226 29 9 306 531 295 43 0 0 11 0 0
0 2 2 1 4 3 1 3 1 0 0 0 0 0 0 0 0 0 0 0 0 0 0 0 0 0 0 0 0 0 15 0 0 0 48 0 7 387 120 0 5 0 5 8 0
2 2 1 0 3 1 0 1 0 0 0 0 0 0 0 0 0 0 0 0 0 0 0 0 0 0 0 0 0 0 0 0 0 0 10 0 11 329 31 0 0 0 0 4 0
2 3 2 2 2 1 0 0 0 0 0 0 0 0 0 0 0 0 0 0 0 0 0 0 0 0 0 0 0 0 0 0 0 0 26 56 17 393 21 0 0 0 0 0 0
1 2 0 0 0 0 0 0 0 0 0 1 0 0 0 0 0 0 0 0 0 0 0 0 0 0 0 0 0 0 0 0 0 0 69 49 20 363 51 0 0 0 0 0 0
0 0 0 0 0 0 0 0 0 0 0 0 0 0 0 0 0 0 0 0 0 0 0 0 0 0 0 0 0 0 0 0 0 0 21 41 55 348 103 5 0 0 0 0 0
1 0 0 0 0 0 0 0 0 0 0 0 0 0 0 0 0 0 0 0 0 0 0 0 0 0 0 0 0 0 0 0 0 0 33 40 70 493 177 64 9 0 0 0 0
0 0 0 0 0 0 0 0 0 0 0 0 0 0 0 0 0 0 0 0 0 0 0 0 0 0 0 0 0 0 0 0 0 0 17 21 28 520 285 160 115 90 60 32 15
0 0 0 0 0 0 0 0 0 0 0 0 0 0 0 0 0 0 0 0 0 0 0 0 0 0 0 0 0 0 0 0 0 0 0 15 5 224 394 273 125 92 81 81 104
0 0 0 0 0 0 0 0 0 0 0 0 0 0 0 0 0 0 0 0 0 0 0 0 0 0 0 0 0 0 0 0 0 0 0 0 0 0 348 319 225 171 126 69 86
0 0 0 0 0 0 0 0 0 0 0 0 0 0 0 0 0 0 0 0 0 0 0 0 0 0 0 0 0 0 0 0 0 0 0 0 0 0 83 321 304 229 153 122 81
0 0 0 0 0 0 0 0 0 0 0 0 0 0 0 0 0 0 0 0 0 0 0 0 0 0 0 0 0 0 0 0 0 0 0 0 0 0 0 162 367 339 276 213 132
0 0 0 0 0 0 0 0 0 0 0 0 0 0 0 0 0 0 0 0 0 0 0 0 0 0 0 0 0 0 0 0 0 0 0 0 0 0 0 9 186 335 370 337 251
0 0 0 0 0 0 0 0 0 0 0 0 0 0 0 0 0 0 0 0 0 0 0 0 0 0 0 0 0 0 0 0 0 0 0 0 0 0 0 0 102 157 301 288 311
0 0 0 0 0 0 0 0 0 0 0 0 0 0 0 0 0 0 0 0 0 0 0 0 0 0 0 0 0 0 0 0 0 0 0 0 0 0 0 0 0 27 68 188 281
0 0 0 0 0 0 0 0 0 0 0 0 0 0 0 0 0 0 0 0 0 0 0 0 0 0 0 0 0 0 0 0 0 0 0 0 0 0 0 0 0 0 0 61 240
0 0 0 0 0 0 0 0 0 0 0 0 0 0 0 0 0 0 0 0 0 0 0 0 0 0 0 0 0 0 0 0 0 0 0 0 0 0 0 0 0 1 29 84 181
0 0 0 0 0 0 0 0 0 0 0 0 0 0 0 0 0 0 0 0 0 0 0 0 2 0 0 0 0 0 0 0 0 0 0 0 0 0 0 0 0 0 10 137 155
0 0 0 0 0 0 0 0 0 0 0 0 0 0 0 0 0 0 0 0 0 0 0 3 20 0 0 0 0 0 0 0 0 0 0 0 0 0 0 0 0 0 0 4 87
0 0 0 0 0 0 0 0 0 0 0 0 0 0 0 0 0 0 0 1 0 0 14 18 0 0 0 0 0 0 0 0 0 0 0 0 0 0 0 0 0 0 0 0 68
0 0 0 0 0 0 0 0 0 1 0 0 0 0 0 0 0 0 0 0 0 15 0 0 0 0 0 0 0 0 0 0 0 0 0 0 0 0 0 0 0 0 0 0 0
0 0 0 0 0 0 0 0 4 3 1 0 1 13 12 20 2 0 0 0 0 0 0 0 0 4 2 0 0 0 0 0 0 0 0 0 0 0 0 0 0 0 0 0 0
0 0 0 1 4 7 11 16 13 16 10 11 30 24 1 0 0 0 0 0 0 0 0 0 1 22 0 0 0 0 0 0 0 0 0 0 0 0 0 0 0 0 0 0 0

GFSSW_con_sbcape_057.txt.gz
CAPE
1 1 1 1 1 2 0 0 0 0 1 1 1 4 1 2 0 0 0 0 0 0 0 293 53 7 27 82 483 0 31 43 22 39 176 117 235 379 109 15 5 0 2 2 39
0 0 0 0 1 1 2 2 1 0 0 1 2 3 2 0 0 0 0 0 0 0 0 1 0 2 7 86 461 153 190 90 3 44 162 271 474 370 196 66 12 0 0 9 64
0 0 0 0 1 1 2 2 1 0 0 1 3 1 1 1 0 0 0 0 0 0 0 0 0 0 0 106 313 212 426 110 50 39 436 541 571 384 322 247 82 28 7 28 82
0 0 0 0 0 0 2 2 1 0 1 1 2 1 0 0 0 0 0 0 0 0 0 0 0 0 0 0 142 310 359 395 246 123 47 141 291 537 388 372 162 35 6 21 73
0 0 1 0 0 0 1 1 1 0 0 0 1 0 0 0 0 0 0 0 0 0 0 0 0 0 0 0 0 188 267 207 271 229 174 79 250 620 509 372 77 29 0 3 24
0 2 3 2 2 0 0 0 0 0 0 0 0 0 0 0 0 0 0 0 0 0 0 0 0 0 0 0 0 12 40 175 124 144 89 147 59 494 317 168 74 26 5 21 20
0 0 1 2 2 0 0 0 0 0 0 0 0 0 0 0 0 0 0 0 0 0 0 0 0 0 0 0 0 0 0 0 0 4 122 48 114 225 230 140 74 45 23 22 44
1 1 0 1 0 0 0 0 0 0 0 0 0 0 0 0 0 0 0 0 0 0 0 0 0 0 0 0 0 0 0 0 16 0 0 72 202 354 201 148 82 78 52 20 23
2 1 0 0 0 0 0 0 0 0 0 1 0 0 0 0 0 0 0 0 0 0 0 0 0 0 0 0 0 0 0 0 11 0 75 164 238 543 203 194 108 98 87 30 19
2 1 0 0 0 0 0 0 0 0 0 0 0 0 0 0 0 0 0 0 0 0 0 0 0 0 0 0 0 0 0 0 14 41 21 153 218 636 192 203 145 122 91 73 41
1 0 0 0 0 0 0 0 0 0 0 0 0 0 0 0 0 0 0 0 0 0 0 0 0 0 0 0 0 0 0 0 0 6 54 107 91 649 424 190 167 116 93 80 26
1 0 0 0 0 0 0 0 0 0 0 0 0 0 0 0 0 0 0 0 0 0 0 0 0 0 0 0 0 0 0 0 0 0 9 56 88 330 590 406 218 118 93 96 22
3 1 0 0 0 0 0 0 0 0 0 0 0 0 0 0 0 0 0 0 0 0 0 0 0 0 0 0 0 0 0 0 0 0 0 3 27 87 614 557 393 90 41 28 19
4 1 0 0 0 0 0 0 0 0 0 0 0 0 0 0 0 0 0 0 0 0 0 0 0 0 0 0 0 0 0 0 0 0 0 0 22 17 285 700 524 437 206 30 0
2 1 0 0 0 0 0 0 0 0 0 0 0 0 0 0 0 0 0 0 0 0 0 0 0 0 0 0 0 0 0 0 0 0 0 0 0 0 104 628 747 618 491 380 215
1 0 1 0 0 0 0 0 0 0 0 0 0 0 0 0 0 0 0 0 0 0 0 0 0 0 0 0 0 0 0 0 0 0 0 0 0 0 0 268 692 746 688 552 447
0 0 0 0 0 0 0 0 0 0 0 0 0 0 0 0 0 0 0 0 0 0 0 0 0 0 0 0 0 0 0 0 0 0 0 0 0 0 0 6 226 624 754 740 634
0 0 0 0 0 0 0 0 0 0 0 0 0 0 0 0 0 0 0 0 0 0 0 0 0 0 0 0 0 0 0 0 0 0 0 0 0 0 0 0 2 181 509 696 758
0 0 0 0 0 0 0 0 0 0 0 0 0 0 0 0 0 0 0 0 0 0 0 0 0 0 0 0 0 0 0 0 0 0 0 0 0 0 0 0 0 1 246 629 778
0 0 0 0 0 0 0 0 0 0 0 0 0 0 0 0 0 0 0 0 0 0 0 0 0 0 0 0 0 0 0 0 0 0 0 0 0 0 0 0 0 0 102 415 728
0 0 0 0 0 0 0 0 0 0 0 0 0 0 0 0 0 0 0 0 0 0 0 0 0 0 0 0 0 0 0 0 0 0 0 0 0 0 0 0 0 0 2 71 427
0 0 0 0 0 0 0 0 0 0 0 0 0 0 0 0 0 0 0 0 0 0 0 0 0 0 0 0 0 0 0 0 1 0 0 0 0 0 0 0 0 0 14 38 198
0 0 0 0 0 0 0 0 0 0 0 0 0 0 0 0 0 0 0 2 0 0 0 24 11 0 0 0 0 0 0 0 0 0 0 0 0 0 0 0 0 0 0 46 279
0 0 0 0 0 1 0 0 0 0 1 0 0 0 0 0 0 0 1 15 18 0 7 55 2 0 0 0 0 0 0 0 0 0 0 2 0 0 0 0 0 0 0 0 21
0 0 0 0 3 0 0 0 0 6 9 0 1 1 1 8 4 5 0 0 3 27 72 29 1 0 0 0 0 0 0 0 0 0 0 0 0 0 0 0 0 0 0 0 0
0 1 0 0 0 0 1 1 12 18 14 8 10 13 43 38 32 15 0 0 22 70 76 51 7 0 0 0 0 0 0 0 0 0 0 0 0 0 0 0 0 0 8 24 79
0 0 1 2 2 6 19 15 19 22 6 12 21 28 4 13 35 42 25 3 4 8 99 32 11 4 0 0 3 0 0 0 0 0 0 0 0 0 0 0 0 0 0 0 0

GFSSW_con_sbcape_060.txt.gz
CAPE
0 0 0 0 1 1 2 1 0 0 1 1 2 4 0 1 0 0 0 0 0 0 0 29 54 18 22 121 558 295 372 375 166 235 720 489 731 728 634 517 353 291 364 333 167
0 0 0 0 0 1 2 2 1 0 1 2 3 4 1 2 0 0 0 0 0 0 0 5 6 4 8 73 512 376 521 455 99 348 343 468 907 874 719 547 365 272 209 172 179
0 0 0 0 0 2 1 1 1 0 0 1 2 1 1 0 0 0 0 0 0 0 0 0 0 0 0 9 278 343 503 280 244 468 646 428 883 863 818 713 556 480 290 191 225
0 0 0 0 0 2 1 0 0 1 1 1 1 0 0 0 0 0 0 0 0 0 0 0 0 0 0 0 17 114 223 583 459 248 636 772 865 859 760 801 654 477 286 226 313
0 1 3 1 0 1 1 0 0 0 0 1 1 0 0 0 0 0 0 0 0 0 0 0 0 0 0 0 0 0 196 450 505 341 325 295 530 875 836 831 558 389 264 254 287
1 2 2 2 4 0 0 0 0 0 0 0 0 0 0 0 0 0 0 0 0 0 0 0 0 0 0 0 0 0 0 64 366 509 342 431 353 660 839 728 573 374 295 261 233
1 2 1 1 1 0 0 0 0 0 0 0 0 0 0 0 0 0 0 0 0 0 0 0 0 0 0 0 0 0 0 0 6 398 448 372 395 403 815 685 601 417 312 232 232
1 2 2 3 0 0 0 0 0 0 0 0 0 0 0 0 0 0 0 0 0 0 0 0 0 0 0 0 0 0 0 0 11 271 334 275 407 454 768 745 671 485 331 232 212
1 1 1 2 0 0 0 0 0 0 0 0 0 0 0 0 0 0 0 0 0 0 0 0 0 0 0 0 0 0 0 0 360 284 380 315 454 804 689 775 796 569 393 274 258
2 1 1 0 0 0 0 0 0 0 0 0 0 0 0 0 0 0 0 0 0 0 0 0 0 0 0 0 0 0 0 0 121 296 382 444 510 811 745 776 836 678 441 338 335
2 0 1 0 0 0 0 0 0 0 0 0 0 0 0 0 0 0 0 0 0 0 0 0 0 0 0 0 0 0 0 0 0 215 350 449 429 927 706 770 792 783 619 422 345
3 0 0 1 0 0 0 0 0 0 0 0 0 0 0 0 0 0 0 0 0 0 0 0 0 0 0 0 0 0 0 0 0 21 262 399 342 340 933 699 825 824 754 514 420
3 1 0 0 0 0 0 0 0 0 0 0 0 0 0 0 0 0 0 0 0 0 0 0 0 0 0 0 0 0 0 0 0 0 6 263 371 304 533 811 721 717 757 590 460
6 3 1 1 0 0 0 0 0 0 0 0 0 0 0 0 0 0 0 0 0 0 0 0 0 0 0 0 0 0 0 0 0 0 0 63 276 259 279 876 849 764 742 697 555
2 2 1 0 0 0 0 0 0 0 0 0 0 0 0 0 0 0 0 0 0 0 0 0 0 0 0 0 0 0 0 0 0 0 0 1 106 136 231 468 968 891 722 631 590
1 0 0 0 0 0 0 0 0 0 0 0 0 0 0 0 0 0 0 0 0 0 0 0 0 0 0 0 0 0 0 0 0 0 0 0 7 40 97 212 452 866 818 765 578
0 0 0 0 0 0 0 0 0 0 0 0 0 0 0 0 0 0 0 0 0 0 0 0 0 0 0 0 0 0 0 0 0 0 0 0 0 0 40 151 176 436 800 897 920
0 0 0 0 0 0 0 0 0 0 0 0 0 0 0 0 0 0 0 0 0 0 0 0 0 0 0 0 0 0 0 0 0 0 0 0 0 0 0 3 55 178 628 969 1070
0 0 0 0 0 0 0 0 0 0 0 0 0 0 0 0 0 0 0 0 0 0 0 0 0 0 0 0 0 2 0 0 0 0 0 0 0 0 0 0 0 14 179 392 702
0 0 0 0 0 0 0 0 0 0 0 0 0 0 0 0 0 0 0 0 0 0 0 0 0 0 0 0 0 0 0 0 0 0 0 0 0 0 0 0 0 0 4 134 424
0 0 0 0 0 0 0 0 0 0 0 0 0 0 0 0 0 0 0 0 0 0 0 0 0 0 0 0 0 0 0 25 4 1 0 0 0 0 0 0 0 0 0 16 425
0 0 0 0 0 0 0 0 0 0 0 0 0 1 2 1 3 7 5 4 0 0 0 0 0 0 0 0 11 2 36 16 57 12 0 0 1 0 0 0 0 0 0 11 81
0 0 0 0 0 0 0 0 0 0 0 0 0 0 0 0 0 8 10 5 0 0 1 8 0 0 0 0 0 0 1 32 46 59 32 10 0 0 0 0 0 0 0 29 76
0 0 0 0 1 0 0 1 1 1 4 4 12 16 26 33 34 31 21 19 5 3 0 0 0 2 0 0 0 4 29 43 16 57 28 36 32 6 0 0 0 0 0 2 48
0 0 0 0 0 5 5 8 12 11 10 8 13 15 13 22 15 21 26 22 22 33 18 39 24 22 2 0 0 0 0 0 0 5 39 35 41 53 0 0 0 0 0 0 0
1 3 12 0 9 5 5 9 12 11 4 11 15 17 37 61 39 86 69 121 102 64 107 100 62 24 18 0 0 0 0 0 0 0 0 0 5 43 17 0 0 0 11 33 31
6 8 9 3 18 29 30 20 18 23 11 8 16 31 15 11 21 6 73 94 145 154 208 119 108 76 34 6 1 0 0 0 0 0 0 0 0 2 15 1 50 18 5 0 4

GFSSW_con_sbcape_063.txt.gz
CAPE
0 0 0 1 1 1 1 1 1 1 1 2 1 1 0 0 0 0 0 0 0 0 0 0 0 0 8 13 48 514 501 454 365 448 606 649 890 898 720 761 671 671 689 438 208
0 0 0 0 0 1 2 1 0 0 1 1 1 0 0 0 0 0 0 0 0 0 0 0 0 3 6 12 66 533 693 394 30 509 895 702 854 955 759 703 562 548 642 329 286
0 0 0 0 0 1 1 1 0 0 0 1 1 0 0 0 0 0 0 0 0 0 0 0 2 0 0 6 61 365 715 601 392 786 663 761 785 806 558 520 607 646 385 201 304
0 0 0 0 0 1 0 0 0 0 0 0 1 0 0 0 0 0 0 0 0 0 0 0 0 0 0 0 16 124 169 417 391 758 470 638 604 623 749 549 524 769 535 297 395
0 1 1 0 0 1 0 0 0 0 0 0 1 0 0 0 0 0 0 0 0 0 0 0 0 0 0 0 0 20 41 503 560 462 643 599 463 512 627 652 681 643 535 283 393
0 1 2 2 2 0 0 0 0 0 0 0 1 0 0 0 0 0 0 0 0 0 0 0 0 0 0 0 0 0 0 148 508 502 427 269 229 448 727 781 779 635 567 378 422
2 2 2 2 0 0 0 0 0 0 0 0 0 0 0 0 0 0 0 0 0 0 0 0 0 0 0 0 0 0 0 0 62 502 421 368 278 289 690 831 861 638 593 286 280
2 2 3 2 0 0 0 0 0 0 0 0 0 0 0 0 0 0 0 0 0 0 0 0 0 0 0 0 0 0 0 0 24 175 475 443 422 272 858 887 922 625 580 468 332
2 2 4 2 1 0 0 0 0 0 0 0 0 0 0 0 0 0 0 0 0 0 0 0 0 0 0 0 0 0 0 0 0 5 157 471 295 25 725 879 973 686 624 472 353
1 1 2 1 0 0 0 0 0 0 0 0 0 0 0 0 0 0 0 0 0 0 0 0 0 0 0 0 0 0 0 0 0 213 245 440 341 338 935 762 1007 793 614 565 485
3 1 2 1 0 0 0 0 0 0 0 0 0 0 0 0 0 0 0 0 0 0 0 0 0 0 0 0 0 0 0 0 0 283 227 252 305 339 772 730 999 922 576 582 571
3 1 1 1 0 0 0 0 0 0 0 0 0 0 0 0 0 0 0 0 0 0 0 0 0 0 0 0 0 0 0 0 0 43 238 222 292 410 648 706 948 975 750 580 636
3 1 0 0 0 0 0 0 0 0 0 0 0 0 0 0 0 0 0 0 0 0 0 0 0 0 0 0 0 0 0 0 0 0 142 226 282 297 363 628 808 926 975 514 650
3 2 0 1 0 0 0 0 0 0 0 0 0 0 0 0 0 0 0 0 0 0 0 0 0 0 0 0 0 0 0 0 0 0 10 79 250 161 58 687 726 918 1003 915 486
1 1 0 1 0 0 0 0 0 0 0 0 0 0 0 0 0 0 0 0 0 0 0 0 0 0 0 0 0 0 0 0 0 0 0 2 30 381 386 690 663 830 956 950 808
0 0 0 0 0 0 0 0 0 0 0 0 0 0 0 0 0 0 0 0 0 0 0 0 0 0 0 0 0 0 0 0 0 0 0 0 15 93 51 164 636 792 852 916 917
0 0 0 0 0 0 0 0 0 0 0 0 0 0 0 0 0 0 0 0 0 0 0 0 0 0 0 0 0 0 0 0 0 0 0 0 0 8 142 184 159 666 797 853 869
0 0 0 0 0 0 0 0 0 0 0 0 0 0 0 0 0 0 0 0 0 0 0 0 0 0 0 0 0 0 0 0 0 0 0 0 0 0 1 89 99 17 539 796 819
0 0 0 0 0 0 0 0 5 0 0 0 0 0 0 0 0 0 0 0 0 0 0 0 0 0 0 0 0 0 0 0 0 5 0 0 0 0 0 0 64 2 310 423 824
0 0 0 0 0 0 0 0 0 0 0 0 0 0 0 0 0 0 0 0 0 0 0 0 0 0 0 0 0 5 2 0 0 4 0 0 0 0 0 0 0 14 94 259 625
0 0 0 0 0 0 4 0 0 0 0 0 0 0 1 0 0 0 0 0 0 0 0 0 0 0 0 0 0 0 0 9 31 4 3 0 0 0 0 0 0 0 0 198 791
0 0 0 0 1 0 0 0 0 0 0 0 0 0 1 5 15 12 15 9 0 0 0 0 0 0 0 0 0 0 2 0 65 42 13 0 10 0 1 0 0 2 8 27 129
0 0 0 0 4 0 0 0 0 0 2 3 3 2 4 4 8 30 23 18 1 12 0 4 1 0 0 0 0 0 0 33 25 22 79 14 2 8 1 0 0 0 0 30 106
0 3 0 0 0 0 0 1 7 0 0 2 4 5 8 8 10 11 23 9 6 4 15 1 7 34 11 2 0 7 0 15 72 77 36 26 51 22 11 6 1 0 0 4 205
0 0 0 0 0 4 4 11 12 2 7 4 11 7 13 17 28 33 40 56 48 27 9 25 46 32 8 0 0 0 0 31 61 90 100 38 46 62 37 22 41 8 18 40 67
0 0 0 4 2 9 4 11 0 2 7 5 8 16 14 31 36 57 16 34 68 132 94 73 76 75 57 14 7 0 0 0 0 5 3 5 6 18 17 27 53 8 34 160 124
0 0 4 0 4 5 6 15 15 15 12 14 19 21 18 35 40 41 46 61 74 47 134 240 203 89 87 57 46 14 0 0 0 0 0 0 0 4 2 13 183 149 235 62 57

GFSSW_con_sbcape_066.txt.gz
CAPE
0 0 0 0 1 1 1 2 2 1 1 1 1 1 0 0 0 0 0 0 0 0 0 0 0 0 1 5 11 245 674 680 268 101 290 176 680 575 558 572 575 666 414 189 149
0 0 0 0 0 1 1 1 0 1 0 0 0 1 0 0 0 0 0 0 0 0 0 0 0 0 0 5 42 46 694 567 345 285 6 267 598 535 518 459 587 754 405 170 103
0 0 0 0 0 1 1 1 0 0 0 0 0 1 0 0 0 0 0 0 0 0 0 0 0 0 0 2 9 14 83 569 189 270 132 122 561 410 442 385 501 541 294 149 110
0 0 1 0 0 1 1 0 0 0 0 0 0 0 0 0 0 0 0 0 0 0 0 0 0 0 0 2 8 5 26 64 28 524 524 315 276 332 105 114 551 527 224 196 150
0 1 2 2 1 0 0 0 0 0 0 0 0 0 0 0 0 0 0 0 0 0 0 0 0 0 0 0 3 6 19 19 292 594 270 0 212 9 0 0 452 474 197 192 165
2 4 4 4 2 1 1 0 0 0 0 0 0 0 0 0 0 0 0 0 0 0 0 0 0 0 0 0 0 5 0 16 270 476 674 129 150 111 175 271 593 361 190 150 203
2 4 4 4 0 0 0 0 0 0 0 0 0 0 0 0 0 0 0 0 0 0 0 0 0 0 0 0 0 0 0 0 6 520 464 264 178 241 455 345 417 471 277 228 243
3 4 3 3 1 0 0 0 0 0 0 0 0 0 0 0 0 0 0 0 0 0 0 0 0 0 0 0 0 0 0 0 0 31 430 363 420 123 457 568 492 576 308 302 275
3 4 4 4 1 1 0 0 0 0 0 0 0 0 0 0 0 0 0 0 0 0 0 0 0 0 0 0 0 0 0 0 0 10 124 438 325 249 287 502 574 547 396 339 363
3 2 3 2 0 0 0 0 0 0 0 0 0 0 0 0 0 0 0 0 0 0 0 0 0 0 0 0 0 0 0 0 0 0 48 169 227 269 87 221 529 485 500 349 263
4 2 3 1 0 0 0 0 0 0 0 0 0 0 0 0 0 0 0 0 0 0 0 0 0 0 0 0 0 0 0 0 0 0 43 57 100 30 79 35 37 448 719 444 354
5 2 2 1 0 0 0 0 0 0 0 0 0 0 0 0 0 0 0 0 0 0 0 0 0 0 0 0 0 0 0 0 0 0 97 331 8 0 0 0 2 431 471 682 389
4 1 0 0 0 0 0 0 0 0 0 0 0 0 0 0 0 0 0 0 0 0 0 0 0 0 0 0 0 0 0 0 0 0 81 90 50 18 0 23 197 518 321 473 609
1 0 0 1 0 0 0 0 0 0 0 0 0 0 0 0 0 0 0 0 0 0 0 0 0 0 0 0 0 0 0 0 0 0 0 15 140 0 33 194 14 10 397 371 612
0 0 0 0 0 0 0 0 0 0 0 0 0 0 0 0 0 0 0 0 0 0 0 0 0 0 0 0 0 0 0 0 0 0 0 0 7 206 168 9 4 0 296 281 487
0 0 0 0 0 0 0 0 0 0 0 0 0 0 0 0 0 0 0 0 0 0 0 0 0 0 0 0 0 0 0 0 0 0 0 0 0 0 247 13 0 0 119 387 268
0 0 0 0 0 0 0 0 0 0 0 0 0 0 0 0 0 0 0 0 0 0 0 0 0 0 0 0 0 0 0 0 0 0 0 0 0 0 32 124 0 0 267 687 578
0 0 0 0 0 0 0 0 0 6 1 0 0 0 0 0 0 0 0 0 0 0 0 0 0 0 0 0 0 0 0 0 0 0 0 0 0 0 0 309 297 128 69 25 809
0 0 0 0 0 0 0 1 7 0 0 0 0 0 0 0 0 0 0 0 0 0 0 0 0 0 0 0 0 0 0 0 0 0 0 0 0 0 0 0 484 78 29 8 122
0 0 0 0 0 0 0 5 0 0 0 0 0 0 0 3 0 0 0 0 0 0 0 0 0 0 0 0 0 0 0 1 0 0 0 0 0 0 0 0 0 186 157 175 58
0 0 0 0 0 0 18 0 0 0 0 0 0 0 0 0 0 0 0 0 0 0 0 0 0 0 0 0 0 0 0 0 1 13 0 0 0 0 30 0 0 327 159 2 0
0 10 0 0 0 1 0 0 0 0 0 0 0 0 0 0 0 0 5 4 0 0 0 0 0 0 0 0 0 0 0 0 16 1 6 2 0 0 0 10 0 0 259 160 91
3 0 0 0 1 5 0 0 0 0 0 0 0 0 0 0 0 0 0 0 0 0 0 1 0 0 0 0 0 0 0 0 0 0 23 22 0 0 4 16 26 0 3 354 476
9 20 1 0 0 0 0 1 2 0 0 0 0 0 0 0 0 0 1 3 0 0 0 0 0 0 4 0 0 0 0 0 0 5 0 0 0 0 23 1 17 15 43 55 508
0 0 0 0 0 0 0 1 0 0 0 0 4 0 2 4 10 10 8 17 16 34 0 0 2 7 0 0 0 0 0 0 0 0 4 0 0 0 72 100 17 83 133 79 62
0 1 0 0 0 0 0 0 0 0 0 2 2 3 4 17 14 14 10 24 47 39 50 51 43 36 15 5 2 0 0 0 0 0 0 0 0 0 0 10 11 106 332 370 515
0 0 2 0 0 0 0 4 0 2 1 1 2 4 7 15 7 2 1 5 13 35 81 124 227 119 60 27 17 8 1 1 0 0 0 0 0 0 0 56 1 115 189 203 328

GFSSW_con_sbcape_069.txt.gz
CAPE
0 0 0 0 0 1 2 2 3 1 1 1 1 2 3 3 0 0 0 0 0 0 0 0 0 0 0 20 49 38 187 197 277 0 0 0 145 450 417 226 259 231 71 42 0
0 0 0 0 0 1 2 2 2 1 1 1 1 1 2 0 0 0 0 0 0 0 0 0 0 0 0 0 10 17 139 244 16 14 16 19 90 389 386 564 416 145 67 24 3
0 0 1 1 1 0 2 2 1 0 1 1 1 0 1 0 0 0 0 0 0 0 0 0 0 0 0 0 0 10 2 136 218 53 240 209 269 159 377 443 250 102 67 25 25
0 0 1 1 1 1 1 1 0 0 2 2 1 1 0 0 0 0 0 0 0 0 0 0 0 0 0 0 0 0 5 40 258 258 408 403 211 28 103 154 319 110 42 36 49
0 1 2 1 1 1 1 1 0 0 3 1 0 0 0 0 0 0 0 0 0 0 0 0 0 0 0 0 0 0 4 14 56 211 463 359 114 0 4 161 298 104 13 30 37
1 3 5 4 2 1 1 2 0 0 0 0 0 0 0 0 0 0 0 0 0 0 0 0 0 0 0 0 0 0 0 3 150 293 177 141 157 56 113 196 291 108 9 19 24
2 4 6 5 0 1 0 1 0 0 0 0 0 0 0 0 0 0 0 0 0 0 0 0 0 0 0 0 0 0 0 0 18 369 403 401 328 352 293 293 181 122 44 25 12
3 4 6 2 1 2 2 0 0 0 0 0 0 0 0 0 0 0 0 0 0 0 0 0 0 0 0 0 0 0 0 0 0 14 401 426 445 531 308 440 198 172 106 60 38
5 5 6 5 3 3 1 0 0 0 0 0 0 0 0 0 0 0 0 0 0 0 0 0 0 0 0 0 0 0 0 0 0 0 46 247 285 530 102 192 212 89 65 84 102
4 5 6 3 1 2 0 0 0 0 0 0 0 0 0 0 0 0 0 0 0 0 0 0 0 0 0 0 0 0 0 0 0 0 1 304 367 75 7 225 250 225 111 63 115
5 4 3 1 0 0 0 0 0 0 0 0 0 0 0 0 0 0 0 0 0 0 0 0 0 0 0 0 0 0 0 0 0 0 0 226 203 7 0 113 482 220 135 61 158
4 2 1 0 0 0 0 0 0 0 0 0 0 0 0 0 0 0 0 0 0 0 0 0 0 0 0 0 0 0 0 0 0 0 58 412 255 72 3 135 126 0 218 94 195
1 0 0 0 0 0 0 0 0 0 0 0 0 0 0 0 0 0 0 0 0 0 0 0 0 0 0 0 0 0 0 0 0 0 45 161 186 120 49 31 49 158 28 115 165
0 0 0 1 0 0 0 0 0 0 0 0 0 0 0 0 0 0 0 0 0 0 0 0 0 0 0 0 0 0 0 0 0 0 0 50 102 85 41 57 160 206 14 8 76
0 0 0 0 0 0 0 0 0 0 0 0 0 0 0 0 0 0 0 0 0 0 0 0 0 0 0 0 0 0 0 0 0 0 0 0 0 108 48 44 97 43 0 1 8
0 0 1 0 0 0 0 0 0 0 0 0 0 0 0 0 0 0 0 0 0 0 0 0 0 0 0 0 0 0 0 0 0 0 0 0 0 15 29 50 5 28 0 30 43
0 0 0 0 0 0 0 0 0 0 0 0 0 0 0 0 0 0 0 0 0 0 0 0 0 0 0 0 0 0 0 0 0 0 0 0 0 0 160 162 0 1 51 44 17
0 0 0 0 0 0 0 0 0 0 0 0 0 0 0 0 0 0 0 0 0 0 0 0 0 0 0 0 0 0 0 0 0 0 0 0 0 0 34 287 44 24 9 95 244
0 0 0 0 0 0 0 1 0 0 0 0 0 0 0 0 0 0 0 0 0 0 0 0 0 0 0 0 0 0 0 0 0 0 0 0 0 0 0 195 146 0 9 350 317
0 0 0 0 0 0 0 0 0 0 0 0 0 0 0 0 0 0 0 0 0 0 0 0 0 0 0 0 0 0 0 0 0 0 0 0 0 0 0 16 218 58 339 51 78
0 0 0 0 0 0 0 0 0 0 0 0 0 0 0 0 0 0 0 0 0 0 0 0 0 0 0 0 0 0 0 0 0 0 0 0 0 0 0 0 62 275 273 44 55
0 0 0 0 0 16 0 0 0 0 0 0 0 0 0 0 0 0 0 0 0 0 0 0 0 0 0 0 0 0 0 0 0 0 0 0 0 0 0 0 17 238 389 185 279
0 15 0 0 0 0 0 0 0 0 0 0 0 0 0 0 0 0 0 0 0 0 0 0 0 0 0 0 0 0 0 0 0 0 0 0 0 0 0 0 21 41 170 245 235
0 0 0 0 0 0 0 0 0 0 0 0 0 0 0 0 0 0 0 0 0 0 0 0 0 0 0 0 0 0 0 0 0 0 0 0 0 0 0 0 0 0 207 215 284
7 0 0 0 0 0 0 0 0 0 0 0 0 0 0 0 0 0 0 0 0 3 0 0 0 0 0 0 0 0 0 0 0 0 0 0 0 0 0 0 0 65 291 217 349
0 0 0 0 0 0 0 0 0 0 0 0 0 0 0 0 0 0 0 0 0 0 0 0 0 0 0 0 0 0 0 0 0 0 0 0 0 0 0 0 0 2 66 98 108
0 0 0 0 0 0 0 0 0 0 0 0 0 0 0 0 0 0 0 0 0 0 0 1 0 3 0 0 0 0 0 0 0 0 0 0 0 0 0 0 15 148 83 152 35

GFSSW_con_sbcape_072.txt.gz
CAPE
0 0 2 2 1 1 1 3 3 3 2 2 2 2 3 5 0 0 0 0 0 0 0 0 0 0 0 0 18 113 124 231 224 1 2 3 96 259 195 166 156 204 13 0 0
0 0 2 3 2 2 1 2 2 2 2 2 3 2 1 2 0 0 0 0 0 0 0 0 0 0 0 0 13 109 2 185 149 33 108 30 40 198 191 122 147 120 0 0 0
0 1 1 1 1 2 3 2 1 1 1 4 3 2 0 0 0 0 0 0 0 0 0 0 0 0 0 0 0 14 35 27 140 179 380 289 297 298 273 216 160 84 6 5 11
0 0 2 2 2 2 3 2 1 1 2 2 2 0 0 0 0 0 0 0 0 0 0 0 0 0 0 0 0 0 0 2 17 360 560 465 174 106 290 402 160 69 27 0 1
1 2 1 2 2 2 2 2 1 1 0 1 0 0 0 0 0 0 0 0 0 0 0 0 0 0 0 0 0 0 0 0 8 390 553 315 3 107 135 223 215 71 34 0 11
2 3 3 3 2 2 2 1 0 0 0 0 0 0 0 0 0 0 0 0 0 0 0 0 0 0 0 0 0 0 0 0 0 655 644 322 109 5 172 287 163 96 49 15 13
2 3 7 4 2 2 2 1 0 0 0 0 0 0 0 0 0 0 0 0 0 0 0 0 0 0 0 0 0 0 0 0 215 377 256 204 242 266 215 448 169 82 44 33 21
2 4 4 3 2 1 2 0 0 0 0 0 0 0 0 0 0 0 0 0 0 0 0 0 0 0 0 0 0 0 0 0 9 372 361 296 420 396 424 448 188 65 58 41 37
7 7 4 3 3 4 2 0 0 0 0 0 0 0 0 0 0 0 0 0 0 0 0 0 0 0 0 0 0 0 0 0 0 311 427 300 461 238 404 464 239 99 37 45 34
6 7 4 2 3 2 1 0 0 0 0 0 0 0 0 0 0 0 0 0 0 0 0 0 0 0 0 0 0 0 0 0 0 0 335 316 447 331 638 506 377 205 101 20 41
6 4 1 1 2 1 0 0 0 0 0 0 0 0 0 0 0 0 0 0 0 0 0 0 0 0 0 0 0 0 0 0 0 0 0 255 367 365 241 170 410 254 124 35 65
2 2 1 2 1 0 0 0 0 0 0 0 0 0 0 0 0 0 0 0 0 0 0 0 0 0 0 0 0 0 0 0 0 0 66 390 420 166 202 343 371 401 241 140 83
2 2 2 2 0 0 0 0 0 0 0 0 0 0 0 0 0 0 0 0 0 0 0 0 0 0 0 0 0 0 0 0 0 4 171 186 124 74 35 270 351 514 277 173 108
2 2 2 2 0 0 0 0 0 0 0 0 0 0 0 0 0 0 0 0 0 0 0 0 0 0 0 0 0 0 0 0 0 0 0 42 107 64 42 165 399 414 94 91 127
2 0 1 0 0 0 0 0 0 0 0 0 0 0 0 0 0 0 0 0 0 0 0 0 0 0 0 0 0 0 0 0 0 0 0 0 0 0 27 56 268 457 148 229 118
0 0 2 0 0 0 0 0 0 0 0 0 0 0 0 0 0 0 0 0 0 0 0 0 0 0 0 0 0 0 0 0 0 0 0 0 0 0 0 34 46 460 397 237 62
0 0 0 0 0 0 0 0 0 0 0 0 0 0 0 0 0 0 0 0 0 0 0 0 0 0 0 0 0 0 0 0 0 0 0 0 0 0 6 88 47 222 360 233 40
0 0 0 0 0 0 0 0 0 0 0 0 0 0 0 0 0 0 0 0 0 0 0 0 0 0 0 0 0 0 0 0 0 0 0 0 0 0 0 129 139 108 194 235 81
0 0 0 0 0 0 0 0 0 0 0 0 0 0 0 0 0 0 0 0 0 0 0 0 0 0 0 0 0 0 0 0 0 0 0 0 0 0 0 4 162 73 111 206 280
0 0 0 0 0 0 0 0 0 0 0 0 0 0 0 0 0 0 0 0 0 0 0 0 0 0 0 0 0 0 0 0 0 0 0 0 0 0 0 0 34 113 106 196 377
0 0 0 0 0 0 0 0 0 0 0 0 0 0 0 0 0 0 0 0 0 0 0 0 0 0 0 0 0 0 0 0 0 0 0 0 0 0 0 0 0 103 66 49 337
0 0 0 0 0 0 0 0 0 0 0 0 0 0 0 0 0 0 0 0 0 0 0 0 0 0 0 0 0 0 0 0 0 0 0 0 0 0 0 0 35 127 19 50 216
0 0 0 0 0 0 0 0 0 0 0 0 0 0 0 0 0 0 0 0 0 0 0 0 0 0 0 0 0 0 0 0 0 0 0 0 0 0 0 4 67 100 88 69 38
0 0 0 0 0 0 0 0 0 0 0 0 0 0 0 0 0 0 0 0 0 0 0 0 0 0 0 0 0 0 0 0 0 0 0 0 0 0 0 0 0 49 54 69 60
0 0 0 0 0 0 0 0 0 0 0 0 0 0 0 0 0 0 0 0 0 0 0 0 0 0 0 0 0 0 0 0 0 0 0 0 0 0 0 0 0 19 56 65 144
0 0 0 0 0 0 0 0 0 0 0 0 0 0 0 0 0 0 0 0 0 0 0 0 0 0 0 0 0 0 0 0 0 0 0 0 0 0 0 5 19 42 105 66 14
0 0 0 0 0 0 0 0 0 0 0 0 0 0 0 0 0 0 0 0 0 0 0 0 0 0 0 0 0 0 0 0 0 0 1 0 0 0 0 0 0 0 4 11 34

GFSSW_con_sbcape_075.txt.gz
CAPE
0 1 3 3 2 2 2 3 4 3 3 3 4 4 4 3 1 0 0 0 0 0 0 0 0 0 0 0 17 119 176 134 114 66 21 29 249 198 230 140 95 208 6 39 44
1 2 2 2 3 3 2 2 3 3 2 3 3 4 4 5 0 0 0 0 0 0 0 0 0 0 0 0 40 159 27 185 122 7 83 87 236 39 375 143 165 9 13 35 24
2 2 3 3 3 3 4 3 2 2 2 3 1 2 1 0 0 0 0 0 0 0 0 0 0 0 0 0 14 89 95 57 123 230 9 66 178 129 196 126 135 0 14 34 31
1 3 3 5 4 3 4 3 2 1 2 2 3 0 0 0 0 0 0 0 0 0 0 0 0 0 0 0 0 1 8 65 22 348 342 205 12 71 115 491 312 0 8 8 29
2 3 4 4 4 4 3 2 2 1 1 1 0 0 0 0 0 0 0 0 0 0 0 0 0 0 0 0 0 0 0 0 0 0 534 33 11 0 18 106 182 14 17 14 19
5 5 5 5 2 2 2 1 1 1 0 0 2 0 0 0 0 0 0 0 0 0 0 0 0 0 0 0 0 0 0 0 0 358 200 78 95 21 200 356 390 94 17 24 12
8 6 5 3 3 2 1 1 1 0 0 0 0 0 0 0 0 0 0 0 0 0 0 0 0 0 0 0 0 0 0 0 443 548 350 36 6 235 268 429 434 86 10 26 17
7 6 5 3 3 2 2 1 1 0 0 0 1 0 0 0 0 0 0 0 0 0 0 0 0 0 0 0 0 0 0 0 389 322 129 157 205 304 195 232 235 94 48 14 42
10 5 3 3 4 6 4 1 0 0 0 0 0 0 0 0 0 0 0 0 0 0 0 0 0 0 0 0 0 0 0 0 0 275 305 213 206 193 514 181 210 110 77 57 30
7 7 6 5 6 5 5 0 0 0 0 0 0 0 0 0 0 0 0 0 0 0 0 0 0 0 0 0 0 0 0 0 0 220 376 357 273 317 333 329 196 103 65 44 37
7 5 6 6 5 4 1 0 0 0 0 0 0 0 0 0 0 0 0 0 0 0 0 0 0 0 0 0 0 0 0 0 0 0 0 176 281 263 282 205 262 122 68 39 38
5 5 6 5 4 2 0 0 0 0 0 0 0 0 0 0 0 0 0 0 0 0 0 0 0 0 0 0 0 0 0 0 0 0 11 223 309 191 442 252 424 273 87 46 35
5 4 5 3 0 0 0 0 0 0 0 0 0 0 0 0 0 0 0 0 0 0 0 0 0 0 0 0 0 0 0 0 0 0 156 124 310 286 229 277 356 425 289 89 10
6 6 3 2 0 0 0 0 0 0 0 0 0 0 0 0 0 0 0 0 0 0 0 0 0 0 0 0 0 0 0 0 0 0 0 28 98 105 17 85 268 492 441 244 44
6 5 1 0 0 0 0 0 0 0 0 0 0 0 0 0 0 0 0 0 0 0 0 0 0 0 0 0 0 0 0 0 0 0 0 0 0 0 4 39 268 501 479 369 222
3 2 1 0 0 0 0 0 0 0 0 0 0 0 0 0 0 0 0 0 0 0 0 0 0 0 0 0 0 0 0 0 0 0 0 0 0 0 21 89 110 425 496 443 101
0 0 0 0 0 0 0 0 0 0 0 0 0 0 0 0 0 0 0 0 0 0 0 0 0 0 0 0 0 0 0 0 0 0 0 0 0 0 4 30 46 149 393 497 170
0 0 0 0 0 0 0 0 0 0 0 0 0 0 0 0 0 0 0 0 0 0 0 0 0 0 0 0 0 0 0 0 0 0 0 0 0 0 0 0 0 33 124 304 255
0 0 0 0 0 0 0 0 0 0 0 0 0 0 0 0 0 0 0 0 0 0 0 0 0 0 0 0 0 0 0 0 0 0 0 0 0 0 0 0 0 7 33 384 353
0 0 0 0 0 0 0 0 0 0 0 0 0 0 0 0 0 0 0 0 0 0 0 0 0 0 0 0 0 0 0 0 0 0 0 0 0 0 0 0 0 0 0 84 303
0 0 0 0 0 0 0 0 0 0 0 0 0 0 0 0 0 0 0 0 0 0 0 0 0 0 0 0 0 0 0 0 0 0 0 0 0 0 0 0 0 15 0 0 123
0 0 0 0 0 0 0 0 0 0 0 0 0 0 0 0 0 0 0 0 0 0 0 0 0 0 0 0 0 0 0 0 0 0 0 0 0 0 0 0 0 11 13 0 86
0 0 0 0 0 0 0 0 0 0 0 0 0 0 0 0 0 0 0 0 0 0 0 0 0 0 0 0 0 0 0 0 0 0 0 0 0 0 0 0 0 6 45 27 67
0 0 0 0 0 0 0 0 0 0 0 0 0 0 0 0 0 0 0 0 0 0 0 0 0 0 0 0 0 0 0 0 0 0 0 0 0 0 0 0 0 0 29 65 92
0 0 0 0 0 0 0 0 0 0 0 0 0 0 0 0 0 0 0 0 0 0 0 0 0 0 0 0 0 0 0 0 0 0 0 0 0 0 0 0 0 0 10 42 1
0 0 0 0 0 0 0 0 0 0 0 0 0 0 0 0 0 0 0 0 0 0 0 0 0 0 0 0 0 0 0 0 0 0 0 0 0 0 0 0 0 0 0 0 9
0 0 0 0 0 0 0 0 0 0 0 0 0 0 0 0 0 0 0 0 0 0 0 0 0 0 0 0 0 0 0 0 0 0 0 0 0 0 0 0 0 0 0 0 0

GFSSW_con_sbcape_078.txt.gz
CAPE
1 4 4 4 4 4 3 4 4 3 3 2 2 1 3 3 3 2 0 0 0 0 0 0 0 0 0 0 10 104 73 111 117 82 69 52 330 230 147 74 39 48 8 41 115
2 4 5 6 5 3 3 4 2 4 3 2 2 2 1 0 0 0 0 0 0 0 0 0 0 0 0 0 9 104 22 78 65 65 90 131 5 95 8 120 0 46 68 66 133
5 5 5 5 5 5 4 2 3 2 3 3 1 3 0 3 0 0 0 0 0 2 0 0 0 0 0 0 0 114 82 103 126 106 201 142 13 115 163 165 4 17 42 78 117
4 5 6 5 5 4 4 2 3 2 2 4 1 0 0 0 0 0 0 0 0 0 0 0 0 0 0 0 0 9 10 37 90 227 142 139 139 128 210 260 153 29 14 69 89
5 2 5 4 4 4 4 3 3 2 1 3 2 0 0 0 0 0 0 0 0 0 0 0 0 0 0 0 0 0 0 0 2 28 195 34 68 47 190 241 3 45 21 19 27
1 1 3 3 3 2 3 3 3 3 1 0 4 0 0 0 0 0 0 0 0 0 0 0 0 0 0 0 0 0 0 0 0 14 149 31 8 27 3 374 7 15 2 5 4
3 4 4 4 5 2 3 3 4 2 1 0 5 0 0 0 0 0 0 0 0 0 0 0 0 0 0 0 0 0 0 0 390 306 253 71 25 78 93 520 60 5 0 1 5
4 6 5 4 4 5 4 5 3 2 1 0 2 0 0 0 0 0 0 0 0 0 0 0 0 0 0 0 0 0 0 0 490 248 217 70 100 545 331 714 194 46 20 0 3
6 5 5 5 6 2 2 3 1 0 0 0 0 0 0 0 0 0 0 0 0 0 0 0 0 0 0 0 0 0 0 0 0 237 177 130 140 214 312 585 239 45 40 20 0
8 7 7 10 9 0 1 0 1 0 0 0 0 0 0 0 0 0 0 0 0 0 0 0 0 0 0 0 0 0 0 0 0 274 272 185 184 232 583 175 243 125 45 38 37
6 9 11 8 2 0 0 0 0 0 0 0 0 0 0 0 0 0 0 0 0 0 0 0 0 0 0 0 0 0 0 0 0 0 0 23 127 334 421 305 294 186 54 8 32
7 11 0 4 5 5 0 0 0 0 0 0 0 0 0 0 0 0 0 0 0 0 0 0 0 0 0 0 0 0 0 0 0 0 4 171 209 269 216 212 350 247 82 18 0
10 5 0 4 1 0 0 0 0 0 0 0 0 0 0 0 0 0 0 0 0 0 0 0 0 0 0 0 0 0 0 0 0 0 129 94 139 373 358 205 175 292 189 30 17
12 1 2 0 0 0 0 0 0 0 0 0 0 0 0 0 0 0 0 0 0 0 0 0 0 0 0 0 0 0 0 0 0 0 0 2 0 88 215 233 231 199 335 126 9
1 0 3 1 0 0 0 0 0 0 0 0 0 0 0 0 0 0 0 0 0 0 0 0 0 0 0 0 0 0 0 0 0 0 0 0 0 0 37 114 83 155 252 347 141
1 3 1 0 0 0 0 0 0 0 0 0 0 0 0 0 0 0 0 0 0 0 0 0 0 0 0 0 0 0 0 0 0 0 0 0 0 0 53 72 45 38 90 353 310
0 0 0 0 0 0 0 0 0 0 0 0 0 0 0 0 0 0 0 0 0 0 0 0 0 0 0 0 0 0 0 0 0 0 0 0 0 0 0 0 0 0 77 320 413
0 0 0 0 0 0 0 0 0 0 0 0 0 0 0 0 0 0 0 0 0 0 0 0 0 0 0 0 0 0 0 0 0 0 0 0 0 0 0 0 0 0 3 263 494
0 0 0 0 0 0 0 0 0 0 0 0 0 0 0 0 0 0 0 0 0 0 0 0 0 0 0 0 0 0 0 0 0 0 0 0 0 0 0 0 0 0 0 65 409
0 0 0 0 0 0 0 0 0 0 0 0 0 0 0 0 0 0 0 0 0 0 0 0 0 0 0 0 0 0 0 0 0 0 0 0 0 0 0 0 0 0 0 0 8
0 0 0 0 0 0 0 0 0 0 0 0 0 0 0 0 0 0 0 0 0 0 0 0 0 0 0 0 0 0 0 0 0 0 0 0 0 0 0 0 0 0 0 3 5
0 0 0 0 0 0 0 0 0 0 0 0 0 0 0 0 0 0 0 0 0 0 0 0 0 0 0 0 0 0 0 0 0 0 0 0 0 0 0 0 0 0 0 0 38
0 0 0 0 0 0 0 0 0 0 0 0 0 0 0 0 0 0 0 0 0 0 0 0 0 0 0 0 0 0 0 0 0 0 0 0 0 0 0 0 0 0 2 0 1
0 0 0 0 0 0 0 0 0 0 0 0 0 0 0 0 0 0 0 0 0 0 0 0 0 0 0 0 0 0 0 0 0 0 0 0 0 0 0 0 0 0 1 5 5
0 0 0 0 0 0 0 0 0 0 0 0 0 0 0 0 0 0 0 0 0 0 0 0 0 0 0 0 0 0 0 0 0 0 0 0 0 0 0 0 0 0 0 0 6
0 0 0 0 0 0 0 0 0 0 0 0 0 0 0 0 0 0 0 0 0 0 0 0 0 0 0 0 0 0 0 0 0 0 0 0 0 0 0 0 0 0 0 0 3
0 0 0 0 0 0 0 0 0 0 0 0 0 0 0 0 0 0 0 0 0 0 0 0 0 0 0 0 0 0 0 0 0 0 0 0 0 0 0 0 0 0 0 0 0

GFSSW_con_sbcape_081.txt.gz
CAPE
3 5 4 3 3 3 3 5 5 3 2 3 3 1 2 2 0 0 0 0 0 0 0 0 0 0 0 85 13 146 307 233 119 87 126 148 351 179 88 57 29 25 27 14 7
4 5 4 3 3 4 3 3 4 5 2 2 3 1 0 0 0 0 0 0 0 0 0 0 0 0 0 47 72 193 77 223 99 122 191 70 156 223 63 130 78 37 57 29 25
4 5 6 4 4 4 3 3 3 3 3 2 2 2 0 1 0 0 0 0 0 0 0 0 0 0 0 3 84 240 230 191 149 214 255 76 22 182 168 210 77 51 45 43 25
5 2 1 4 4 4 4 2 3 4 2 3 1 1 0 0 0 0 0 0 1 0 0 0 0 0 0 0 2 114 43 110 203 378 267 165 47 155 94 347 72 49 20 26 13
1 4 4 6 5 4 3 3 3 2 4 1 1 1 0 0 0 0 0 0 0 0 0 0 0 0 0 0 0 13 24 8 7 248 381 226 171 125 196 114 49 30 62 23 20
4 5 6 3 4 5 5 5 4 3 1 2 0 0 0 0 0 0 0 0 0 0 0 0 0 0 0 0 0 0 0 0 0 0 183 103 89 65 378 63 45 23 51 74 82
5 4 3 2 3 3 2 4 4 2 2 1 0 1 0 0 0 0 0 0 0 0 0 0 0 0 0 0 0 0 0 107 320 205 173 45 54 76 329 42 76 53 82 106 125
6 7 1 2 1 1 0 2 3 3 1 0 1 0 0 0 0 0 0 0 0 0 0 0 0 0 0 0 0 0 0 0 528 462 213 150 160 363 308 43 106 61 77 82 96
5 6 1 1 2 2 1 0 0 0 0 0 0 0 0 0 0 0 0 0 0 0 0 0 0 0 0 0 0 0 0 0 278 444 367 219 135 749 593 157 92 49 35 43 88
7 12 2 3 6 1 1 0 1 0 0 0 0 0 0 0 0 0 0 0 0 0 0 0 0 0 0 0 0 0 0 0 4 486 348 300 233 550 711 775 182 117 50 54 62
8 10 1 1 3 3 0 0 0 0 0 0 0 0 0 0 0 0 0 0 0 0 0 0 0 0 0 0 0 0 0 0 0 0 0 0 1 199 752 247 383 195 118 63 58
11 1 1 1 0 1 0 0 0 0 0 0 0 0 0 0 0 0 0 0 0 0 0 0 0 0 0 0 0 0 0 0 0 0 0 200 257 281 376 357 313 373 154 189 116
4 1 0 1 1 0 0 0 0 0 0 0 0 0 0 0 0 0 0 0 0 0 0 0 0 0 0 0 0 0 0 0 0 0 322 295 337 345 555 549 614 614 333 172 193
1 1 1 1 0 0 0 0 0 0 0 0 0 0 0 0 0 0 0 0 0 0 0 0 0 0 0 0 0 0 0 0 0 0 0 116 3 370 324 486 451 689 610 407 259
1 2 0 0 0 0 0 0 0 0 0 0 0 0 0 0 0 0 0 0 0 0 0 0 0 0 0 0 0 0 0 0 0 0 0 0 0 0 264 268 339 271 439 399 316
2 0 0 0 0 0 0 0 0 0 0 0 0 0 0 0 0 0 0 0 0 0 0 0 0 0 0 0 0 0 0 0 0 0 0 0 0 0 0 0 0 10 214 349 469
1 0 0 0 0 0 0 0 0 0 0 0 0 0 0 0 0 0 0 0 0 0 0 0 0 0 0 0 0 0 0 0 0 0 0 0 0 0 0 0 1 15 9 41 429
0 0 0 0 0 0 0 0 0 0 0 0 0 0 0 0 0 0 0 0 0 0 0 0 0 0 0 0 0 0 0 0 0 0 0 0 0 0 0 0 0 6 34 78 235
0 0 0 0 0 0 0 0 0 0 0 0 0 0 0 0 0 0 0 0 0 0 0 0 0 0 0 0 0 0 0 0 0 0 0 0 0 0 0 0 0 36 75 103 64
0 0 0 0 0 0 0 0 0 0 0 0 0 0 0 0 0 0 0 0 0 0 0 0 0 0 0 0 0 0 0 0 0 0 0 0 0 0 0 0 2 3 7 115 273
0 0 0 0 0 0 0 0 0 0 0 0 0 0 0 0 0 0 0 0 0 0 0 0 0 0 0 0 0 0 0 0 0 0 0 0 0 0 0 5 1 4 30 61 621
0 0 0 0 0 0 0 0 0 0 0 0 0 0 0 0 0 0 0 0 0 0 0 0 0 0 0 0 0 0 0 0 0 0 0 0 0 0 0 0 0 1 13 26 204
0 0 0 0 0 0 0 0 0 0 0 0 0 0 0 0 0 0 0 0 0 0 0 0 0 0 0 0 0 0 0 0 0 0 0 0 0 0 0 0 0 0 6 3 2
0 0 0 0 0 0 0 0 0 0 0 0 0 0 0 0 0 0 0 0 0 0 0 0 0 0 0 0 0 0 0 0 0 0 0 0 0 0 0 0 0 0 7 5 0
0 0 0 0 0 0 0 0 0 0 0 0 0 0 0 0 0 0 0 0 0 0 0 0 0 0 0 0 0 0 0 0 0 0 0 0 0 0 1 1 1 1 1 0 1
0 0 0 0 0 0 0 0 0 0 0 0 0 0 0 0 0 0 0 0 0 0 0 0 0 0 0 0 0 0 0 0 0 0 0 0 0 0 0 1 0 0 1 0 1
0 0 0 0 0 0 0 0 0 0 0 0 0 0 0 0 0 0 0 0 0 0 0 0 0 0 0 0 0 0 0 0 0 0 0 0 0 0 0 0 0 0 0 1 3

GFSSW_con_sbcape_084.txt.gz
CAPE
4 3 3 3 3 3 4 5 4 2 0 2 4 2 0 0 0 0 0 0 0 0 0 0 0 0 4 97 216 339 657 291 200 276 408 471 217 103 94 230 112 189 158 0 0
4 5 4 4 3 3 3 4 3 2 2 1 2 3 0 0 0 0 0 0 0 0 0 0 0 0 76 218 363 550 546 201 108 280 427 358 83 31 130 163 156 220 39 0 0
4 3 4 2 4 3 3 4 4 4 1 3 0 1 0 0 0 0 0 0 0 0 0 0 0 0 0 180 216 541 311 228 162 151 338 203 71 27 41 279 286 144 59 6 0
1 3 5 5 3 5 4 4 4 5 3 1 1 0 0 0 0 0 0 0 0 0 0 0 0 0 0 88 399 505 386 165 245 210 113 118 73 57 149 581 249 115 33 10 11
3 4 3 4 3 3 5 3 4 3 3 1 1 0 0 0 0 0 0 0 0 0 0 0 0 0 0 0 8 476 219 19 0 136 123 242 191 207 152 183 117 88 15 4 16
4 5 2 3 2 3 1 1 1 4 2 2 0 1 0 0 0 0 0 0 0 0 0 0 0 0 0 0 3 40 68 2 0 0 192 392 227 134 215 123 76 53 35 15 10
4 1 2 3 3 2 1 1 3 4 2 1 0 0 0 0 0 0 0 0 0 0 0 0 0 0 0 0 0 0 0 68 42 43 231 223 176 474 213 127 45 39 36 40 37
2 5 2 2 4 3 1 2 0 3 2 0 0 0 0 0 0 0 0 0 0 0 0 0 0 0 0 0 0 0 0 45 314 535 355 463 381 840 243 187 111 57 64 104 110
9 4 4 2 4 2 1 0 2 1 1 0 0 0 0 0 0 0 0 0 0 0 0 0 0 0 0 0 0 9 103 15 561 746 495 492 651 414 290 233 288 189 154 137 170
13 10 6 5 2 1 0 0 1 0 0 0 0 0 0 0 0 0 0 0 0 0 0 0 0 0 0 0 0 76 174 11 302 529 476 300 626 800 544 407 450 220 246 200 80
11 8 1 1 3 3 0 0 0 0 0 0 0 0 0 0 0 0 0 0 0 0 0 0 0 0 0 0 24 46 93 56 281 350 63 10 258 1045 1054 779 388 254 272 202 35
12 7 2 1 2 0 0 0 0 0 0 0 0 0 0 0 0 0 0 0 0 0 0 0 0 0 0 0 0 4 9 0 0 0 0 0 2 741 919 561 816 598 287 227 40
9 2 1 1 0 0 0 0 0 0 0 0 0 0 0 0 0 0 0 0 0 0 0 0 0 0 0 0 0 1 30 0 0 0 5 86 163 235 493 375 420 338 576 339 99
3 1 0 0 0 0 0 0 0 0 0 0 0 0 0 0 0 0 0 0 0 0 0 0 0 0 0 0 0 5 7 0 0 0 101 97 443 519 325 468 542 577 508 748 494
4 0 0 1 0 0 0 0 0 0 22 0 0 0 0 0 0 0 0 0 0 0 0 0 0 0 0 0 0 14 0 0 0 0 0 0 100 338 381 341 649 507 678 710 605
1 0 0 0 0 0 0 0 0 0 1 0 0 0 0 0 0 0 0 0 0 0 0 0 0 0 1 0 0 0 0 0 0 0 0 0 48 52 88 139 140 137 236 706 890
0 0 0 0 0 0 0 0 11 15 0 0 0 0 0 0 0 0 0 0 0 1 2 0 0 0 0 10 0 0 0 0 4 0 0 0 0 34 0 0 37 175 227 179 914
0 0 0 0 0 0 0 14 64 0 0 0 0 0 0 0 0 0 0 0 0 0 10 0 0 0 0 0 0 0 0 0 1 0 4 0 18 0 0 0 95 224 344 296 376
0 0 0 0 0 0 10 51 6 0 0 0 0 0 0 0 0 0 0 0 0 0 5 13 0 0 0 0 0 0 0 0 0 3 2 0 0 0 0 9 77 191 283 564 410
0 0 0 0 0 0 34 0 0 0 0 0 2 3 0 0 0 0 0 0 0 0 0 0 0 0 0 0 0 0 0 0 0 0 3 0 0 0 0 0 52 90 136 386 802
0 0 0 0 0 26 92 1 0 0 0 0 0 1 1 0 1 0 0 0 0 0 0 0 0 0 0 0 0 0 0 0 0 0 0 9 0 0 2 7 5 46 51 111 243
0 0 0 0 47 4 2 0 0 0 0 0 0 0 0 0 2 0 0 0 0 0 0 0 0 0 0 0 0 0 0 0 1 0 0 10 0 0 7 6 7 42 5 6 25
0 0 0 0 4 1 0 0 0 0 0 0 0 0 0 1 6 0 0 0 0 0 0 0 0 0 0 0 0 0 0 0 0 0 4 0 0 0 17 17 19 18 13 0 0
0 0 0 0 0 0 0 0 0 0 0 0 0 0 0 0 2 0 0 0 0 0 0 0 0 0 2 0 0 0 0 0 0 2 17 1 0 8 19 18 37 7 8 1 0
0 0 0 0 0 0 0 0 0 0 0 0 0 0 0 0 0 0 0 0 0 0 0 0 0 0 0 0 0 0 0 0 0 0 1 0 0 6 15 9 11 18 12 12 7
0 0 0 0 0 0 0 0 0 0 0 0 0 0 0 0 0 0 0 0 0 0 0 0 0 0 0 0 0 0 0 0 0 0 0 0 0 6 8 10 4 4 5 8 10
0 0 0 0 0 0 0 0 0 0 0 0 0 0 0 0 0 0 0 0 0 0 0 0 0 0 0 0 0 0 0 0 0 0 0 0 0 0 2 3 2 1 0 1 4

GFSSW_con_sbcape_087.txt.gz
CAPE
4 4 3 3 2 3 4 3 3 2 2 1 2 0 0 0 0 0 0 0 0 0 4 0 0 0 7 67 392 585 768 262 302 485 769 736 222 178 210 199 296 484 12 0 2
5 5 3 3 3 2 3 3 3 2 2 2 1 0 0 0 0 0 0 0 0 95 8 0 0 0 8 112 586 812 704 157 296 468 764 851 93 163 303 344 355 217 1 0 13
1 2 3 4 4 3 3 3 3 2 1 2 0 0 0 0 0 0 0 0 0 27 0 0 0 0 1 241 817 554 458 177 311 485 526 643 147 58 233 361 431 67 0 0 43
4 3 4 3 4 4 4 3 3 2 1 1 1 0 1 0 0 0 0 0 0 0 0 0 0 0 0 35 639 716 428 217 134 254 157 300 108 49 106 497 423 134 0 0 44
3 3 3 3 4 3 2 2 1 1 3 1 1 0 0 0 0 0 0 0 0 0 0 0 0 0 0 8 594 493 409 56 55 268 203 320 290 109 330 303 367 171 5 1 14
3 5 1 3 2 1 1 2 2 2 1 2 0 0 0 0 0 0 0 0 0 0 0 0 0 0 0 1 323 434 425 60 0 42 433 364 289 297 228 283 157 185 12 14 19
1 3 3 3 2 3 1 1 3 2 0 1 0 0 0 0 0 0 0 0 0 0 0 0 0 0 0 0 231 169 173 36 8 89 564 368 211 403 218 211 95 61 36 44 24
5 3 2 2 2 3 1 2 0 3 2 0 1 0 0 0 0 0 0 0 0 0 0 0 0 0 0 0 0 217 168 208 125 569 534 366 659 430 194 159 66 49 54 44 27
9 9 5 8 6 2 2 0 0 0 0 0 0 0 0 0 0 0 0 0 0 0 0 0 0 0 0 0 0 177 321 249 407 615 547 548 813 478 466 182 50 47 54 64 75
10 11 11 7 5 2 0 0 0 0 0 0 0 0 0 0 0 0 0 0 0 0 0 0 0 0 0 0 0 79 160 275 372 541 403 285 925 680 613 253 160 88 89 51 80
13 11 9 4 1 1 0 0 0 0 0 0 0 0 0 0 0 0 0 0 0 0 0 0 0 0 0 0 21 118 136 78 227 331 344 299 552 1043 299 484 423 376 180 141 90
8 2 2 2 1 0 0 0 0 0 0 0 0 0 0 0 0 0 0 0 0 0 0 0 0 0 0 0 4 75 140 82 136 277 144 242 439 950 812 668 682 444 279 229 174
4 3 1 1 0 0 0 0 0 0 0 0 0 0 0 0 0 0 0 0 0 0 0 0 0 0 0 0 0 98 190 102 65 19 11 48 390 943 724 910 691 589 416 283 176
2 2 0 0 0 0 0 0 0 0 0 0 0 0 0 0 0 0 0 0 0 0 0 0 0 0 0 0 0 59 101 40 90 81 146 168 235 524 871 671 826 493 521 510 271
1 3 0 1 0 0 0 0 0 0 55 0 0 0 0 0 0 0 0 0 0 0 0 0 0 0 0 0 0 7 140 49 9 21 50 144 202 54 898 996 906 975 816 677 427
1 1 0 0 0 0 0 0 0 1 80 0 0 0 0 0 0 0 0 0 13 9 0 0 0 0 0 0 0 21 80 53 16 29 70 48 171 251 442 455 426 628 756 985 866
0 0 1 0 0 0 0 0 52 159 26 0 0 0 0 0 2 0 0 0 22 21 0 4 0 0 9 12 0 42 19 59 27 19 40 21 168 119 57 154 260 257 424 697 1025
0 0 0 0 0 0 11 141 148 55 33 1 0 0 0 2 7 0 0 0 27 110 31 3 1 11 0 54 14 4 9 22 10 21 29 64 210 35 34 180 270 392 549 401 518
0 0 1 0 0 0 115 182 9 23 0 1 0 0 2 7 13 17 7 19 5 0 3 31 18 0 0 0 0 20 6 3 42 70 81 93 18 77 111 160 276 182 477 1278 502
0 2 32 0 0 33 221 19 53 0 0 6 0 0 32 11 6 13 38 0 0 0 0 25 16 0 0 0 0 0 2 47 10 68 98 130 56 131 97 158 96 129 321 771 1118
0 6 3 0 23 198 73 173 6 0 1 8 0 0 0 5 0 3 4 0 0 0 0 2 8 0 0 0 0 0 0 24 70 34 143 118 167 75 88 170 143 55 19 112 541
0 39 0 0 266 185 279 102 0 1 6 17 32 13 0 0 6 7 12 0 0 0 0 0 1 0 0 0 0 0 9 4 21 21 3 37 88 82 85 238 135 17 2 43 93
0 0 0 22 177 103 8 0 0 0 2 4 13 33 38 1 0 8 0 0 0 0 0 0 0 29 0 0 0 0 0 0 15 49 79 58 79 129 114 173 187 10 2 1 3
0 6 0 0 14 37 19 0 0 0 0 0 1 22 64 93 78 50 8 0 0 0 0 0 3 25 10 15 0 0 0 0 0 5 42 233 204 227 141 145 32 22 1 0 0
0 0 0 6 0 0 0 0 0 0 0 0 0 11 66 94 82 66 13 0 0 0 0 0 5 3 0 0 0 0 0 0 0 0 74 327 318 188 68 115 52 8 9 5 2
0 0 0 0 0 0 0 0 0 0 0 0 0 0 1 142 81 56 30 32 31 0 5 3 20 0 0 0 0 0 0 0 0 0 5 128 164 33 25 20 25 33 16 3 7
0 0 0 0 0 0 0 0 0 0 0 0 0 0 0 0 0 0 0 5 12 30 8 15 37 5 1 0 0 0 0 0 0 0 3 233 149 20 31 18 15 18 16 11 8

GFSSW_con_sbcape_090.txt.gz
CAPE
4 4 3 2 2 4 3 3 3 3 3 2 1 0 0 0 0 0 0 0 0 0 4 0 0 0 0 9 203 428 777 414 353 602 807 483 250 293 248 222 282 376 0 0 18
4 3 3 3 3 3 3 3 3 3 3 3 1 0 0 0 0 0 0 0 0 0 0 0 0 0 0 33 319 583 732 324 426 720 835 298 197 429 432 427 212 0 0 3 27
3 4 4 5 4 4 2 3 4 4 2 2 1 0 0 0 0 0 0 0 0 9 0 0 0 0 0 20 442 595 490 229 312 623 857 335 161 205 409 400 16 0 0 3 23
3 3 5 4 6 5 2 3 2 4 3 3 1 0 0 0 0 0 0 0 0 0 0 0 0 0 0 81 589 635 713 365 299 543 402 371 151 161 201 324 147 2 0 4 20
4 4 1 2 1 1 1 1 2 1 3 2 1 0 0 0 0 0 0 0 0 0 0 0 0 0 0 54 646 408 500 392 383 302 430 245 113 67 369 455 250 2 1 8 32
5 7 10 6 3 1 1 1 2 3 2 0 1 0 0 0 0 0 0 0 0 0 0 0 0 0 0 163 501 233 462 251 258 403 485 379 98 237 301 335 167 12 6 9 31
4 3 3 3 5 3 1 1 2 2 2 1 0 0 0 0 0 0 0 0 0 0 0 0 0 0 0 0 135 346 643 226 86 659 534 308 217 383 353 200 239 20 13 15 32
2 4 1 3 3 1 1 2 0 3 4 1 0 0 0 0 0 0 0 0 0 0 0 0 0 0 0 0 0 451 260 175 75 675 506 290 416 337 252 124 120 4 21 19 37
7 9 1 2 2 2 2 0 0 2 0 1 0 0 0 0 0 0 0 0 0 0 0 0 0 0 0 0 0 171 277 204 195 602 640 481 296 195 238 112 96 29 38 20 42
11 9 6 4 5 0 0 0 0 0 0 0 0 0 0 0 0 0 0 0 0 0 0 0 0 0 0 0 0 10 194 166 253 80 318 566 545 314 290 62 60 45 25 43 53
8 7 3 1 0 0 0 0 0 0 0 0 0 0 0 0 0 0 0 0 0 0 0 0 0 0 0 0 6 28 97 241 132 454 681 652 434 262 232 45 25 51 50 44 66
4 4 0 0 0 0 0 0 0 0 0 0 0 0 0 0 0 0 0 0 0 0 0 0 0 0 0 0 0 6 43 148 8 5 81 620 518 501 392 190 124 124 42 70 54
3 3 0 0 0 0 0 0 0 0 0 0 0 0 0 0 0 0 0 0 0 0 0 0 0 0 0 0 0 0 2 139 127 43 3 124 280 514 376 739 423 237 167 82 85
2 2 0 0 0 0 0 0 0 0 0 0 0 0 0 0 0 0 0 0 0 0 0 0 0 0 0 0 0 0 62 66 79 0 103 232 571 606 693 651 644 504 280 178 114
4 0 1 2 0 0 0 0 0 0 9 0 0 0 0 0 0 0 0 0 0 0 0 0 0 0 0 0 0 0 146 7 35 22 27 14 352 106 0 543 670 678 499 167 95
0 0 0 0 0 0 0 0 0 0 71 0 0 0 0 0 0 0 0 0 0 0 0 0 0 0 0 0 0 10 17 63 32 5 19 0 21 391 9 10 544 587 450 414 410
0 0 0 0 0 0 0 0 9 52 101 34 12 0 0 0 7 6 0 0 4 9 0 0 0 0 0 0 0 0 1 106 62 0 3 37 66 275 3 24 1 875 712 615 608
0 0 0 0 0 0 0 51 143 54 17 48 0 0 6 11 11 59 0 15 4 30 38 0 30 0 0 0 0 0 23 99 53 31 11 1 258 69 0 241 105 735 563 207 89
0 0 0 3 0 0 14 119 20 0 21 7 0 1 0 0 42 56 21 10 6 149 52 17 52 0 21 28 49 6 0 54 73 38 65 224 68 86 222 293 375 420 610 801 435
0 0 18 0 0 2 95 1 78 7 0 0 12 0 0 0 25 129 64 75 21 11 5 42 68 49 0 0 0 5 7 5 29 88 114 280 174 287 323 382 263 220 145 300 356
0 4 9 0 0 79 41 35 0 0 0 37 3 0 0 0 14 15 39 41 0 0 0 1 19 0 0 0 0 0 0 0 22 63 90 189 201 274 242 307 214 149 164 101 31
0 52 0 0 12 35 1 102 0 0 0 0 4 0 0 0 6 33 2 0 0 0 0 31 13 12 0 0 0 1 32 27 8 45 151 241 151 74 164 234 132 32 35 4 0
2 0 0 0 72 39 0 0 0 1 21 3 1 0 0 0 0 0 3 0 0 0 0 0 11 84 1 0 0 0 0 2 5 31 214 43 176 181 296 183 43 5 2 0 6
6 20 0 0 1 32 18 0 0 0 2 13 27 0 2 5 0 14 0 0 0 0 0 0 0 21 4 25 0 0 0 0 0 0 56 265 302 250 156 135 51 3 0 0 3
6 0 0 3 0 0 0 0 0 0 0 0 7 33 16 23 0 7 6 0 0 0 0 0 0 0 1 0 0 0 0 0 0 0 383 437 309 292 104 43 29 8 6 3 2
0 0 0 0 0 0 0 0 0 0 0 0 26 7 9 90 85 17 3 6 0 0 0 0 0 0 0 0 0 0 0 0 0 0 168 254 148 119 35 34 23 13 7 6 5
0 0 1 0 2 0 0 0 0 0 0 0 0 0 30 6 0 0 35 18 22 21 12 4 6 0 0 0 0 0 0 0 0 0 523 428 61 23 76 8 20 14 7 4 2

GFSSW_con_sbcape_093.txt.gz
CAPE
2 3 4 4 3 3 4 3 3 3 2 2 2 1 3 2 0 0 0 0 0 0 0 0 0 0 0 0 9 150 158 216 356 243 612 355 40 191 220 332 21 0 0 0 32
4 5 5 4 3 4 4 5 3 4 2 2 2 1 2 0 0 0 0 0 0 0 0 0 0 0 0 0 3 327 102 394 693 352 472 223 96 109 311 409 185 1 1 5 27
6 5 4 2 4 4 5 4 3 3 4 2 2 2 1 0 0 0 0 0 0 0 0 0 0 0 0 0 227 255 162 383 780 478 189 111 105 169 362 227 21 0 0 4 45
2 4 1 0 3 2 2 1 0 2 3 3 1 2 1 0 0 0 16 0 0 0 0 0 0 0 0 0 337 13 40 394 761 523 167 93 367 392 188 110 77 0 0 1 29
1 1 1 2 0 2 1 0 1 0 3 2 1 1 0 0 0 0 0 0 0 0 0 0 0 0 0 0 400 376 551 293 654 443 305 144 127 312 162 171 459 0 0 2 14
2 3 1 1 2 1 1 0 4 2 4 3 1 1 0 0 0 0 0 0 0 0 0 0 0 0 0 0 345 158 93 287 412 316 302 27 68 62 66 67 256 0 0 0 11
2 2 2 1 1 1 0 1 2 3 2 5 1 0 0 0 0 0 0 0 0 0 0 0 0 0 0 0 106 6 6 137 475 408 152 69 127 137 194 179 1 0 1 5 17
4 11 11 1 2 1 2 3 2 2 0 0 1 0 0 0 0 0 0 0 0 0 0 0 0 0 0 0 91 135 289 152 615 432 273 219 203 322 176 290 7 2 6 9 31
1 1 3 3 5 5 1 0 0 2 2 2 0 0 0 0 0 0 0 0 0 0 0 0 0 0 0 0 0 138 266 241 623 400 264 394 330 292 157 124 45 1 1 11 16
4 1 3 5 3 0 0 0 0 0 0 0 0 0 0 0 0 0 0 0 0 0 0 0 0 0 0 0 0 0 152 146 159 37 2 124 186 232 147 66 24 1 0 7 5
1 1 4 3 2 0 0 0 0 0 0 0 0 0 0 0 0 0 0 0 0 0 0 0 0 0 0 0 0 0 55 128 6 4 1 175 158 198 143 39 3 3 0 9 5
2 0 4 1 1 0 0 0 0 0 0 0 0 0 0 0 0 0 0 0 0 0 0 0 0 0 0 0 0 0 0 148 55 27 44 148 212 199 195 42 11 7 3 5 0
1 0 1 1 0 0 0 0 0 0 0 0 0 0 0 0 0 0 0 0 0 0 0 0 0 0 0 0 0 0 0 87 51 60 90 78 72 276 237 113 123 77 49 6 3
2 0 1 1 0 0 0 0 0 0 0 0 0 0 0 0 0 0 0 0 0 0 0 0 0 0 0 0 0 0 0 36 89 53 21 13 5 0 131 173 147 56 96 42 7
4 3 0 0 0 0 0 0 0 0 0 0 0 0 0 0 0 0 0 0 0 0 0 0 0 0 0 0 0 0 122 221 122 32 235 93 10 111 50 197 148 77 205 118 45
1 1 0 0 0 0 0 0 0 0 9 3 0 0 0 0 0 0 0 0 0 0 0 0 0 0 0 0 0 0 20 111 84 38 7 143 137 51 53 218 337 378 264 239 129
0 0 0 0 0 0 0 0 0 0 25 25 0 1 0 0 0 0 0 0 0 0 0 0 0 0 0 0 0 0 0 0 39 23 0 0 130 82 60 32 120 71 61 367 181
0 0 0 0 0 0 0 0 102 35 1 0 1 2 0 0 0 1 0 0 0 0 0 0 0 0 0 0 0 0 0 0 2 0 0 28 91 52 39 24 213 447 299 163 137
0 0 0 0 0 0 1 44 134 9 7 3 0 0 0 1 0 3 1 0 0 2 1 0 0 0 0 0 0 1 0 0 0 0 13 228 43 0 1 0 137 283 113 145 257
0 0 0 0 0 0 0 8 9 13 0 0 0 0 3 0 2 4 1 25 16 0 5 15 0 0 0 0 0 0 0 0 0 4 76 160 87 56 139 259 262 164 101 82 193
0 0 0 6 41 0 4 16 38 0 0 1 9 0 0 3 19 11 11 8 0 0 0 0 0 1 27 0 0 0 0 0 0 0 31 79 57 127 68 55 66 52 17 15 37
0 0 4 0 52 41 1 14 24 0 0 0 4 3 0 0 2 7 0 0 0 0 0 0 0 0 0 0 0 0 0 0 0 0 25 105 68 41 11 16 5 4 2 1 2
0 2 0 0 87 7 23 12 0 0 0 0 1 10 0 0 1 0 0 0 0 0 0 0 0 0 5 0 0 0 0 0 0 0 59 35 80 212 69 42 2 0 4 0 1
0 20 3 3 32 38 50 0 0 0 4 6 12 0 0 0 0 0 0 0 0 0 0 0 0 0 0 0 0 0 0 0 0 11 71 68 174 78 89 0 0 0 1 0 0
0 0 0 0 0 0 1 0 0 0 0 0 9 7 22 0 13 5 7 0 0 0 0 0 0 0 0 0 0 0 0 0 0 228 3 84 274 143 149 6 0 0 0 0 0
0 0 0 0 0 0 0 0 0 0 0 0 0 0 2 5 0 0 0 9 0 0 0 0 0 0 0 0 0 0 0 0 0 483 135 132 254 84 32 0 0 8 5 4 1
32 0 98 11 3 0 0 0 0 0 0 0 0 0 0 0 0 0 0 0 0 0 0 0 0 0 0 0 0 0 0 0 0 448 445 342 131 46 4 0 0 1 0 0 0

GFSSW_con_sbcape_096.txt.gz
CAPE
3 5 5 4 5 7 3 3 4 4 5 5 2 2 2 2 0 0 0 0 0 0 0 0 0 0 0 0 0 178 239 227 132 116 186 197 47 117 120 4 3 0 0 0 58
1 3 5 6 1 1 0 1 3 4 4 5 4 2 2 1 0 0 0 0 0 0 0 0 0 0 0 0 0 134 159 248 214 167 219 163 86 92 234 57 24 1 33 18 2
1 1 1 1 0 1 1 1 1 2 4 3 3 3 1 0 0 0 0 0 0 0 0 0 0 0 0 0 223 71 168 61 333 325 282 113 154 197 175 31 0 0 6 5 0
1 1 1 1 1 1 1 1 1 1 0 5 4 2 0 0 0 0 0 0 0 0 0 0 0 0 0 0 49 0 0 56 483 450 197 66 74 138 130 140 1 4 6 17 0
2 1 1 1 1 1 1 1 1 0 0 4 4 0 0 0 0 0 5 0 0 0 0 0 0 0 0 6 0 5 8 124 306 233 169 249 199 106 48 74 12 0 15 15 22
1 3 1 1 1 1 1 1 1 0 1 5 3 1 0 0 0 0 0 0 0 0 0 0 0 0 0 12 130 129 301 147 331 289 229 178 146 31 44 141 4 0 7 16 24
1 7 1 1 1 0 1 0 2 2 0 0 2 0 0 0 0 0 0 0 0 0 0 0 0 0 0 0 5 206 132 373 503 226 147 143 120 16 6 81 1 0 2 36 32
1 1 2 3 3 3 6 3 2 2 0 0 2 0 0 0 0 0 0 0 0 0 0 0 0 0 0 0 0 73 163 166 314 235 146 139 185 31 17 164 10 9 4 4 52
2 3 2 2 5 4 1 0 0 1 2 2 0 0 0 0 0 0 0 0 0 0 0 0 0 0 0 0 0 60 87 157 411 165 165 236 157 66 123 213 0 3 3 20 36
2 1 3 5 6 0 0 0 0 0 0 0 0 0 0 0 0 0 0 0 0 0 0 0 0 0 0 0 0 0 85 99 261 250 90 104 239 148 153 273 0 3 0 23 24
1 2 1 1 2 0 0 0 0 0 0 0 0 0 0 0 0 0 0 0 0 0 0 0 0 0 0 0 0 0 0 39 45 212 59 119 278 253 170 162 109 6 0 13 20
1 0 0 0 2 0 0 0 0 0 0 0 0 0 0 0 0 0 0 0 0 0 0 0 0 0 0 0 0 0 0 214 144 76 127 32 339 228 210 76 129 0 0 0 15
2 3 3 1 1 0 0 0 0 0 0 0 0 0 0 0 0 0 0 0 0 0 0 0 0 0 0 0 0 0 0 149 211 7 0 21 95 142 284 188 27 62 2 0 2
3 1 0 0 0 0 0 0 0 0 0 0 0 0 0 0 0 0 0 0 0 0 0 0 0 0 0 0 0 0 0 87 349 128 121 14 1 1 3 138 115 143 122 5 3
2 2 0 0 0 0 0 0 0 0 0 0 0 0 0 0 0 0 0 0 0 0 0 0 0 0 0 0 0 0 0 123 263 26 78 12 0 2 0 74 136 215 133 47 0
0 0 0 0 0 0 0 0 0 0 0 0 0 0 0 0 0 0 0 0 0 0 0 0 0 0 0 0 0 0 113 123 60 1 16 15 73 103 6 65 145 156 84 172 54
0 0 0 0 0 0 0 0 0 0 0 1 0 0 0 0 0 0 0 0 0 0 0 0 0 0 0 0 0 0 0 0 42 18 2 39 120 23 70 152 190 185 164 112 232
0 0 0 0 0 0 0 0 0 5 0 0 1 0 0 0 0 0 0 0 0 0 0 0 0 0 0 0 0 0 0 0 52 19 0 80 77 3 167 402 177 364 345 171 156
0 0 0 0 0 0 0 0 0 0 0 0 0 0 0 0 0 3 0 0 0 0 0 0 0 0 0 0 0 0 0 0 0 0 4 14 4 3 21 125 431 260 89 99 268
0 0 0 0 0 0 0 0 0 0 0 0 0 0 1 1 1 0 0 2 0 0 0 0 0 0 0 0 0 0 0 0 0 0 12 41 37 14 0 182 250 108 51 99 260
0 0 0 0 0 0 0 0 0 4 0 0 0 0 0 0 0 1 2 1 0 0 0 0 0 0 0 0 0 0 0 0 0 0 7 93 81 298 189 287 172 61 52 53 46
0 0 0 0 0 0 0 0 1 0 0 0 0 0 0 0 1 15 25 1 0 0 0 0 0 0 0 0 0 0 0 0 0 0 0 12 141 211 92 64 14 34 3 3 11
0 0 0 0 2 0 0 0 0 0 0 0 0 0 0 0 0 4 21 5 0 0 0 0 0 0 0 0 0 0 0 0 0 0 1 6 104 153 32 3 11 2 2 4 2
0 0 0 0 0 0 0 0 0 0 0 0 0 0 0 0 0 0 0 0 0 0 3 0 0 0 0 0 0 0 0 0 0 17 4 44 132 100 17 5 3 0 1 1 0
0 0 0 0 0 0 0 0 0 0 0 0 4 0 0 0 1 0 0 0 0 0 0 0 0 0 0 0 0 0 0 0 3 2 0 211 203 0 2 2 0 0 0 0 0
0 0 0 0 0 0 0 0 0 0 0 0 0 0 0 2 1 0 0 0 0 0 0 0 0 0 0 0 0 0 0 1 52 108 194 215 165 28 0 0 0 0 0 0 1
0 0 0 0 0 0 0 0 0 0 0 0 0 0 0 0 0 0 0 0 0 0 0 0 0 0 0 0 0 0 0 0 51 174 326 205 117 73 66 9 0 0 0 0 0

GFSSW_con_sbcape_099.txt.gz
CAPE
0 0 4 2 4 1 0 4 0 1 1 2 4 2 5 4 0 0 0 0 0 0 6 0 0 0 0 0 0 192 141 64 116 165 74 143 72 193 180 8 0 18 14 9 153
1 1 1 1 1 1 1 1 0 0 0 1 4 5 5 4 0 0 0 0 0 0 0 0 0 0 0 0 0 4 31 155 116 110 135 147 49 181 69 16 44 14 60 153 205
1 1 4 2 1 1 1 1 1 1 0 0 0 5 4 1 0 0 0 0 0 0 0 0 0 0 0 0 12 106 145 68 50 61 170 106 105 317 19 71 10 37 99 119 135
2 3 2 1 1 1 2 1 1 0 0 0 1 4 1 0 0 0 0 0 0 0 0 0 0 0 0 0 60 6 0 135 217 136 192 135 153 398 62 83 37 100 92 107 120
5 4 3 4 3 2 3 1 1 1 0 0 3 3 0 0 0 0 161 0 0 0 0 0 0 0 0 0 0 0 30 240 408 337 152 143 173 172 16 135 34 59 7 48 103
4 2 2 2 1 5 3 2 1 0 0 1 2 1 0 0 0 0 0 0 0 0 0 0 0 0 0 0 0 44 141 55 454 258 176 67 125 99 149 149 28 40 0 25 72
1 2 1 0 2 2 3 2 2 2 0 0 0 0 0 0 0 0 0 0 0 0 0 0 0 0 0 0 1 367 150 195 536 244 183 70 54 39 45 12 8 19 30 16 15
3 3 1 4 3 6 6 4 4 0 0 0 1 0 0 0 0 0 0 0 0 0 0 0 0 0 0 0 0 269 140 154 359 225 243 118 83 23 24 54 5 0 6 27 6
2 1 1 2 2 5 2 1 1 2 0 0 0 0 0 0 0 0 0 0 0 0 0 0 0 0 0 0 0 21 59 144 308 264 205 108 52 2 60 152 1 6 10 5 68
6 1 0 0 0 3 0 0 0 0 0 0 0 0 0 0 0 0 0 0 0 0 0 0 0 0 0 0 0 0 15 183 229 307 200 109 134 13 50 62 13 1 4 3 70
1 0 0 1 0 1 0 0 0 0 0 0 0 0 0 0 0 0 0 0 0 0 0 0 0 0 0 0 0 0 0 151 132 270 79 149 173 8 76 118 0 0 3 32 78
1 0 0 0 0 0 0 0 0 0 0 0 0 0 0 0 0 0 0 0 0 0 0 0 0 0 0 0 0 0 14 229 143 45 158 240 214 154 172 105 10 0 1 10 62
3 0 1 3 0 0 0 0 0 0 0 0 0 0 0 0 0 0 0 0 0 0 0 0 0 0 0 0 0 0 0 251 272 71 46 82 92 282 189 187 146 10 0 10 32
1 2 1 1 0 0 0 0 0 0 0 0 0 0 0 0 0 0 0 0 0 0 0 0 0 0 0 0 0 0 0 40 191 3 4 1 11 0 55 83 109 57 0 3 2
1 1 1 0 0 0 0 0 0 0 0 0 0 0 0 0 0 0 0 0 0 0 0 0 0 0 0 0 0 0 0 132 107 79 3 0 0 0 0 1 58 22 35 0 0
1 0 0 0 0 0 0 0 0 0 0 0 0 0 0 0 0 0 0 0 0 0 0 0 0 0 0 0 0 0 38 37 1 0 0 0 0 0 0 1 59 115 97 9 0
0 0 0 0 0 0 0 0 0 0 0 0 0 0 0 0 0 0 0 0 0 0 0 0 0 0 0 0 0 0 5 11 15 0 0 0 13 0 4 0 110 109 108 15 0
0 0 0 0 0 0 0 0 0 6 0 0 0 0 0 0 0 0 0 0 0 0 0 0 0 0 0 0 0 0 0 1 6 0 1 11 14 0 30 49 118 114 179 297 81
0 0 0 0 0 0 0 0 0 0 0 0 0 0 0 0 0 0 0 0 0 0 0 0 0 0 0 0 0 0 0 0 0 0 0 0 0 0 156 258 179 135 191 185 147
0 0 0 0 0 0 0 0 0 0 0 0 0 0 0 0 0 0 4 0 0 0 0 0 0 0 0 0 0 0 0 0 0 0 0 1 0 7 120 317 111 39 53 68 322
0 0 0 0 0 0 0 0 0 0 0 0 0 0 0 22 0 1 9 0 0 0 0 0 0 0 0 0 0 0 0 0 0 0 0 8 0 216 4 107 58 75 44 46 49
0 0 0 0 0 0 0 0 0 1 0 0 0 0 0 5 65 15 25 2 0 0 0 0 0 0 0 0 0 0 0 0 0 0 0 2 4 228 151 45 33 5 12 5 13
0 0 0 0 0 0 0 0 5 0 0 0 0 0 0 4 5 6 6 12 0 0 0 0 0 0 2 0 0 0 0 0 0 0 6 0 46 211 63 16 15 1 4 3 2
0 0 0 0 0 0 0 0 0 0 0 0 0 0 0 0 0 0 0 0 0 0 14 0 0 0 0 0 0 0 0 0 0 0 0 0 160 222 126 73 2 2 3 1 1
0 0 0 0 0 0 0 0 0 0 0 0 10 0 0 0 0 0 0 0 0 0 0 0 0 0 0 0 0 0 0 0 0 0 0 47 193 156 62 26 0 0 0 0 0
0 0 0 0 0 0 0 0 0 0 0 0 0 0 0 0 0 0 0 0 0 0 0 0 0 0 0 0 0 0 0 0 14 121 80 166 148 120 19 0 0 0 0 0 0
0 0 0 0 0 0 0 0 0 0 0 0 0 0 0 0 0 0 0 0 0 0 0 0 0 0 0 0 0 0 0 0 43 265 205 118 88 73 38 31 4 0 0 0 0

GFSSW_con_sbcape_102.txt.gz
CAPE
1 1 1 2 0 0 1 1 0 0 1 0 2 3 1 4 1 0 0 0 0 0 0 0 0 0 0 0 0 168 149 70 0 102 92 162 97 189 44 1 0 22 1 57 97
1 1 1 1 2 2 1 0 0 0 0 0 0 1 4 4 1 0 0 0 0 0 0 0 0 0 0 0 0 3 62 63 46 94 55 112 114 108 0 0 9 61 53 147 195
2 1 3 4 3 1 2 0 0 0 0 1 0 0 4 1 0 0 0 0 0 7 0 0 0 0 0 0 0 17 138 168 98 22 44 51 119 135 23 3 0 72 128 184 166
1 3 3 1 3 3 3 1 0 0 0 0 0 3 0 0 0 0 0 0 0 0 0 0 0 0 0 0 59 53 71 28 177 21 140 66 172 67 116 30 44 135 166 151 156
4 1 0 1 0 0 0 2 3 0 0 0 0 2 0 0 0 0 56 0 0 0 0 0 0 0 0 0 6 2 30 211 262 85 159 166 75 26 46 79 109 135 168 151 149
1 2 1 0 0 1 0 2 1 0 1 0 0 2 0 0 0 0 0 0 0 0 0 0 0 0 0 2 0 6 115 82 330 260 157 62 71 1 55 84 114 117 128 128 143
1 2 1 1 1 1 1 0 1 0 0 0 0 1 0 0 0 0 0 0 0 0 0 0 0 0 0 0 0 400 235 243 275 234 182 142 108 88 40 139 121 97 79 152 147
2 4 1 1 3 1 4 6 0 1 0 0 1 0 0 0 0 0 0 0 0 0 0 0 0 0 0 0 0 375 195 96 549 205 118 95 60 139 37 116 94 62 61 99 56
2 2 2 0 1 2 2 2 1 1 0 1 0 0 0 0 0 0 0 0 0 0 0 0 0 0 0 0 0 1 74 90 207 330 181 109 15 79 61 42 54 92 67 52 2
1 1 1 0 0 0 0 0 0 0 0 0 0 0 0 0 0 0 0 0 0 0 0 0 0 0 0 0 0 0 6 135 121 132 315 98 29 9 42 8 44 70 80 7 9
0 0 0 0 0 0 0 0 0 0 0 0 0 0 0 0 0 0 0 0 0 0 0 0 0 0 0 0 0 0 18 201 63 254 33 34 55 0 30 2 6 11 8 13 85
2 1 0 0 0 0 0 0 0 0 0 0 0 0 0 0 0 0 0 0 0 0 0 0 0 0 0 0 0 0 120 224 192 129 144 57 116 16 33 2 12 0 3 41 95
5 1 0 0 0 0 0 0 0 0 0 0 0 0 0 0 0 0 0 0 0 0 0 0 0 0 0 0 0 0 1 159 182 209 125 82 129 63 103 57 6 1 1 29 60
2 4 2 0 0 0 0 0 0 0 0 0 0 0 0 0 0 0 0 0 0 0 0 0 0 0 0 0 0 0 0 305 165 40 54 11 4 101 67 105 117 2 0 4 55
1 3 0 1 0 0 0 0 0 0 0 0 0 0 0 0 0 0 0 0 0 0 0 0 0 0 0 0 0 0 0 225 197 15 0 0 0 0 105 110 48 25 10 0 4
1 2 0 0 0 0 0 0 0 0 0 0 0 0 0 0 0 0 0 0 0 0 0 0 0 0 0 0 0 0 33 0 0 0 12 0 0 0 1 42 57 4 0 0 0
0 0 1 0 0 0 0 0 0 0 0 0 0 0 0 0 0 0 0 0 0 0 0 0 0 0 0 0 0 0 0 3 39 33 13 0 0 0 0 0 61 72 14 0 0
0 0 0 0 0 0 0 0 0 0 0 0 0 0 0 0 0 0 0 0 0 0 0 0 0 0 0 0 0 0 0 0 0 3 0 0 0 0 0 17 29 95 59 0 0
0 0 0 0 0 0 0 0 0 0 0 0 0 0 0 0 0 0 0 0 0 0 0 0 0 0 0 0 0 0 0 0 0 0 16 7 0 0 147 41 117 156 151 22 0
0 0 0 0 0 0 0 0 0 0 0 0 0 0 0 0 0 0 0 0 0 0 0 0 0 0 0 0 0 0 0 0 0 0 0 0 0 0 160 233 81 126 94 129 247
0 0 0 0 0 0 0 0 0 0 0 0 0 0 0 0 0 0 0 0 0 0 0 0 0 0 0 0 0 0 0 0 0 0 0 0 0 63 71 235 128 82 86 64 181
0 0 0 0 0 0 0 0 0 0 0 0 0 0 0 0 9 17 22 0 0 0 0 0 0 0 0 0 0 0 0 0 0 0 0 0 0 94 176 148 120 100 71 66 103
0 0 0 0 0 0 0 0 0 0 0 0 0 0 0 0 0 5 20 39 10 0 0 0 0 0 2 0 0 0 0 0 0 0 0 0 0 242 142 123 41 57 48 8 12
0 0 0 0 0 0 0 0 0 0 0 0 0 0 0 0 0 0 1 0 0 0 2 0 0 0 0 0 0 0 0 0 0 0 0 0 45 374 144 30 63 44 4 7 6
0 0 0 0 0 0 0 0 0 0 0 0 0 0 0 0 0 0 0 0 0 0 0 0 0 0 0 0 0 0 0 0 0 0 26 10 87 227 92 53 25 0 0 4 2
0 0 0 0 0 0 0 0 0 0 0 0 0 0 0 0 0 0 0 0 0 0 0 0 0 0 0 0 0 0 0 0 24 1 61 90 185 122 113 22 10 1 0 0 0
0 0 0 0 0 0 0 0 0 0 0 0 0 0 0 0 0 0 0 0 0 0 0 0 0 0 0 0 0 0 0 2 0 207 178 198 129 104 21 0 13 0 0 0 0

GFSSW_con_sbcape_105.txt.gz
CAPE
1 1 1 1 1 1 1 1 2 1 0 1 0 1 2 3 0 0 0 0 0 0 0 0 0 0 0 13 1 202 168 12 1 65 38 125 39 87 3 8 0 10 5 35 203
1 4 3 3 1 1 1 1 1 1 4 1 0 2 0 2 0 0 0 0 0 0 0 0 0 0 0 0 0 25 135 60 35 71 61 146 34 0 7 7 21 38 57 77 201
2 3 4 3 3 4 2 3 1 1 0 1 1 1 3 2 0 0 0 0 0 0 0 0 0 0 0 0 0 4 141 188 97 84 85 93 70 3 29 30 5 62 59 103 138
2 1 1 1 3 4 0 0 1 1 0 0 3 2 1 0 0 0 0 0 0 0 0 0 0 0 0 0 0 118 145 122 115 101 39 74 40 51 101 0 0 33 96 127 69
3 5 4 4 2 1 2 1 5 2 0 0 0 1 0 0 0 0 0 0 0 0 0 0 0 0 0 0 4 55 62 131 150 90 153 39 51 38 58 0 18 104 76 33 31
3 1 1 0 0 0 0 1 0 0 1 2 1 0 0 0 0 0 0 0 0 0 0 0 0 0 0 0 26 15 114 108 243 135 170 19 18 1 41 73 88 64 59 98 230
1 1 1 2 0 2 1 1 1 0 2 1 0 0 0 0 0 0 0 0 0 0 0 0 0 0 0 0 1 155 157 290 261 177 152 34 4 73 121 96 156 136 201 207 222
2 2 2 1 1 1 1 4 1 0 0 1 0 0 0 0 0 0 0 0 0 0 0 0 0 0 0 0 1 264 182 167 408 185 91 96 90 128 98 220 188 198 239 276 259
1 2 2 1 0 0 0 0 2 1 1 1 0 0 0 0 0 0 0 0 0 0 0 0 0 0 0 0 33 31 58 93 401 294 136 106 152 8 75 173 153 204 211 270 301
2 2 0 0 1 0 0 0 1 1 0 0 0 0 0 0 0 0 0 0 0 0 0 0 0 0 0 0 0 16 71 159 31 176 275 224 233 110 14 35 196 167 198 273 258
1 2 0 2 0 1 0 0 0 0 0 0 0 0 0 0 0 0 0 0 0 0 0 0 0 0 0 0 0 0 0 156 390 181 149 162 309 99 7 45 145 135 158 222 242
1 2 0 0 0 1 0 0 0 0 0 0 0 0 0 0 0 0 0 0 0 0 0 0 0 0 0 0 0 172 324 245 154 46 108 46 140 294 151 142 163 157 200 189 187
3 0 0 0 0 0 0 0 0 0 0 0 0 0 0 0 0 0 0 0 0 0 0 0 0 0 0 0 0 0 2 232 239 156 161 24 118 93 108 60 86 40 175 204 201
3 4 0 0 0 0 0 0 0 0 0 0 0 0 0 0 0 0 0 0 0 0 0 0 0 0 0 0 0 0 0 316 172 97 56 31 29 111 140 53 90 80 19 131 194
3 2 0 0 0 0 0 0 0 0 0 0 0 0 0 0 0 0 0 0 0 0 0 0 0 0 0 0 0 0 0 334 293 210 157 111 47 71 203 166 48 28 56 38 143
1 0 0 0 0 0 0 0 0 0 0 0 0 0 0 0 0 0 0 0 0 0 0 0 0 0 0 0 0 34 140 229 175 152 99 119 115 54 237 320 226 88 68 51 56
0 0 1 0 0 0 0 0 0 0 0 0 0 0 0 0 0 0 0 0 0 0 0 0 0 0 0 0 0 0 50 48 15 39 0 0 126 62 129 98 266 171 140 72 47
0 0 0 0 0 0 0 0 0 0 0 0 0 0 0 0 0 0 0 0 0 0 0 0 0 0 0 0 0 0 0 14 6 0 1 23 119 108 86 95 135 304 206 103 55
0 0 0 0 0 0 0 0 0 0 0 0 0 0 0 0 0 0 0 0 0 0 0 0 0 0 0 0 0 0 0 0 6 0 39 160 75 50 218 375 191 235 290 68 14
0 0 0 0 0 0 0 0 0 0 0 0 0 0 2 3 14 4 0 0 0 0 0 0 0 0 0 0 0 0 0 0 0 15 1 110 132 183 408 267 300 393 352 122 45
0 0 0 0 0 0 0 0 0 0 0 0 0 0 2 19 23 47 4 0 0 0 0 0 0 0 0 0 0 0 0 0 0 0 30 92 166 203 457 522 639 603 443 304 101
0 0 0 0 0 0 0 0 0 0 0 0 0 0 0 1 43 72 8 3 0 0 0 0 0 0 0 0 0 0 0 0 0 0 17 72 149 418 407 556 370 414 561 636 410
0 0 0 0 0 0 0 0 0 0 0 0 0 0 0 10 23 59 49 34 36 0 0 0 2 28 3 0 0 0 0 0 0 15 72 10 93 515 648 600 516 419 422 263 390
0 0 0 0 0 0 0 0 0 0 0 0 0 0 0 5 1 23 13 21 0 10 11 0 0 26 27 6 0 0 0 0 3 3 39 27 315 526 534 514 434 402 324 240 180
0 0 0 0 0 0 0 0 0 0 0 0 0 0 0 47 3 1 0 0 0 0 0 0 25 0 0 0 0 0 18 0 0 0 48 127 510 663 396 263 225 163 84 57 36
0 0 0 0 0 0 0 0 0 0 0 0 0 0 0 67 12 0 0 0 0 0 0 0 38 0 2 0 0 0 13 35 45 9 146 160 512 637 337 341 180 110 48 49 6
0 0 0 0 0 0 0 0 0 0 0 0 0 0 0 0 0 0 0 0 0 0 5 7 72 60 61 0 4 0 0 163 206 263 363 451 539 732 333 243 153 97 44 20 6

GFSSW_con_sbcape_111.txt.gz
CAPE
6 9 3 2 1 5 6 4 1 2 3 2 3 1 0 0 0 0 0 0 0 0 0 0 0 0 0 57 358 352 794 600 269 284 345 244 459 503 319 239 214 143 46 257 238
7 7 5 2 2 3 1 4 5 2 3 2 0 0 0 0 0 0 0 0 0 0 0 0 0 0 6 83 280 224 518 230 323 137 232 296 380 525 394 246 231 86 164 104 186
4 4 4 5 1 1 1 1 4 2 1 2 1 0 0 0 0 0 0 0 0 0 0 0 0 0 6 141 308 130 315 236 190 84 259 222 422 357 341 194 160 174 175 126 71
3 2 3 1 2 4 3 3 2 1 1 1 1 0 0 0 0 0 0 0 0 0 0 0 0 0 0 88 154 279 218 292 173 119 242 209 216 277 241 220 135 203 145 79 19
2 5 4 3 3 2 2 1 1 2 0 0 0 0 0 0 0 0 0 0 0 0 0 0 0 0 0 135 89 253 319 217 78 64 146 182 183 205 181 44 103 128 32 26 21
3 2 2 2 2 2 2 2 2 2 2 1 0 0 0 0 0 0 0 0 0 0 0 0 0 0 1 166 93 250 238 211 90 48 100 120 56 72 35 30 63 16 18 17 15
2 2 1 1 1 1 1 1 0 1 0 0 0 0 0 0 0 0 0 0 0 0 0 0 0 0 22 166 205 87 248 309 85 89 112 18 4 47 12 31 22 16 39 34 12
2 2 2 2 1 1 1 2 1 2 0 0 0 0 0 0 0 0 0 0 0 0 0 0 0 0 5 48 259 132 340 272 163 137 119 42 34 10 62 32 41 50 40 38 63
2 2 1 2 2 2 1 0 2 2 0 0 0 0 0 0 0 0 0 0 0 0 0 0 0 0 54 20 102 212 98 224 173 164 59 106 77 3 88 71 74 70 67 95 122
1 1 1 2 2 0 0 0 0 0 0 0 0 0 0 0 0 0 0 0 0 0 0 0 0 0 94 82 133 187 219 131 176 167 135 105 53 32 69 114 58 71 70 103 105
1 1 3 1 4 0 0 0 0 0 0 0 0 0 0 0 0 0 0 0 0 0 0 0 0 0 76 106 5 3 35 85 104 242 63 59 49 0 134 191 89 64 86 142 119
0 2 1 1 1 2 0 0 0 0 0 0 0 0 0 0 0 0 0 0 0 0 0 0 0 0 45 113 21 0 180 88 191 181 26 34 107 49 71 193 122 88 104 162 122
0 2 1 1 1 0 0 0 0 0 0 0 0 0 0 0 0 0 0 0 0 0 0 0 0 0 17 87 0 1 179 237 257 106 103 13 97 27 45 181 257 102 96 82 147
1 1 1 0 0 0 0 0 0 0 38 1 1 1 0 0 3 0 0 0 0 0 0 0 0 0 15 62 32 10 245 164 192 139 117 76 62 10 98 116 80 119 91 111 125
2 0 1 0 0 0 0 0 0 0 1 3 25 0 1 1 0 0 0 0 0 0 0 0 0 0 1 68 37 14 8 305 211 126 101 53 94 41 26 19 22 182 140 119 197
2 2 1 0 0 0 0 0 0 3 14 26 20 22 1 19 0 0 0 0 0 0 0 3 0 0 0 84 10 1 2 178 182 121 128 66 62 120 206 56 63 100 245 107 117
0 0 0 0 0 0 0 0 15 34 0 15 27 9 18 41 41 0 0 0 0 0 0 1 0 0 0 43 0 0 66 223 160 137 153 103 120 53 133 87 109 125 150 257 161
0 0 0 0 0 0 0 9 34 10 33 0 23 26 55 69 43 22 3 0 1 0 3 0 0 0 0 16 2 8 114 207 148 113 100 144 158 155 61 122 166 129 126 175 282
0 0 0 0 0 0 3 74 53 50 27 40 2 60 74 44 37 67 67 46 15 0 7 8 2 0 0 0 3 1 83 207 31 63 174 165 230 394 282 274 401 291 157 119 318
0 0 0 0 0 0 30 0 0 0 1 2 10 25 80 59 30 33 34 65 25 0 0 30 32 10 0 0 0 0 26 67 142 78 26 144 98 140 456 496 556 605 212 222 298
0 19 0 0 0 6 50 3 0 0 0 21 28 31 26 49 48 91 38 17 0 6 0 3 3 33 0 0 0 0 0 10 74 108 64 90 273 318 615 520 577 641 698 392 392
1 36 0 0 10 7 14 2 0 0 0 0 2 35 31 24 65 51 95 37 5 29 2 0 20 1 20 2 0 0 0 0 7 32 23 2 88 57 709 797 842 749 699 826 772
39 0 0 0 53 8 0 0 0 1 0 0 27 5 7 65 74 114 98 34 3 4 66 66 3 77 29 25 0 0 0 0 1 18 47 60 494 908 1030 1068 1069 1023 968 1024 1084
2 14 0 0 0 13 0 0 0 0 0 0 0 0 8 23 37 91 98 33 0 62 13 3 13 78 65 19 2 30 0 11 7 32 26 31 959 1162 1316 1228 1432 1372 1195 1215 1294
0 36 4 21 0 0 0 0 0 0 0 0 0 5 22 86 79 54 94 87 48 12 43 33 64 24 3 7 56 26 3 0 15 11 82 85 119 659 1267 1288 1244 1249 1398 1557 1564
49 12 0 1 0 0 0 0 0 0 0 0 4 0 16 122 154 131 108 144 168 150 120 104 99 62 129 1 5 52 42 31 19 12 3 11 20 255 1129 1373 1212 1121 1166 1193 1017
0 22 42 2 0 0 7 0 0 0 0 0 0 0 30 30 3 25 2 50 154 215 210 238 216 168 165 78 25 58 41 58 65 53 42 181 737 126 1284 1434 1080 820 785 731 798

GFSSW_con_sbcape_114.txt.gz
CAPE
1 5 5 4 3 3 2 2 2 3 2 1 1 0 1 0 0 0 0 0 0 0 0 0 0 0 0 29 197 437 794 468 219 116 138 557 387 326 185 131 46 33 1 45 75
6 5 3 4 2 2 2 1 1 2 3 2 0 0 0 0 0 0 0 0 0 0 0 0 0 0 0 11 211 508 454 466 390 312 197 528 319 341 244 157 79 35 45 41 69
1 1 3 2 2 1 1 0 0 0 0 2 0 0 0 0 0 0 0 0 0 0 0 0 0 0 0 33 335 291 451 449 393 371 295 516 222 176 131 119 105 112 25 60 37
1 3 3 2 2 1 1 2 1 0 0 0 0 0 0 0 0 0 0 0 0 0 0 0 0 0 0 15 210 353 252 411 278 187 279 336 411 223 115 196 73 90 25 19 24
3 3 3 1 1 1 2 2 1 2 1 1 0 0 0 0 0 0 0 0 0 0 0 0 0 0 0 31 94 247 335 370 180 198 145 43 174 348 119 143 61 101 43 4 27
1 2 3 2 1 1 2 1 1 1 2 1 0 0 0 0 0 0 0 0 0 0 0 0 0 0 0 1 156 311 394 308 136 130 97 141 91 181 107 61 72 52 37 18 26
2 1 2 2 2 2 2 1 1 2 2 1 0 0 0 0 0 0 0 0 0 0 0 0 0 0 0 65 219 468 388 167 88 108 116 81 24 113 26 58 70 55 35 32 36
2 2 1 2 2 2 1 0 1 1 1 0 0 0 0 0 0 0 0 0 0 0 0 0 0 0 0 7 171 337 250 191 95 106 89 51 58 163 32 57 81 63 46 33 46
0 0 0 1 3 2 2 0 0 1 0 0 0 0 0 0 0 0 0 0 0 0 0 0 0 0 0 0 136 398 173 115 135 102 138 70 107 50 133 63 75 85 53 28 66
0 0 0 0 2 3 0 0 0 0 0 0 0 0 0 0 0 0 0 0 0 0 0 0 0 0 0 13 73 137 244 115 138 183 176 117 130 1 84 151 74 93 50 66 40
0 0 0 2 0 2 0 0 0 0 0 0 0 0 0 0 0 0 0 0 0 0 0 0 0 0 0 59 48 24 93 130 96 121 70 12 19 41 112 97 143 97 66 87 57
0 0 0 0 0 0 0 0 0 0 0 0 0 0 0 0 0 0 0 0 0 0 0 0 0 0 0 55 22 34 149 164 215 70 38 23 27 30 44 87 173 99 97 62 60
0 1 0 0 0 0 0 0 0 0 0 0 0 0 0 0 0 0 0 0 0 0 0 0 0 0 0 2 60 107 157 247 186 91 45 22 37 0 3 54 111 167 95 94 94
3 2 0 0 0 0 0 0 0 0 3 3 0 1 0 0 0 0 0 0 0 0 0 0 0 0 0 19 98 144 353 150 220 42 93 37 26 31 10 70 106 195 138 139 49
1 0 0 0 0 0 0 0 0 0 37 7 2 0 1 0 0 0 0 0 0 0 0 0 0 0 0 0 156 8 87 322 122 116 86 96 27 59 4 14 98 123 127 94 204
0 1 0 0 0 0 0 0 0 10 53 2 5 2 0 1 8 0 0 0 0 0 0 0 0 0 0 13 50 0 206 49 34 58 109 69 25 1 10 2 25 98 108 110 43
0 0 1 0 0 0 0 0 1 83 0 18 23 1 7 42 8 0 0 0 0 0 0 0 1 2 0 0 114 14 113 229 131 207 126 52 56 16 23 9 5 8 66 110 55
0 0 0 0 0 0 0 0 54 26 11 0 0 29 3 4 17 0 0 0 0 0 0 0 0 0 0 0 77 15 9 158 94 109 78 47 37 55 3 36 57 41 53 164 207
0 0 0 0 0 0 0 25 45 20 1 28 1 12 40 28 31 3 13 3 1 0 2 14 0 0 0 0 11 13 7 33 224 16 111 0 26 72 74 36 32 47 79 164 139
0 0 0 0 0 0 1 0 0 0 0 2 32 25 50 13 20 28 65 53 26 2 0 4 5 1 1 0 0 0 14 40 197 93 14 33 66 79 191 136 246 161 166 223 145
0 2 0 0 0 0 35 0 0 0 0 1 24 6 10 37 25 50 48 16 17 0 0 0 0 4 11 0 0 0 0 0 16 107 95 68 259 279 273 12 578 314 305 214 54
0 3 0 0 0 35 12 0 0 0 0 0 0 0 33 39 64 42 15 28 0 0 2 0 0 4 9 0 0 0 0 0 2 5 15 66 48 45 194 318 536 519 412 500 293
0 35 0 0 11 18 0 0 0 1 0 0 15 0 1 4 30 22 11 8 0 0 0 2 3 0 7 5 9 0 0 0 0 0 26 0 255 240 314 504 736 701 714 594 456
0 21 0 0 0 10 0 2 0 0 0 0 0 0 4 7 3 2 57 5 0 0 0 0 0 26 9 6 24 18 34 0 0 0 0 0 313 188 244 1061 795 1022 985 491 353
0 6 10 4 9 1 0 0 0 0 0 0 0 0 5 66 88 55 78 29 9 53 0 0 0 0 0 0 0 0 2 31 0 0 0 3 487 504 581 1040 1173 1217 1345 812 999
0 52 63 3 0 0 0 0 0 0 0 0 0 9 0 50 96 47 80 52 54 67 79 26 16 0 2 0 10 0 2 20 14 0 0 0 19 142 949 6 0 1441 1608 1697 1013
8 0 18 18 0 0 4 1 0 0 0 0 0 0 59 29 0 0 0 0 53 129 42 75 140 136 84 71 1 0 24 6 48 21 79 78 1103 423 5 0 0 939 1396 1194 952

GFSSW_con_sbcape_120.txt.gz
CAPE
2 1 3 4 3 3 2 2 3 3 4 5 2 4 3 3 0 0 0 0 0 0 0 0 0 0 0 0 0 654 99 72 19 45 79 327 61 108 22 13 5 0 70 71 167
2 3 4 2 4 3 3 3 3 4 4 2 3 3 2 2 0 0 0 0 0 0 0 0 0 0 0 0 0 225 39 101 15 4 100 391 337 23 13 1 6 18 0 47 97
4 4 4 3 3 4 4 4 4 4 4 3 3 1 0 0 0 0 0 0 0 0 0 0 0 0 0 0 17 273 130 550 5 16 212 111 150 71 44 6 59 49 28 48 115
1 1 4 4 3 4 3 4 4 2 4 1 3 2 0 0 0 0 0 0 0 0 0 0 0 0 0 0 4 471 526 671 468 243 147 281 144 134 83 47 56 46 61 49 42
2 2 4 4 3 3 3 3 2 3 3 3 3 0 0 0 0 0 0 0 0 0 0 0 0 0 0 0 175 345 463 485 427 189 112 53 79 209 139 126 71 30 73 11 22
2 1 1 2 2 3 3 3 3 3 3 2 2 0 0 0 0 0 0 0 0 0 0 0 0 0 0 0 142 557 375 251 184 44 1 10 11 84 161 59 29 24 2 3 26
0 0 1 2 3 2 0 3 2 3 2 2 1 0 0 0 0 0 0 0 0 0 0 0 0 0 0 26 446 503 296 206 168 31 0 8 30 74 117 48 54 0 0 0 21
0 0 0 0 2 1 0 0 1 1 1 1 0 0 0 0 0 0 0 0 0 0 0 0 0 0 0 101 222 312 104 76 107 132 58 56 25 102 85 38 26 4 2 1 60
0 0 0 0 1 0 0 0 0 0 1 0 0 0 0 0 0 0 0 0 0 0 0 0 0 0 0 0 0 1 0 117 78 122 82 61 47 24 38 110 1 0 11 30 78
0 0 1 3 3 0 0 0 0 0 0 0 0 0 0 0 0 0 0 0 0 0 0 0 0 0 0 0 0 0 24 30 39 84 47 53 74 11 0 59 83 7 15 31 35
0 0 2 3 3 1 0 0 0 0 0 0 0 0 0 0 0 0 0 0 0 0 0 0 0 0 0 0 0 145 86 62 56 100 61 61 12 23 0 16 114 136 19 28 42
2 2 0 0 1 0 0 0 0 0 0 0 0 0 0 0 0 0 0 0 0 0 0 0 0 0 0 0 0 157 104 128 122 81 80 39 22 11 0 7 78 115 88 20 13
2 1 1 0 1 0 0 0 0 0 0 0 0 0 0 0 0 0 0 0 0 0 0 0 0 0 0 0 34 59 57 85 121 114 26 21 2 0 5 22 16 66 101 16 20
1 3 0 2 0 0 0 0 0 0 0 0 0 0 0 0 0 0 0 0 0 0 0 0 0 0 0 0 95 222 304 188 196 86 50 12 0 0 0 8 13 21 52 69 22
3 3 0 0 0 0 0 0 0 0 0 0 0 0 0 0 0 0 0 0 0 0 0 0 0 0 0 0 200 263 302 304 176 16 35 13 11 1 1 3 9 31 43 60 27
2 3 0 0 0 0 0 0 0 0 0 0 0 0 0 0 0 0 0 0 0 0 0 0 0 0 1 79 227 326 188 110 58 35 7 12 15 17 1 0 9 27 26 25 30
0 0 0 0 0 0 0 0 0 3 0 0 0 0 0 0 0 0 0 0 0 0 0 0 0 111 738 505 429 263 107 23 26 29 38 25 32 7 15 11 1 13 8 0 18
0 0 0 0 0 0 0 0 0 2 0 0 2 1 5 0 0 0 0 0 0 0 0 0 0 9 267 416 254 213 28 0 0 70 80 28 32 0 0 0 1 1 34 8 73
0 0 0 0 0 0 0 0 0 0 0 0 0 0 0 1 10 0 0 0 0 0 0 0 0 1 0 180 216 151 137 14 18 7 9 48 28 6 0 0 0 0 9 1 92
0 0 0 0 0 0 0 0 0 0 0 0 0 0 1 0 0 3 4 1 0 0 0 0 0 0 0 7 157 47 1 8 27 70 15 49 8 0 0 20 0 0 0 4 51
0 0 0 0 0 0 0 0 0 0 0 0 0 0 0 0 8 15 29 27 0 0 0 0 0 0 0 0 0 0 0 0 5 10 99 69 51 2 0 13 0 0 1 0 4
0 0 0 0 0 0 0 0 0 0 0 0 0 0 0 0 0 0 4 2 0 0 0 0 0 0 0 0 0 0 0 0 0 0 6 2 0 28 0 68 9 5 0 0 4
0 0 0 0 0 0 0 0 0 0 0 0 0 0 0 0 0 4 4 16 0 0 0 0 0 0 0 0 0 6 0 0 0 0 0 0 0 78 9 47 60 18 24 1 27
0 0 0 0 0 0 0 0 0 0 0 0 0 0 0 0 0 0 1 0 0 0 384 0 0 0 0 0 0 0 0 2 0 0 0 0 0 124 96 39 35 14 100 42 10
0 0 0 0 0 0 0 0 0 0 0 0 0 0 0 0 0 0 0 0 0 16 0 0 0 0 0 1 3 0 9 21 8 1 64 78 95 48 66 91 174 269 299 116 34
0 0 0 0 0 0 0 0 0 0 0 0 0 0 0 0 0 0 0 0 0 0 0 0 0 0 0 0 0 0 3 66 21 44 54 153 90 0 3 0 41 374 340 370 185
0 0 0 0 0 0 0 0 0 0 0 0 0 0 0 0 0 0 0 0 0 0 0 0 0 0 2 0 0 0 0 52 41 258 262 227 196 0 0 19 0 28 30 229 178

GFSSW_con_sbcape_123.txt.gz
CAPE
5 3 3 2 0 1 0 0 0 0 2 4 4 3 4 2 0 0 0 0 0 0 0 0 0 0 0 0 0 209 106 76 25 60 103 294 151 49 38 109 93 149 146 203 189
1 3 1 2 0 1 0 0 0 0 0 2 5 4 1 0 0 0 0 0 0 0 0 0 0 0 0 0 0 172 28 88 40 41 127 358 154 24 30 24 127 127 101 143 101
2 3 3 0 0 0 0 1 0 0 1 1 1 5 2 0 0 0 0 0 0 0 0 0 0 0 0 0 4 183 116 180 5 7 151 226 89 0 16 35 80 134 144 129 179
3 1 3 1 1 1 0 0 0 0 1 0 1 3 0 0 0 0 0 0 0 0 0 0 0 0 0 0 0 371 623 215 84 10 105 106 115 128 80 68 67 132 147 177 220
3 2 3 3 3 3 2 1 3 1 0 0 2 1 0 0 0 0 66 0 0 0 0 0 0 0 0 0 40 210 586 489 281 61 117 112 123 173 105 243 41 124 158 174 214
2 1 0 1 2 2 3 2 2 2 0 2 2 0 0 0 0 0 0 0 0 0 0 0 0 0 0 0 58 461 381 214 42 62 53 30 7 93 217 292 68 91 108 142 215
1 1 0 1 1 1 2 2 2 2 0 0 1 0 0 0 0 0 0 0 0 0 0 0 0 0 0 12 396 329 246 138 150 2 6 3 0 40 144 165 78 87 72 68 111
0 0 0 2 3 3 3 2 2 2 0 2 0 0 0 0 0 0 0 0 0 0 0 0 0 0 0 13 35 199 59 59 134 99 9 68 5 42 130 73 18 69 49 52 130
1 1 3 1 2 3 4 2 1 1 2 0 0 0 0 0 0 0 0 0 0 0 0 0 0 0 0 0 0 0 0 107 82 11 4 48 70 23 44 30 34 15 10 29 167
3 4 0 0 0 0 0 0 0 0 0 0 0 0 0 0 0 0 0 0 0 0 0 0 0 0 0 0 0 0 63 104 51 0 0 7 31 17 3 83 11 11 22 32 117
3 4 0 0 0 0 0 0 0 0 0 0 0 0 0 0 0 0 0 0 0 0 0 0 0 0 0 0 0 70 122 84 56 7 0 7 9 1 0 2 88 98 37 91 134
4 3 1 0 0 1 0 0 0 0 0 0 0 0 0 0 0 0 0 0 0 0 0 0 0 0 0 0 29 145 201 127 125 47 54 41 49 37 6 0 44 73 48 53 81
2 4 0 0 1 0 0 0 0 0 0 0 0 0 0 0 0 0 0 0 0 0 0 0 0 0 0 0 118 108 144 97 102 120 56 55 9 10 5 21 68 50 70 14 19
0 1 1 0 0 0 0 0 0 0 0 0 0 0 0 0 0 0 0 0 0 0 0 0 0 0 0 0 3 68 265 226 172 122 74 14 0 1 5 12 34 26 50 0 24
1 0 0 3 0 0 0 0 0 0 0 0 0 0 0 0 0 0 0 0 0 0 0 0 0 0 0 0 1 229 282 273 161 23 34 10 33 0 0 0 8 3 30 6 23
1 0 0 0 1 0 0 0 0 0 0 0 0 0 0 0 0 0 0 0 0 0 0 0 0 0 0 35 94 398 151 109 85 4 0 29 19 6 0 0 0 1 46 35 32
0 0 0 0 0 0 0 0 0 0 0 0 0 0 0 0 0 0 0 0 0 0 0 0 0 709 736 599 431 238 87 20 19 8 0 24 34 2 0 0 0 0 9 39 17
0 0 0 0 0 0 0 0 0 0 0 0 0 0 0 0 0 0 0 0 0 0 0 0 0 1026 747 515 499 242 22 16 0 13 51 32 46 0 0 0 0 0 1 23 18
0 0 0 0 0 0 0 0 0 0 0 0 0 0 0 0 0 0 0 0 0 0 0 0 0 0 729 458 538 408 165 0 19 7 11 58 40 0 0 0 0 0 1 12 9
0 0 0 0 0 0 0 0 0 0 0 0 0 0 0 0 2 10 4 0 0 0 0 0 5 0 111 402 254 204 81 106 16 60 37 32 24 0 0 0 0 0 1 4 14
0 0 0 0 0 0 0 0 0 0 0 0 0 0 0 0 2 5 18 24 0 0 0 0 0 0 0 0 247 0 7 0 8 0 33 25 9 0 0 4 2 0 2 25 19
0 0 0 0 0 0 0 0 0 0 0 0 0 0 0 0 0 3 7 13 0 0 0 0 0 0 0 0 0 0 0 0 0 0 0 0 0 0 0 12 0 0 0 46 37
0 0 0 0 0 0 0 0 0 0 0 0 0 0 0 0 0 0 0 0 0 0 0 0 0 0 0 0 0 0 0 0 0 0 0 0 0 3 6 5 0 0 1 12 22
0 0 0 0 0 0 0 0 0 0 0 0 0 0 0 0 0 1 0 0 0 0 1 0 0 0 0 0 0 11 0 0 0 0 0 0 0 0 23 52 82 94 23 0 0
0 0 0 0 0 0 0 0 0 0 0 0 0 0 0 0 0 0 0 0 0 1 0 0 0 0 0 0 7 38 13 18 3 0 99 61 0 0 0 58 188 257 356 140 0
0 0 0 0 0 0 0 0 0 0 0 0 0 0 0 0 0 0 0 0 0 0 0 0 0 0 0 0 3 6 16 59 78 187 264 49 17 0 0 103 50 84 246 152 22
0 0 0 0 0 0 0 0 0 0 0 0 0 0 0 0 0 0 0 0 0 0 0 0 0 0 0 0 0 0 0 49 98 156 192 33 81 70 191 157 11 49 61 27 46

GFSSW_con_sbcape_126.txt.gz
CAPE
1 2 2 1 0 1 0 0 1 2 0 0 2 1 3 3 0 0 0 0 0 0 0 0 0 0 0 0 0 184 28 60 46 90 56 133 79 115 122 91 55 125 140 159 129
4 2 0 0 1 0 0 0 2 2 1 2 2 2 3 4 0 0 0 0 0 0 0 0 0 0 0 0 0 50 35 92 89 91 71 51 232 69 127 74 80 122 182 105 97
3 3 2 1 1 2 2 0 0 0 0 0 2 2 3 0 0 0 0 0 0 0 0 0 0 0 0 0 0 55 90 102 22 129 72 105 212 42 97 107 39 91 150 101 102
2 3 3 3 3 2 1 2 1 0 1 1 2 4 1 0 0 0 0 0 0 0 0 0 0 0 0 0 0 157 448 110 15 111 139 154 195 98 53 117 105 91 131 116 117
2 2 1 2 2 2 3 3 2 2 0 0 1 2 0 0 0 0 3 0 0 0 0 0 0 0 0 0 0 72 299 77 101 49 111 88 131 274 211 169 134 127 110 97 95
2 2 2 2 2 2 2 3 3 3 0 0 1 0 0 0 0 0 0 0 0 0 0 0 0 0 0 0 3 240 148 97 43 125 89 85 106 79 110 132 162 105 109 96 126
2 2 2 2 2 4 2 2 3 0 0 0 1 0 0 0 0 0 0 0 0 0 0 0 0 0 0 56 319 165 173 118 114 25 7 17 61 18 122 146 144 147 128 116 173
3 3 3 0 0 1 1 1 3 2 0 1 0 0 0 0 0 0 0 0 0 0 0 0 0 0 0 11 2 54 60 71 83 48 29 59 4 27 107 73 112 181 129 118 161
4 2 0 0 0 0 0 2 1 1 1 0 0 0 0 0 0 0 0 0 0 0 0 0 0 0 0 7 0 0 59 94 82 1 40 31 26 12 41 55 136 151 104 44 68
5 1 0 0 0 0 0 0 0 0 0 0 0 0 0 0 0 0 0 0 0 0 0 0 0 0 0 0 0 0 51 128 63 3 0 14 35 17 19 68 84 121 55 18 47
0 0 0 0 0 0 0 0 0 0 0 0 0 0 0 0 0 0 0 0 0 0 0 0 0 0 0 0 0 34 112 94 15 6 0 0 50 22 25 19 35 17 0 4 47
0 0 0 0 0 0 0 0 0 0 0 0 0 0 0 0 0 0 0 0 0 0 0 0 0 0 0 0 15 121 160 115 105 26 34 1 2 11 19 39 20 73 12 0 52
0 0 0 0 1 0 0 0 0 0 0 0 0 0 0 0 0 0 0 0 0 0 0 0 0 0 0 0 117 170 164 126 89 104 73 54 1 14 19 1 19 18 22 10 20
0 0 0 0 0 0 0 0 0 0 0 0 0 0 0 0 0 0 0 0 0 0 0 0 0 0 0 0 108 97 201 142 148 118 50 17 0 0 1 10 16 32 7 4 26
0 0 0 0 0 0 0 0 0 0 0 0 0 0 0 0 0 0 0 0 0 0 0 0 0 0 0 0 0 21 329 247 151 48 54 55 1 0 0 0 1 7 3 0 0
0 0 0 0 0 0 0 0 0 0 0 0 0 0 0 0 0 0 0 0 0 0 0 0 0 0 0 37 19 437 263 99 18 19 5 6 0 0 2 0 0 0 0 0 0
0 0 1 0 0 0 0 0 0 0 0 0 0 0 0 0 0 0 0 0 0 0 0 0 0 485 707 666 577 236 23 12 5 2 0 5 0 0 0 0 0 0 0 0 0
0 0 0 0 0 0 0 0 0 0 0 0 0 0 0 0 0 0 0 0 0 0 0 0 0 924 900 757 689 337 24 0 0 0 22 19 17 0 0 0 0 12 0 0 0
0 0 0 0 0 0 0 0 0 0 0 0 0 0 0 0 0 0 0 0 0 0 0 0 0 470 916 711 615 522 285 0 15 10 18 16 22 6 0 5 0 1 2 1 1
0 0 0 0 0 0 0 0 0 0 0 0 0 0 0 0 0 0 0 0 0 0 0 0 7 0 588 717 408 472 102 125 34 72 57 17 26 3 0 0 0 0 0 7 15
0 0 0 0 0 0 0 0 0 0 0 0 0 0 0 0 0 0 4 0 0 0 0 0 0 0 1 181 539 53 111 0 6 0 26 32 0 33 9 0 0 0 0 6 11
0 0 0 0 0 0 0 0 0 0 0 0 0 0 0 0 0 0 3 11 0 0 0 0 0 0 0 0 0 0 0 0 1 0 0 0 0 35 33 18 5 6 13 0 24
0 0 0 0 0 0 0 0 0 0 0 0 0 0 0 0 0 0 0 0 0 0 0 0 0 0 9 0 0 5 0 0 0 0 0 0 0 34 27 131 17 3 22 1 30
0 0 0 0 0 0 0 0 0 0 0 0 0 0 0 0 0 0 0 0 0 30 5 0 0 0 6 0 0 71 49 0 0 0 0 0 15 18 2 49 122 113 3 1 24
0 0 0 0 0 0 0 0 0 0 0 0 0 0 0 0 0 0 0 0 0 0 0 0 0 0 0 29 82 101 98 214 43 0 81 39 0 0 0 23 76 74 264 0 14
0 0 0 0 0 0 0 0 0 0 0 0 0 0 0 0 0 0 0 0 0 0 0 0 0 0 0 18 23 58 66 173 250 271 265 111 5 97 145 65 96 202 253 176 2
0 0 0 0 0 0 0 0 0 0 0 0 0 0 0 0 0 0 0 0 0 0 0 0 0 0 0 0 0 0 27 167 211 225 216 132 135 166 248 62 32 82 134 246 217